[[{"header":{"parameterUnit":"m.s-1","parameterCategory":1,"la1":31.0,"la2":29.5877,"lo1":-88.7671,"lo2":-86.6584,"dy":0.0162,"dx":0.0185,"nx":115,"ny":88,"refTime":"2023-05-23T12:00:00:Z","depth":0,"parameterNumber":2,"parameterNumberName":"U-component_of_WINDS"},"data":[0.0,0.0,0.0,0.0,0.0,0.0,0.0,0.0,0.0,0.0,0.0,0.0,0.0,0.0,0.0,0.0,0.0,0.0,0.0,0.0,0.0,0.0,0.0,0.0,0.0,0.0,0.0,0.0,0.0,0.0,0.0,0.0,0.0,0.0,0.0,0.0,0.0,0.0,0.0,0.0,0.0,0.0,0.0,0.0,0.0,0.0,0.0,0.0,0.0,0.0,0.0,0.0,0.0,0.0,0.0,0.0,0.0,0.0,0.0,0.0,0.0,0.0,0.0,0.0,0.0,0.0,0.0,0.0,0.0,0.0,0.0,0.0,0.0,0.0,0.0,0.0,0.0,0.0,0.0,0.0,0.0,0.0,0.0,0.0,0.0,0.0,0.0,0.0,0.0,0.0,0.0,0.0,0.0,0.0,0.0,0.0,0.0,0.0,0.0,0.0,0.0,0.0,0.0,0.0,0.0,0.0,0.0,0.0,0.0,0.0,0.0,0.0,0.0,0.0,0.0,0.0,0.0,0.0,0.0,0.0,0.0,0.0,0.0,0.0,0.0,0.0,0.0,0.0,0.0,0.0,0.0,0.0,0.0,0.0,0.0,0.0,0.0,0.0,0.0,0.0,0.0,0.0,0.0,0.0,0.0,0.0,0.0,0.0,0.0,0.0,0.0,0.0,0.0,0.0,0.0,0.0,0.0,0.0,0.0,0.0,0.0,0.0,0.0,0.0,0.0,0.0,0.0,0.0,0.0,0.0,0.0,0.0,0.0,0.0,0.0,0.0,0.0,0.0,0.0,0.0,0.0,0.0,0.0,0.0,0.0,0.0,0.0,0.0,0.0,0.0,0.0,0.0,0.0,0.0,0.0,0.0,0.0,0.0,0.0,0.0,0.0,0.0,0.0,0.0,0.0,0.0,0.0,0.0,0.0,0.0,0.0,0.0,0.0,0.0,0.0,0.0,0.0,0.0,0.0,0.0,0.0,0.0,0.0,0.0,0.0,0.0,0.0,0.0,0.0,0.0,0.0,0.0,0.0,0.0,0.0,0.0,0.0,0.0,0.0,0.0,0.0,0.0,0.0,0.0,0.0,0.0,0.0,0.0,0.0,0.0,0.0,0.0,0.0,0.0,0.0,0.0,0.0,0.0,0.0,0.0,0.0,0.0,0.0,0.0,0.0,0.0,0.0,0.0,0.0,0.0,0.0,0.0,0.0,0.0,0.0,0.0,0.0,0.0,0.0,0.0,0.0,0.0,0.0,0.0,0.0,0.0,0.0,0.0,0.0,0.0,0.0,0.0,0.0,0.0,0.0,0.0,0.0,0.0,0.0,0.0,0.0,0.0,0.0,0.0,0.0,0.0,0.0,0.0,0.0,0.0,0.0,0.0,0.0,0.0,0.0,0.0,0.0,0.0,0.0,0.0,0.0,0.0,0.0,0.0,0.0,0.0,0.0,0.0,0.0,0.0,0.0,0.0,0.0,0.0,0.0,0.0,0.0,0.0,0.0,0.0,0.0,0.0,0.0,0.0,0.0,0.0,0.0,0.0,0.0,0.0,0.0,0.0,0.0,0.0,0.0,0.0,0.0,0.0,0.0,0.0,0.0,0.0,0.0,0.0,0.0,0.0,0.0,0.0,0.0,0.0,0.0,0.0,0.0,0.0,0.0,0.0,0.0,0.0,0.0,0.0,0.0,0.0,0.0,0.0,0.0,0.0,0.0,0.0,0.0,0.0,0.0,0.0,0.0,0.0,0.0,0.0,0.0,0.0,0.0,0.0,0.0,0.0,0.0,0.0,0.0,0.0,0.0,0.0,0.0,0.0,0.0,0.0,0.0,0.0,0.0,0.0,0.0,0.0,0.0,0.0,0.0,0.0,0.0,0.0,0.0,0.0,0.0,0.0,0.0,0.0,0.0,0.0,0.0,0.0,0.0,0.0,0.0,0.0,0.0,0.0,0.0,0.0,0.0,0.0,0.0,0.0,0.0,0.0,0.0,0.0,0.0,0.0,0.0,0.0,0.0,0.0,0.0,0.0,0.0,0.0,0.0,0.0,0.0,0.0,0.0,0.0,0.0,0.0,0.0,0.0,0.0,0.0,0.0,0.0,0.0,0.0,0.0,0.0,0.0,0.0,0.0,0.0,0.0,0.0,0.0,0.0,0.0,0.0,0.0,0.0,0.0,0.0,0.0,0.0,0.0,0.0,0.0,0.0,0.0,0.0,0.0,0.0,0.0,0.0,0.0,0.0,0.0,0.0,0.0,0.0,0.0,0.0,0.0,0.0,0.0,0.0,0.0,0.0,0.0,0.0,0.0,0.0,0.0,0.0,0.0,0.0,0.0,0.0,0.0,0.0,0.0,0.0,0.0,0.0,0.0,0.0,0.0,0.0,0.0,0.0,0.0,0.0,0.0,0.0,0.0,0.0,0.0,0.0,0.0,0.0,0.0,0.0,0.0,0.0,0.0,0.0,0.0,0.0,0.0,0.0,0.0,0.0,0.0,0.0,0.0,0.0,0.0,0.0,0.0,0.0,0.0,0.0,0.0,0.0,0.0,0.0,0.0,0.0,0.0,0.0,0.0,0.0,0.0,0.0,0.0,0.0,0.0,0.0,0.0,0.0,0.0,0.0,0.0,0.0,0.0,0.0,0.0,0.0,0.0,0.0,0.0,0.0,0.0,0.0,0.0,0.0,0.0,0.0,0.0,0.0,0.0,0.0,0.0,0.0,0.0,0.0,0.0,0.0,0.0,0.0,0.0,0.0,0.0,0.0,0.0,0.0,0.0,0.0,0.0,0.0,0.0,0.0,0.0,0.0,0.0,0.0,0.0,0.0,0.0,0.0,0.0,0.0,0.0,0.0,0.0,0.0,0.0,0.0,0.0,0.0,0.0,0.0,0.0,0.0,0.0,0.0,0.0,0.0,0.0,0.0,0.0,0.0,0.0,0.0,0.0,0.0,0.0,0.0,0.0,0.0,0.0,0.0,0.0,0.0,0.0,0.0,0.0,0.0,0.0,0.0,0.0,0.0,0.0,0.0,0.0,0.0,0.0,0.0,0.0,0.0,0.0,0.0,0.0,0.0,0.0,0.0,0.0,0.0,0.0,0.0,0.0,0.0,0.0,0.0,0.0,0.0,0.0,0.0,0.0,0.0,0.0,0.0,0.0,0.0,0.0,0.0,0.0,0.0,0.0,0.0,0.0,0.0,0.0,0.0,0.0,0.0,0.0,0.0,0.0,0.0,0.0,0.0,0.0,0.0,0.0,0.0,0.0,0.0,0.0,0.0,0.0,0.0,0.0,0.0,0.0,0.0,0.0,0.0,0.0,0.0,0.0,0.0,0.0,0.0,0.0,0.0,0.0,0.0,0.0,0.0,0.0,0.0,0.0,0.0,0.0,0.0,0.0,0.0,0.0,0.0,0.0,0.0,0.0,0.0,0.0,0.0,0.0,0.0,0.0,0.0,0.0,0.0,0.0,0.0,0.0,0.0,0.0,0.0,0.0,0.0,0.0,0.0,0.0,0.0,0.0,0.0,0.0,0.0,0.0,0.0,0.0,0.0,0.0,0.0,0.0,0.0,0.0,0.0,0.0,0.0,0.0,0.0,0.0,0.0,0.0,0.0,0.0,0.0,0.0,0.0,0.0,0.0,0.0,0.0,0.0,0.0,0.0,0.0,0.0,0.0,0.0,0.0,0.0,0.0,0.0,0.0,0.0,0.0,0.0,0.0,0.0,0.0,0.0,0.0,0.0,0.0,0.0,0.0,0.0,0.0,0.0,0.0,0.0,0.0,0.0,0.0,0.0,0.0,0.0,0.0,0.0,0.0,0.0,0.0,0.0,0.0,0.0,0.0,0.0,0.0,0.0,0.0,0.0,0.0,0.0,0.0,0.0,0.0,0.0,0.0,0.0,0.0,0.0,0.0,0.0,0.0,0.0,0.0,0.0,0.0,0.0,0.0,0.0,0.0,0.0,0.0,0.0,0.0,0.0,0.0,0.0,0.0,0.0,0.0,0.0,0.0,0.0,0.0,0.0,0.0,0.0,0.0,0.0,0.0,0.0,0.0,0.0,0.0,0.0,0.0,0.0,0.0,0.0,0.0,0.0,0.0,0.0,0.0,0.0,0.0,0.0,0.0,0.0,0.0,0.0,0.0,0.0,0.0,0.0,0.0,0.0,0.0,0.0,0.0,0.0,0.0,0.0,0.0,0.0,0.0,0.0,0.0,0.0,0.0,0.0,0.0,0.0,0.0,0.0,0.0,0.0,0.0,0.0,0.0,0.0,0.0,2.763,0.0,0.0,0.0,0.0,0.0,0.0,0.0,0.0,0.0,0.0,0.0,0.0,0.0,0.0,0.0,0.0,0.0,0.0,0.0,0.0,0.0,0.0,0.0,0.0,0.0,0.0,0.0,0.0,0.0,0.0,0.0,0.0,0.0,0.0,0.0,0.0,0.0,0.0,0.0,0.0,0.0,0.0,0.0,0.0,0.0,0.0,0.0,0.0,0.0,0.0,0.0,0.0,0.0,0.0,0.0,0.0,0.0,0.0,0.0,0.0,0.0,0.0,0.0,0.0,0.0,0.0,0.0,0.0,0.0,0.0,0.0,0.0,0.0,0.0,0.0,0.0,0.0,0.0,0.0,0.0,0.0,0.0,0.0,0.0,0.0,0.0,0.0,0.0,0.0,0.0,0.0,0.0,0.0,0.0,0.0,0.0,0.0,0.0,0.0,0.0,0.0,0.0,0.0,0.0,0.0,0.0,0.0,0.0,0.0,0.0,2.8635,2.7657,2.8233,2.8291,2.7642,0.0,0.0,0.0,0.0,0.0,0.0,0.0,0.0,0.0,0.0,0.0,0.0,0.0,0.0,0.0,0.0,0.0,0.0,0.0,0.0,0.0,0.0,0.0,0.0,0.0,0.0,0.0,0.0,0.0,0.0,0.0,0.0,0.0,0.0,0.0,0.0,0.0,0.0,0.0,0.0,0.0,0.0,0.0,0.0,0.0,0.0,0.0,0.0,0.0,0.0,0.0,0.0,0.0,0.0,0.0,0.0,0.0,0.0,0.0,0.0,0.0,0.0,0.0,0.0,0.0,0.0,0.0,0.0,0.0,0.0,0.0,0.0,0.0,0.0,0.0,0.0,0.0,0.0,0.0,0.0,0.0,0.0,0.0,0.0,0.0,0.0,0.0,0.0,0.0,0.0,0.0,0.0,0.0,0.0,0.0,0.0,0.0,0.0,0.0,0.0,0.0,0.0,0.0,0.0,0.0,0.0,0.0,0.0,0.0,0.0,0.0,0.0,2.9205,2.9235,2.8738,0.0,0.0,0.0,0.0,0.0,0.0,0.0,0.0,0.0,0.0,0.0,0.0,0.0,0.0,0.0,0.0,0.0,0.0,0.0,0.0,0.0,0.0,0.0,0.0,0.0,0.0,0.0,0.0,0.0,0.0,0.0,0.0,0.0,0.0,0.0,0.0,0.0,0.0,0.0,0.0,0.0,0.0,0.0,0.0,0.0,0.0,0.0,0.0,0.0,0.0,0.0,0.0,0.0,0.0,0.0,0.0,0.0,0.0,0.0,0.0,0.0,0.0,0.0,0.0,0.0,0.0,0.0,0.0,0.0,0.0,0.0,0.0,0.0,0.0,0.0,0.0,0.0,0.0,0.0,0.0,0.0,0.0,0.0,0.0,0.0,0.0,0.0,0.0,0.0,0.0,0.0,0.0,0.0,0.0,0.0,0.0,0.0,0.0,0.0,0.0,0.0,0.0,0.0,0.0,0.0,0.0,0.0,0.0,0.0,0.0,2.9129,3.1944,3.2078,0.0,3.1973,0.0,0.0,0.0,0.0,0.0,0.0,0.0,0.0,0.0,0.0,0.0,0.0,0.0,0.0,0.0,0.0,0.0,0.0,0.0,0.0,0.0,0.0,0.0,0.0,0.0,0.0,0.0,0.0,0.0,0.0,0.0,0.0,0.0,0.0,0.0,0.0,0.0,0.0,0.0,0.0,0.0,0.0,0.0,0.0,0.0,0.0,0.0,0.0,0.0,0.0,0.0,0.0,0.0,0.0,0.0,0.0,0.0,0.0,0.0,0.0,0.0,0.0,0.0,0.0,0.0,0.0,0.0,0.0,0.0,0.0,0.0,0.0,0.0,0.0,0.0,0.0,0.0,0.0,0.0,0.0,0.0,0.0,0.0,0.0,0.0,0.0,0.0,0.0,0.0,0.0,0.0,0.0,0.0,0.0,0.0,0.0,0.0,0.0,0.0,0.0,0.0,0.0,0.0,0.0,0.0,0.0,0.0,0.0,0.0,0.0,3.0342,3.2437,3.2571,3.2075,0.0,0.0,0.0,0.0,0.0,0.0,0.0,0.0,0.0,0.0,0.0,0.0,0.0,0.0,0.0,0.0,0.0,0.0,0.0,0.0,0.0,0.0,0.0,0.0,0.0,0.0,0.0,0.0,0.0,0.0,0.0,0.0,0.0,0.0,0.0,0.0,0.0,0.0,0.0,0.0,0.0,0.0,0.0,0.0,0.0,0.0,0.0,0.0,0.0,0.0,0.0,0.0,0.0,0.0,0.0,0.0,0.0,0.0,0.0,0.0,0.0,0.0,0.0,0.0,0.0,0.0,0.0,0.0,0.0,0.0,0.0,0.0,0.0,0.0,0.0,0.0,0.0,0.0,0.0,0.0,0.0,0.0,0.0,0.0,0.0,0.0,0.0,0.0,0.0,0.0,0.0,0.0,0.0,0.0,0.0,0.0,0.0,0.0,0.0,0.0,0.0,0.0,0.0,0.0,0.0,0.0,0.0,0.0,0.0,0.0,3.0806,3.1944,3.3679,3.2886,3.1803,3.064,0.0,0.0,0.0,0.0,0.0,0.0,0.0,0.0,0.0,0.0,0.0,0.0,0.0,0.0,0.0,0.0,0.0,0.0,0.0,0.0,0.0,0.0,0.0,0.0,0.0,0.0,0.0,0.0,0.0,0.0,0.0,0.0,0.0,0.0,0.0,0.0,0.0,0.0,0.0,0.0,0.0,0.0,0.0,0.0,0.0,0.0,0.0,0.0,0.0,0.0,0.0,0.0,0.0,0.0,0.0,0.0,0.0,0.0,0.0,0.0,0.0,0.0,0.0,0.0,0.0,0.0,0.0,0.0,0.0,0.0,0.0,0.0,0.0,0.0,0.0,0.0,0.0,0.0,0.0,0.0,0.0,0.0,0.0,0.0,0.0,0.0,0.0,0.0,0.0,0.0,0.0,0.0,0.0,0.0,0.0,0.0,0.0,0.0,0.0,0.0,0.0,0.0,0.0,0.0,0.0,0.0,0.0,0.0,3.6402,3.3903,3.3918,3.6896,3.3529,3.1867,0.0,0.0,0.0,0.0,0.0,0.0,0.0,0.0,0.0,0.0,0.0,0.0,0.0,0.0,0.0,0.0,0.0,0.0,0.0,0.0,0.0,0.0,0.0,0.0,0.0,0.0,0.0,0.0,0.0,0.0,0.0,0.0,0.0,0.0,0.0,0.0,0.0,0.0,0.0,0.0,0.0,0.0,0.0,0.0,0.0,0.0,0.0,0.0,0.0,0.0,0.0,0.0,0.0,0.0,0.0,0.0,0.0,0.0,0.0,0.0,0.0,0.0,0.0,0.0,0.0,0.0,0.0,0.0,0.0,0.0,0.0,0.0,0.0,0.0,0.0,0.0,0.0,0.0,0.0,0.0,0.0,0.0,0.0,0.0,0.0,0.0,0.0,0.0,0.0,0.0,0.0,0.0,0.0,0.0,0.0,0.0,0.0,0.0,0.0,0.0,0.0,0.0,0.0,0.0,0.0,0.0,0.0,0.0,0.0,3.1015,3.2003,3.3888,3.6567,3.3861,3.26,0.0,0.0,0.0,0.0,0.0,0.0,0.0,0.0,0.0,0.0,0.0,0.0,0.0,0.0,0.0,0.0,0.0,0.0,0.0,0.0,0.0,0.0,0.0,0.0,0.0,0.0,0.0,0.0,0.0,0.0,0.0,0.0,0.0,0.0,0.0,0.0,0.0,0.0,0.0,0.0,0.0,0.0,0.0,0.0,0.0,0.0,0.0,0.0,0.0,0.0,0.0,0.0,0.0,0.0,0.0,0.0,0.0,0.0,0.0,0.0,0.0,0.0,0.0,0.0,0.0,0.0,0.0,0.0,0.0,0.0,0.0,0.0,0.0,0.0,0.0,0.0,0.0,0.0,0.0,0.0,0.0,0.0,0.0,0.0,0.0,0.0,0.0,0.0,0.0,0.0,0.0,0.0,0.0,0.0,0.0,0.0,0.0,0.0,0.0,0.0,0.0,0.0,0.0,0.0,0.0,0.0,0.0,0.0,0.0,3.0147,0.0,3.4996,3.5998,3.3876,3.2389,0.0,0.0,0.0,0.0,0.0,0.0,0.0,0.0,0.0,0.0,0.0,0.0,0.0,0.0,0.0,0.0,0.0,0.0,0.0,0.0,0.0,0.0,0.0,0.0,0.0,0.0,0.0,0.0,0.0,0.0,0.0,0.0,0.0,0.0,0.0,0.0,0.0,0.0,0.0,0.0,0.0,0.0,0.0,0.0,0.0,0.0,0.0,0.0,0.0,0.0,0.0,0.0,0.0,0.0,0.0,0.0,0.0,0.0,0.0,0.0,0.0,0.0,0.0,0.0,0.0,0.0,0.0,0.0,0.0,0.0,0.0,0.0,0.0,0.0,0.0,0.0,0.0,0.0,0.0,0.0,0.0,0.0,0.0,0.0,0.0,0.0,0.0,0.0,0.0,0.0,0.0,0.0,0.0,0.0,0.0,0.0,0.0,0.0,0.0,0.0,0.0,0.0,0.0,0.0,0.0,0.0,0.0,0.0,3.0147,3.51,3.712,3.7225,3.5594,3.3529,3.1072,0.0,0.0,0.0,0.0,0.0,0.0,0.0,0.0,0.0,0.0,0.0,0.0,0.0,0.0,0.0,0.0,0.0,0.0,0.0,0.0,0.0,0.0,0.0,0.0,0.0,0.0,0.0,0.0,0.0,0.0,0.0,0.0,0.0,0.0,0.0,0.0,0.0,0.0,0.0,0.0,0.0,0.0,0.0,0.0,0.0,0.0,0.0,0.0,0.0,0.0,0.0,0.0,0.0,0.0,0.0,0.0,0.0,0.0,0.0,0.0,0.0,0.0,0.0,0.0,0.0,0.0,0.0,0.0,0.0,0.0,0.0,0.0,0.0,0.0,0.0,0.0,0.0,0.0,0.0,0.0,0.0,0.0,0.0,0.0,0.0,0.0,0.0,0.0,0.0,0.0,0.0,0.0,0.0,0.0,0.0,0.0,0.0,0.0,0.0,0.0,0.0,0.0,0.0,0.0,0.0,0.0,0.0,0.0,0.0,3.1479,3.4233,3.6299,3.7287,3.2946,3.1538,0.0,0.0,0.0,0.0,0.0,0.0,0.0,0.0,0.0,0.0,0.0,0.0,0.0,0.0,0.0,0.0,0.0,0.0,0.0,0.0,0.0,0.0,0.0,0.0,0.0,0.0,0.0,0.0,0.0,0.0,0.0,0.0,0.0,0.0,0.0,0.0,0.0,0.0,0.0,0.0,0.0,0.0,0.0,0.0,0.0,0.0,0.0,0.0,0.0,0.0,0.0,0.0,0.0,0.0,0.0,0.0,0.0,0.0,0.0,0.0,0.0,0.0,0.0,0.0,0.0,0.0,0.0,0.0,0.0,0.0,0.0,0.0,0.0,0.0,0.0,0.0,0.0,0.0,0.0,0.0,0.0,0.0,0.0,0.0,0.0,0.0,0.0,0.0,0.0,0.0,0.0,0.0,0.0,0.0,0.0,0.0,0.0,0.0,0.0,0.0,0.0,0.0,0.0,0.0,0.0,0.0,0.0,0.0,0.0,3.2691,3.5491,3.7377,3.8003,3.3963,3.2452,3.3754,0.0,0.0,0.0,0.0,0.0,0.0,0.0,0.0,0.0,0.0,0.0,0.0,0.0,0.0,0.0,0.0,0.0,0.0,0.0,0.0,0.0,0.0,0.0,0.0,0.0,0.0,0.0,0.0,0.0,0.0,0.0,0.0,0.0,0.0,0.0,0.0,0.0,0.0,0.0,0.0,0.0,0.0,0.0,0.0,0.0,0.0,0.0,0.0,0.0,0.0,0.0,0.0,0.0,0.0,0.0,0.0,0.0,0.0,0.0,0.0,0.0,0.0,0.0,0.0,0.0,0.0,0.0,0.0,0.0,0.0,0.0,0.0,0.0,0.0,0.0,0.0,0.0,0.0,0.0,0.0,0.0,0.0,0.0,0.0,0.0,0.0,0.0,0.0,0.0,0.0,0.0,0.0,0.0,0.0,0.0,0.0,0.0,0.0,0.0,0.0,0.0,0.0,0.0,0.0,0.0,0.0,0.0,0.0,3.7614,4.0262,4.0442,3.7941,3.6281,3.3769,0.0,0.0,0.0,0.0,0.0,0.0,0.0,0.0,0.0,0.0,0.0,0.0,0.0,0.0,0.0,0.0,0.0,0.0,0.0,0.0,0.0,0.0,0.0,0.0,0.0,0.0,0.0,0.0,0.0,0.0,0.0,0.0,0.0,0.0,0.0,0.0,0.0,0.0,0.0,0.0,0.0,0.0,0.0,0.0,0.0,0.0,0.0,0.0,0.0,0.0,0.0,0.0,0.0,0.0,0.0,0.0,0.0,0.0,0.0,0.0,0.0,0.0,0.0,0.0,0.0,0.0,0.0,0.0,0.0,0.0,0.0,0.0,0.0,0.0,0.0,0.0,0.0,0.0,0.0,0.0,0.0,0.0,0.0,0.0,0.0,0.0,0.0,0.0,0.0,0.0,0.0,0.0,0.0,0.0,0.0,0.0,0.0,0.0,0.0,0.0,0.0,0.0,0.0,0.0,0.0,0.0,0.0,0.0,0.0,4.031,4.3404,4.4227,4.2442,3.7956,3.5265,0.0,0.0,0.0,0.0,0.0,0.0,0.0,0.0,0.0,0.0,0.0,0.0,0.0,0.0,0.0,0.0,0.0,0.0,0.0,0.0,0.0,0.0,0.0,0.0,0.0,0.0,0.0,0.0,0.0,0.0,0.0,0.0,0.0,0.0,0.0,0.0,0.0,0.0,0.0,0.0,0.0,0.0,0.0,0.0,0.0,0.0,0.0,0.0,0.0,0.0,0.0,0.0,0.0,0.0,0.0,0.0,0.0,0.0,0.0,0.0,0.0,0.0,0.0,0.0,0.0,0.0,0.0,0.0,0.0,0.0,0.0,0.0,0.0,0.0,0.0,0.0,0.0,0.0,0.0,0.0,0.0,0.0,0.0,0.0,0.0,0.0,0.0,0.0,0.0,0.0,0.0,0.0,0.0,0.0,0.0,0.0,0.0,0.0,0.0,0.0,0.0,0.0,0.0,0.0,0.0,0.0,0.0,0.0,3.8227,4.2147,4.5439,4.677,4.5971,4.1354,3.7811,0.0,0.0,0.0,0.0,0.0,0.0,0.0,0.0,0.0,0.0,0.0,0.0,0.0,0.0,0.0,0.0,0.0,0.0,0.0,0.0,0.0,0.0,0.0,0.0,0.0,0.0,0.0,0.0,0.0,0.0,0.0,0.0,0.0,0.0,0.0,0.0,0.0,0.0,0.0,0.0,0.0,0.0,0.0,0.0,0.0,0.0,0.0,0.0,0.0,0.0,0.0,0.0,0.0,0.0,0.0,0.0,0.0,0.0,0.0,0.0,0.0,0.0,0.0,0.0,0.0,0.0,0.0,0.0,0.0,0.0,0.0,0.0,0.0,0.0,0.0,0.0,0.0,0.0,0.0,0.0,0.0,0.0,0.0,0.0,0.0,0.0,0.0,0.0,0.0,0.0,0.0,0.0,0.0,0.0,0.0,0.0,0.0,0.0,0.0,0.0,0.0,0.0,0.0,0.0,0.0,0.0,0.0,0.0,3.9421,4.3334,4.6606,4.8274,4.8087,4.4945,4.0535,0.0,0.0,0.0,0.0,0.0,0.0,0.0,0.0,0.0,0.0,0.0,0.0,0.0,0.0,0.0,0.0,0.0,0.0,0.0,0.0,0.0,0.0,0.0,0.0,0.0,0.0,0.0,0.0,0.0,0.0,0.0,0.0,0.0,0.0,0.0,0.0,0.0,0.0,0.0,0.0,0.0,0.0,0.0,0.0,0.0,0.0,0.0,0.0,0.0,0.0,0.0,0.0,0.0,0.0,0.0,0.0,0.0,0.0,0.0,0.0,0.0,0.0,0.0,0.0,0.0,0.0,0.0,0.0,0.0,0.0,0.0,0.0,0.0,0.0,0.0,0.0,0.0,0.0,0.0,0.0,0.0,0.0,0.0,0.0,0.0,0.0,0.0,0.0,0.0,0.0,0.0,0.0,0.0,0.0,0.0,0.0,0.0,0.0,0.0,0.0,0.0,0.0,0.0,0.0,0.0,0.0,0.0,0.0,4.0098,4.3997,4.6845,4.8064,4.7519,4.3808,4.0026,0.0,0.0,0.0,0.0,0.0,0.0,0.0,0.0,0.0,0.0,0.0,0.0,0.0,0.0,0.0,0.0,0.0,0.0,0.0,0.0,0.0,0.0,0.0,0.0,0.0,0.0,0.0,0.0,0.0,0.0,0.0,0.0,0.0,0.0,0.0,0.0,0.0,0.0,0.0,0.0,0.0,0.0,0.0,0.0,0.0,0.0,0.0,0.0,3.0689,0.0,0.0,0.0,0.0,0.0,0.0,0.0,0.0,0.0,0.0,0.0,0.0,0.0,0.0,0.0,0.0,0.0,0.0,0.0,0.0,0.0,0.0,0.0,0.0,0.0,0.0,0.0,0.0,0.0,0.0,0.0,0.0,0.0,0.0,0.0,0.0,0.0,0.0,0.0,0.0,0.0,0.0,0.0,0.0,0.0,0.0,0.0,0.0,0.0,0.0,0.0,0.0,0.0,0.0,0.0,0.0,0.0,0.0,0.0,4.0636,4.4192,4.6621,4.7653,4.7189,4.3768,4.0176,0.0,0.0,0.0,0.0,0.0,0.0,0.0,0.0,0.0,0.0,0.0,0.0,0.0,0.0,0.0,0.0,0.0,0.0,0.0,0.0,0.0,0.0,0.0,0.0,0.0,0.0,0.0,0.0,0.0,0.0,0.0,0.0,0.0,0.0,0.0,0.0,0.0,0.0,0.0,0.0,0.0,0.0,0.0,0.0,0.0,0.0,0.0,0.0,0.0,0.0,0.0,0.0,0.0,0.0,0.0,0.0,0.0,0.0,0.0,0.0,0.0,0.0,0.0,0.0,0.0,0.0,0.0,0.0,0.0,0.0,0.0,0.0,0.0,0.0,0.0,0.0,0.0,0.0,0.0,0.0,0.0,0.0,0.0,0.0,0.0,0.0,0.0,0.0,0.0,0.0,0.0,0.0,0.0,0.0,0.0,0.0,0.0,0.0,0.0,0.0,0.0,0.0,0.0,0.0,0.0,0.0,0.0,3.7387,4.0782,4.4136,4.6061,4.6905,4.6666,4.3903,4.043,3.6357,0.0,0.0,0.0,0.0,0.0,0.0,0.0,0.0,0.0,0.0,0.0,0.0,0.0,0.0,0.0,0.0,0.0,0.0,0.0,0.0,0.0,0.0,0.0,0.0,0.0,0.0,0.0,0.0,0.0,0.0,0.0,0.0,0.0,0.0,0.0,0.0,0.0,0.0,3.0488,3.1596,0.0,0.0,0.0,0.0,0.0,0.0,0.0,0.0,3.2847,0.0,0.0,0.0,0.0,0.0,0.0,0.0,0.0,0.0,0.0,0.0,0.0,0.0,0.0,0.0,0.0,0.0,0.0,0.0,0.0,0.0,0.0,0.0,0.0,0.0,0.0,0.0,0.0,0.0,0.0,0.0,0.0,0.0,0.0,0.0,0.0,0.0,0.0,0.0,0.0,0.0,0.0,0.0,0.0,0.0,0.0,0.0,0.0,0.0,0.0,0.0,0.0,0.0,0.0,0.0,0.0,3.6416,3.7302,3.9782,4.3927,4.5066,4.5095,4.3997,4.2945,4.0014,3.5131,0.0,0.0,0.0,0.0,0.0,0.0,0.0,0.0,0.0,0.0,0.0,0.0,0.0,0.0,0.0,0.0,0.0,0.0,0.0,0.0,0.0,0.0,0.0,0.0,0.0,0.0,0.0,0.0,0.0,0.0,0.0,0.0,0.0,0.0,0.0,0.0,0.0,0.0,0.0,3.4966,3.6199,0.0,0.0,0.0,0.0,0.0,0.0,0.0,0.0,3.3942,0.0,0.0,0.0,0.0,0.0,0.0,0.0,0.0,0.0,0.0,0.0,0.0,0.0,0.0,0.0,0.0,0.0,0.0,0.0,0.0,0.0,0.0,0.0,0.0,0.0,0.0,0.0,0.0,0.0,0.0,0.0,0.0,0.0,0.0,0.0,0.0,0.0,0.0,0.0,0.0,0.0,0.0,0.0,0.0,0.0,0.0,0.0,0.0,0.0,0.0,0.0,0.0,0.0,0.0,0.0,3.5433,3.7707,4.0327,4.3437,4.435,4.4332,4.3324,4.1055,3.8125,0.0,0.0,0.0,0.0,0.0,0.0,0.0,0.0,0.0,0.0,0.0,0.0,0.0,0.0,0.0,0.0,0.0,0.0,0.0,0.0,0.0,0.0,0.0,0.0,0.0,0.0,0.0,0.0,0.0,0.0,0.0,0.0,0.0,0.0,0.0,0.0,0.0,0.0,0.0,0.0,3.5922,3.7091,3.7364,0.0,0.0,0.0,0.0,0.0,0.0,3.4241,3.4793,0.0,0.0,0.0,0.0,0.0,0.0,0.0,0.0,0.0,0.0,0.0,0.0,0.0,0.0,0.0,0.0,0.0,0.0,0.0,0.0,0.0,0.0,0.0,0.0,0.0,0.0,0.0,0.0,0.0,0.0,0.0,0.0,0.0,0.0,0.0,0.0,0.0,0.0,0.0,0.0,0.0,0.0,0.0,0.0,0.0,0.0,0.0,0.0,0.0,0.0,0.0,0.0,0.0,0.0,0.0,3.3915,3.7349,4.0207,4.2342,4.3135,4.3225,4.2551,3.9215,3.6372,0.0,0.0,0.0,0.0,0.0,0.0,0.0,0.0,0.0,0.0,0.0,0.0,0.0,0.0,0.0,0.0,0.0,0.0,0.0,0.0,0.0,0.0,0.0,0.0,0.0,0.0,0.0,0.0,0.0,0.0,0.0,0.0,0.0,0.0,0.0,0.0,0.0,0.0,0.0,0.0,0.0,3.7825,3.8841,3.7843,0.0,0.0,0.0,0.0,3.4851,3.5367,0.0,0.0,0.0,0.0,0.0,0.0,0.0,0.0,0.0,0.0,0.0,0.0,0.0,0.0,0.0,0.0,0.0,0.0,0.0,0.0,0.0,0.0,0.0,0.0,0.0,0.0,0.0,0.0,0.0,0.0,0.0,0.0,0.0,0.0,0.0,0.0,0.0,0.0,0.0,0.0,0.0,0.0,0.0,0.0,0.0,0.0,0.0,0.0,0.0,0.0,0.0,0.0,0.0,0.0,0.0,0.0,3.2913,3.4835,3.7178,4.0022,4.0628,4.0531,3.987,3.8255,3.5922,0.0,0.0,0.0,0.0,0.0,0.0,0.0,0.0,0.0,0.0,0.0,0.0,0.0,0.0,0.0,0.0,0.0,0.0,0.0,0.0,0.0,0.0,0.0,0.0,0.0,0.0,0.0,0.0,0.0,0.0,0.0,0.0,0.0,0.0,0.0,0.0,0.0,0.0,0.0,0.0,0.0,4.0095,3.8549,3.8484,3.8132,0.0,0.0,3.586,3.7103,3.6896,0.0,0.0,0.0,0.0,0.0,0.0,0.0,0.0,0.0,0.0,0.0,0.0,0.0,0.0,0.0,0.0,0.0,0.0,0.0,0.0,0.0,0.0,0.0,0.0,0.0,0.0,0.0,0.0,0.0,0.0,0.0,0.0,0.0,0.0,0.0,0.0,0.0,0.0,0.0,0.0,0.0,0.0,0.0,0.0,0.0,0.0,0.0,0.0,0.0,0.0,0.0,0.0,0.0,0.0,0.0,2.8452,3.2123,3.3991,3.6149,3.862,3.8554,3.859,3.8823,3.606,3.3925,0.0,0.0,0.0,0.0,0.0,0.0,0.0,0.0,0.0,0.0,0.0,0.0,0.0,0.0,0.0,0.0,0.0,0.0,0.0,0.0,0.0,0.0,0.0,0.0,0.0,0.0,0.0,0.0,0.0,0.0,0.0,0.0,0.0,0.0,0.0,0.0,0.0,0.0,0.0,0.0,0.0,0.0,3.8673,3.8812,0.0,0.0,0.0,3.7026,3.7708,0.0,0.0,0.0,0.0,0.0,0.0,0.0,0.0,0.0,0.0,0.0,0.0,0.0,0.0,0.0,0.0,0.0,0.0,0.0,0.0,0.0,0.0,0.0,0.0,0.0,0.0,0.0,0.0,0.0,0.0,0.0,0.0,0.0,0.0,0.0,0.0,0.0,0.0,0.0,0.0,0.0,0.0,0.0,0.0,0.0,0.0,0.0,0.0,0.0,0.0,0.0,0.0,0.0,0.0,0.0,0.0,0.0,3.0712,3.2689,3.4792,3.6937,3.6505,3.6667,3.7493,3.3932,0.0,0.0,0.0,0.0,0.0,0.0,0.0,0.0,0.0,0.0,0.0,0.0,0.0,0.0,0.0,0.0,0.0,0.0,0.0,0.0,0.0,0.0,0.0,0.0,0.0,0.0,0.0,2.4593,0.0,0.0,0.0,0.0,0.0,0.0,0.0,0.0,0.0,0.0,0.0,0.0,0.0,0.0,3.7346,3.8061,3.8728,3.91,0.0,0.0,3.8026,3.8228,3.8517,3.8136,0.0,0.0,0.0,0.0,0.0,0.0,0.0,0.0,0.0,0.0,0.0,0.0,0.0,0.0,0.0,0.0,0.0,0.0,0.0,0.0,0.0,0.0,0.0,0.0,0.0,0.0,0.0,0.0,0.0,0.0,0.0,0.0,0.0,0.0,0.0,0.0,0.0,0.0,0.0,0.0,0.0,0.0,0.0,0.0,0.0,0.0,0.0,0.0,0.0,0.0,0.0,0.0,0.0,0.0,2.6078,2.8126,3.0005,3.2204,3.4608,3.4307,3.4518,3.5325,3.2297,3.0625,0.0,0.0,0.0,0.0,0.0,0.0,0.0,0.0,0.0,0.0,0.0,0.0,0.0,0.0,0.0,0.0,0.0,0.0,0.0,0.0,0.0,0.0,0.0,0.0,0.0,0.0,0.0,0.0,0.0,0.0,0.0,0.0,0.0,0.0,0.0,0.0,0.0,0.0,0.0,0.0,0.0,3.6532,3.6004,3.8052,3.9595,0.0,3.894,3.8782,3.9221,3.9311,3.8851,3.743,0.0,0.0,0.0,0.0,0.0,0.0,0.0,0.0,0.0,0.0,0.0,0.0,0.0,0.0,0.0,0.0,0.0,0.0,0.0,0.0,0.0,0.0,0.0,0.0,0.0,0.0,0.0,0.0,0.0,0.0,0.0,0.0,0.0,0.0,0.0,0.0,0.0,0.0,0.0,0.0,0.0,0.0,0.0,0.0,0.0,0.0,0.0,0.0,0.0,0.0,0.0,0.0,0.0,2.5106,2.7738,2.8777,3.0384,3.2534,3.2373,3.2561,3.3273,3.128,2.9928,0.0,0.0,0.0,0.0,0.0,0.0,0.0,0.0,0.0,0.0,0.0,0.0,0.0,0.0,0.0,0.0,0.0,0.0,0.0,0.0,0.0,0.0,0.0,0.0,0.0,0.0,0.0,0.0,2.6387,2.6627,2.7301,0.0,0.0,0.0,0.0,0.0,0.0,0.0,0.0,0.0,0.0,3.5821,3.6786,3.8054,0.0,0.0,3.9254,3.9197,3.9379,3.8703,3.7814,3.6847,3.5667,0.0,0.0,0.0,0.0,0.0,0.0,0.0,0.0,0.0,0.0,0.0,0.0,0.0,0.0,0.0,0.0,0.0,0.0,0.0,0.0,0.0,0.0,0.0,0.0,0.0,0.0,0.0,0.0,0.0,0.0,0.0,0.0,0.0,0.0,0.0,0.0,0.0,0.0,0.0,0.0,0.0,0.0,0.0,0.0,0.0,0.0,0.0,0.0,0.0,0.0,0.0,0.0,2.4316,2.6822,2.765,2.9039,3.1063,3.0934,3.1106,3.1557,3.0196,2.9079,0.0,0.0,0.0,0.0,0.0,0.0,0.0,0.0,0.0,0.0,0.0,0.0,0.0,0.0,0.0,0.0,0.0,0.0,0.0,0.0,0.0,0.0,0.0,0.0,0.0,0.0,0.0,0.0,2.6914,2.7078,2.7555,0.0,0.0,0.0,0.0,0.0,0.0,0.0,0.0,0.0,0.0,3.5681,3.6869,3.782,3.8514,3.8763,3.8793,3.8748,3.8554,3.8078,3.7283,3.6153,0.0,0.0,0.0,0.0,0.0,0.0,0.0,0.0,0.0,0.0,0.0,0.0,0.0,0.0,0.0,0.0,0.0,0.0,0.0,0.0,0.0,0.0,0.0,0.0,0.0,0.0,0.0,0.0,0.0,0.0,2.2524,0.0,0.0,0.0,0.0,0.0,0.0,0.0,0.0,0.0,0.0,0.0,0.0,0.0,0.0,0.0,0.0,0.0,0.0,0.0,0.0,0.0,0.0,2.3675,2.4852,2.6513,2.8214,3.0019,3.0117,3.0243,3.046,2.8984,2.7924,2.7423,0.0,0.0,0.0,0.0,0.0,0.0,0.0,0.0,0.0,0.0,0.0,0.0,0.0,0.0,0.0,0.0,0.0,0.0,0.0,0.0,0.0,0.0,0.0,0.0,0.0,0.0,2.7555,2.757,2.757,0.0,0.0,0.0,0.0,0.0,0.0,0.0,0.0,0.0,0.0,3.4366,3.6224,3.5654,3.7197,3.8153,3.7552,3.7462,3.727,3.6733,3.7571,3.7646,0.0,0.0,0.0,0.0,0.0,0.0,0.0,0.0,0.0,0.0,0.0,0.0,0.0,0.0,0.0,0.0,0.0,0.0,0.0,0.0,0.0,0.0,0.0,0.0,0.0,0.0,0.0,2.1026,2.1049,0.0,0.0,0.0,0.0,0.0,0.0,0.0,0.0,0.0,0.0,0.0,2.2729,2.3656,0.0,0.0,0.0,0.0,0.0,0.0,0.0,0.0,0.0,0.0,0.0,0.0,2.3318,2.4779,2.6092,2.7251,2.8216,2.8942,2.907,2.8595,2.8039,2.7395,2.6615,0.0,0.0,0.0,0.0,0.0,0.0,0.0,0.0,0.0,0.0,0.0,0.0,0.0,0.0,0.0,0.0,0.0,0.0,0.0,0.0,0.0,0.0,0.0,0.0,0.0,2.7585,0.0,0.0,0.0,0.0,0.0,0.0,0.0,0.0,0.0,0.0,0.0,3.142,3.2078,3.4292,3.5744,3.5534,3.6759,3.7659,0.0,0.0,0.0,0.0,0.0,0.0,0.0,0.0,0.0,0.0,0.0,0.0,0.0,0.0,4.0446,3.8242,3.7406,3.7059,3.7145,0.0,0.0,0.0,0.0,0.0,0.0,0.0,0.0,0.0,0.0,0.0,0.0,0.0,0.0,2.0432,0.0,2.0653,0.0,0.0,0.0,0.0,0.0,0.0,0.0,0.0,2.3361,2.3313,2.2543,2.3607,2.3935,0.0,2.4459,2.4449,0.0,0.0,0.0,0.0,0.0,0.0,0.0,0.0,2.3524,2.4804,2.6118,2.6952,2.7311,2.8154,2.8265,2.7526,2.7178,2.6656,2.5905,2.4588,2.3983,0.0,0.0,0.0,0.0,0.0,0.0,0.0,0.0,0.0,0.0,0.0,0.0,0.0,0.0,0.0,0.0,0.0,0.0,0.0,0.0,0.0,0.0,0.0,2.7495,0.0,0.0,0.0,0.0,0.0,0.0,0.0,0.0,0.0,3.0178,3.1196,3.2183,3.308,3.4532,3.5398,3.5175,0.0,0.0,0.0,0.0,0.0,0.0,0.0,3.5437,3.6145,3.6371,3.6926,3.8342,3.9951,4.1061,4.1061,0.0,0.0,3.9551,3.8802,3.8435,3.8525,3.8597,3.8761,3.9118,3.8873,3.8836,0.0,0.0,0.0,0.0,0.0,0.0,0.0,0.0,1.9038,1.9957,0.0,2.0631,0.0,0.0,0.0,0.0,0.0,2.1652,0.0,0.0,2.3179,2.3563,2.356,2.4135,2.4432,2.4488,2.5167,2.5183,2.4541,2.4198,0.0,0.0,0.0,0.0,0.0,0.0,2.4268,2.4829,2.6414,2.7261,2.7286,2.7795,2.7821,2.7273,2.6388,2.5717,2.5294,2.4747,2.4185,2.3533,2.3683,0.0,0.0,0.0,0.0,0.0,0.0,0.0,0.0,0.0,0.0,0.0,0.0,0.0,0.0,0.0,0.0,0.0,0.0,0.0,0.0,2.754,0.0,0.0,0.0,0.0,0.0,0.0,0.0,0.0,0.0,0.0,3.1406,3.2093,3.3006,3.4263,0.0,0.0,0.0,0.0,3.525,3.4682,3.51,3.5295,3.4682,3.558,3.5942,3.4634,0.0,0.0,3.9262,3.9978,4.0478,4.0445,4.0511,4.0859,4.2139,4.1208,4.0413,4.039,3.9601,3.9173,3.9669,3.9063,3.8451,1.4654,0.0,0.0,0.0,0.0,1.6088,1.6315,1.6776,1.776,1.8386,1.8716,1.9031,0.0,0.0,0.0,0.0,0.0,0.0,2.1991,2.187,2.2459,2.2605,2.2423,2.3141,2.3494,2.3524,2.4411,2.5058,2.5466,2.472,2.4082,2.3536,0.0,0.0,0.0,0.0,2.4268,2.4825,2.608,2.6725,2.6721,2.7248,2.7273,2.6751,2.6055,2.5459,2.4978,2.4429,2.3935,2.3462,2.343,0.0,0.0,0.0,0.0,0.0,0.0,0.0,0.0,0.0,0.0,0.0,0.0,0.0,0.0,0.0,0.0,0.0,0.0,0.0,2.6225,2.618,2.6057,0.0,0.0,0.0,0.0,0.0,0.0,0.0,0.0,0.0,3.1916,3.2736,3.335,0.0,0.0,3.4712,3.4533,3.4667,3.4877,3.5175,3.5385,0.0,3.5235,3.5146,3.5235,3.5723,3.7656,3.9491,4.0604,4.0978,4.111,4.111,4.1113,4.1245,4.1558,4.1039,4.0467,4.0428,4.0298,4.0282,4.043,4.0343,4.043,1.4143,1.4214,1.4699,1.5072,1.5287,1.5004,1.514,1.5615,1.6299,1.6858,1.7303,1.7494,1.8152,1.9144,1.9338,0.0,0.0,0.0,2.1628,2.1738,2.2221,2.2318,2.2192,2.2788,2.3088,2.312,2.3912,2.4561,2.5039,2.49,2.4543,2.4043,0.0,0.0,2.3782,2.4327,2.4795,2.513,2.6047,2.6487,2.6499,2.6587,2.6469,2.616,2.5586,2.4917,2.4148,2.36,2.3122,2.2688,2.2663,2.264,0.0,0.0,0.0,0.0,0.0,0.0,0.0,0.0,0.0,0.0,0.0,2.4164,2.3547,0.0,0.0,0.0,2.6044,2.6175,2.5533,2.5688,0.0,0.0,0.0,0.0,0.0,0.0,0.0,2.976,3.0284,3.1012,3.2049,3.2614,3.3122,3.369,3.3738,3.3904,3.4428,0.0,3.4338,3.4996,3.534,3.5489,3.5489,3.516,3.533,3.6584,3.8237,3.9709,4.0767,4.0994,4.1094,4.1295,4.1193,4.1094,4.1345,4.0845,4.0495,4.0727,4.0739,4.0819,4.1137,4.0779,4.0541,1.4052,1.3755,1.3875,1.4261,1.4726,1.4116,1.4236,1.4871,1.4946,1.5607,1.6605,1.6231,1.6775,1.8044,1.8714,0.0,2.0352,2.0537,2.1104,2.1974,2.2334,2.2508,2.2566,2.2916,2.3101,2.3093,2.3662,2.3857,2.3764,2.4653,2.4929,2.4569,2.4536,2.4607,2.4809,2.5318,2.5603,2.5615,2.6197,2.6491,2.6441,2.5891,2.5573,2.5523,2.5055,2.4277,2.3173,2.2631,2.2094,2.1557,2.1658,2.1922,2.2308,0.0,0.0,0.0,0.0,0.0,0.0,0.0,0.0,0.0,0.0,0.0,0.0,0.0,0.0,2.5246,2.5712,0.0,2.521,2.5749,0.0,0.0,0.0,2.7027,2.6404,2.808,2.9481,3.0041,0.0,0.0,3.1824,3.1913,3.2431,3.3829,3.3123,3.293,3.4233,3.3813,3.3664,3.4323,3.4921,3.5325,3.5205,3.519,3.5545,3.6729,3.8191,3.908,3.9866,4.0081,4.0379,4.0881,4.0677,4.0379,4.0978,4.0415,4.0382,4.0782,4.0691,4.0741,4.1287,4.0256,3.9373,1.4375,1.4088,1.4106,1.4053,1.3919,1.4008,1.4246,1.4634,1.5255,1.5795,1.624,1.6445,1.7077,1.8043,1.8852,1.9774,2.0756,2.0796,2.1391,2.2323,2.244,2.2664,2.2955,2.3074,2.3101,2.3113,2.3244,2.3478,2.3753,2.366,2.4109,2.4978,2.4785,2.4701,2.4806,2.5335,2.5603,2.5615,2.618,2.6268,2.5829,2.5661,2.541,2.5005,2.485,2.4261,2.3158,2.2995,2.247,2.1556,2.1911,2.2007,2.173,2.1433,0.0,0.0,0.0,0.0,0.0,0.0,0.0,0.0,0.0,2.4693,2.4048,0.0,2.5424,0.0,2.4941,2.4492,2.3854,2.4779,0.0,0.0,2.7104,2.8336,2.7584,2.9337,3.0498,3.0115,3.0543,3.0939,3.1071,3.1086,3.1394,3.2248,3.2224,3.2479,3.3419,3.3032,3.2839,3.3588,3.3903,3.3963,3.4008,3.3963,3.4272,3.4978,3.5412,3.6127,3.7773,3.8033,3.824,3.8851,3.9305,3.9169,3.8377,3.8427,3.853,3.8311,3.898,3.9831,4.0007,3.9481,3.905,1.4051,1.3891,1.4016,1.3975,1.3873,1.4059,1.421,1.4358,1.4922,1.5184,1.5248,1.5858,1.6464,1.7086,1.832,1.9534,2.0664,2.101,2.1745,2.2752,2.2771,2.2877,2.3091,2.3101,2.3101,2.3091,2.2927,2.296,2.3189,2.292,2.3219,2.4072,2.4397,2.4684,2.4924,2.5639,2.6005,2.5992,2.6323,2.6193,2.5624,2.5372,2.498,2.4453,2.4189,2.3521,2.2433,2.2395,2.1868,2.0828,2.1294,2.1443,2.1169,2.0895,2.0704,0.0,0.0,0.0,0.0,0.0,0.0,0.0,0.0,0.0,0.0,0.0,2.5053,2.5026,2.4994,2.4701,2.4031,2.4868,2.534,2.5005,2.708,2.8204,2.7479,2.8963,2.9884,2.9519,2.9696,2.9871,2.9871,2.9857,2.9988,3.0367,3.047,3.1175,3.2728,3.2597,3.2465,3.3272,3.3422,3.3438,3.3484,3.3728,3.4014,3.4338,3.4643,3.5312,3.6567,3.6807,3.7014,3.7602,3.8046,3.8092,3.7284,3.7387,3.7536,3.7367,3.7799,3.8504,3.8922,3.8736,3.8507,1.3552,1.3463,1.3779,1.3976,1.4167,1.4184,1.4211,1.4269,1.4482,1.4436,1.4259,1.5084,1.5614,1.5971,1.7511,1.8915,2.0161,2.1001,2.1901,2.2841,2.3028,2.3101,2.3101,2.3101,2.3101,2.3081,2.2742,2.2547,2.249,2.2392,2.2452,2.269,2.3624,2.4373,2.4969,2.5856,2.6383,2.6487,2.6487,2.6185,2.5511,2.5042,2.4515,2.3916,2.3386,2.2596,2.1543,2.1481,2.1017,1.9999,2.0427,2.073,2.0792,2.0743,2.0677,0.0,2.0179,0.0,0.0,0.0,0.0,0.0,0.0,0.0,0.0,2.4459,2.4824,2.4824,2.5315,2.5444,2.4868,2.5487,2.5718,2.5282,2.675,2.7608,2.7155,2.8041,2.868,2.868,2.868,2.868,2.8752,2.868,2.8709,2.8825,2.8985,2.9842,3.1778,3.1824,3.1796,3.2851,3.3045,3.2943,3.311,3.3576,3.3899,3.4016,3.4401,3.5213,3.5792,3.5995,3.6267,3.6814,3.7102,3.7069,3.6887,3.6858,3.6882,3.6612,3.6715,3.7116,3.7812,3.7899,3.7753,1.3772,1.322,1.3703,1.3897,1.3896,1.4113,1.4566,1.5137,1.4979,1.4865,1.4865,1.5447,1.59,1.6294,1.7292,1.8131,1.8834,2.0056,2.0945,2.1596,2.2621,2.3101,2.3101,2.3101,2.3101,2.3113,2.3013,2.282,2.2479,2.2168,2.215,2.2459,2.2459,2.322,2.4689,0.0,0.0,0.0,2.6487,2.5992,2.5021,2.4854,2.4315,2.3308,2.317,0.0,2.1556,2.1481,2.1193,2.0578,2.0641,0.0,0.0,0.0,0.0,0.0,0.0,0.0,0.0,0.0,0.0,0.0,2.3528,2.3888,2.3917,2.45,2.4851,2.4824,2.4911,2.4967,2.4919,2.5937,2.6575,2.6517,2.7678,2.8462,2.8375,2.8535,2.868,2.868,2.8694,2.868,2.8651,2.868,2.868,2.8666,2.9116,2.9392,2.9536,2.9651,3.0059,3.122,3.1664,3.1708,3.1723,3.1943,3.2236,3.213,3.2542,3.3386,3.444,3.5024,3.5486,3.6059,3.6688,3.663,3.5583,3.5781,3.5852,3.4871,3.5112,3.5711,3.6447,3.6688,3.6692,1.3797,0.0,1.3714,1.3883,0.0,1.4252,1.4646,1.4998,1.4825,1.4743,1.4774,1.5027,1.5404,1.589,1.664,1.7345,1.8051,1.898,2.006,2.1207,2.1845,2.2485,2.3101,2.3101,2.3101,2.3091,2.2898,2.2713,2.2479,2.21,2.1864,2.1809,2.2292,2.2826,2.336,2.4355,2.5406,2.6487,2.6487,2.6067,2.5218,2.4929,2.4402,2.3574,2.3258,0.0,0.0,0.0,0.0,0.0,0.0,0.0,0.0,0.0,0.0,2.0434,2.0656,2.1142,2.1892,2.2424,2.2923,2.3402,2.3761,2.4054,2.4319,2.4963,2.534,2.5313,2.5589,2.5794,2.5849,2.6429,2.6807,2.6836,2.7373,2.7765,2.7764,2.7751,2.7764,2.7751,2.7764,2.7765,2.7751,2.7765,2.7896,2.8158,2.8449,2.8696,2.8781,2.9304,3.0017,3.047,3.0955,3.1086,3.082,3.1128,3.1509,3.1738,3.188,3.2451,3.3549,3.3762,3.3951,3.4504,3.4932,3.4935,3.4668,3.4606,3.4574,3.4488,3.4306,3.4277,3.468,3.5189,3.5704,1.3774,1.355,1.3851,1.3966,1.4021,1.4429,1.4581,1.4589,0.0,0.0,0.0,1.4521,1.4843,1.5433,1.588,1.6476,1.7236,1.7944,1.9081,2.0548,2.0887,2.168,2.284,2.285,2.2938,2.3103,2.2771,2.2596,2.2576,2.2051,2.1571,2.1319,2.213,2.2341,2.2136,2.3654,2.4969,2.5943,2.6263,2.6108,2.5528,2.4998,2.4445,2.391,2.3332,2.2723,2.207,2.2162,2.1619,2.0441,2.0909,2.0774,1.9789,2.0106,2.0143,1.9738,2.0189,2.0885,2.1786,2.2353,2.3069,2.4092,2.4156,2.4347,2.4799,2.5322,2.5696,2.5824,2.6302,2.6647,2.6634,2.6634,2.6647,2.662,2.6633,2.6675,2.6713,2.6713,2.6785,2.6779,2.6865,2.6807,2.6851,2.6865,2.7039,2.755,2.7782,2.8014,2.8768,2.9697,3.0162,3.0017,3.0543,3.0852,3.0513,3.0835,3.1436,3.1793,3.1781,3.2048,3.2812,3.2841,3.2803,3.3487,3.3319,3.3533,3.3949,3.3716,3.355,3.4427,3.3796,3.3026,3.3002,3.3581,3.4358,1.396,1.3539,1.4032,1.4235,1.4258,1.4505,1.4563,1.4517,1.4492,1.4669,1.4905,1.4636,1.4821,1.5378,1.5248,1.5358,1.5704,1.7086,1.7813,1.812,1.9619,2.0886,2.1872,2.1895,2.2325,2.3047,2.3033,2.3003,2.2908,2.1874,2.1269,2.1132,2.0634,2.0922,2.1998,2.311,2.3763,2.3934,2.5264,2.5709,2.5183,2.4637,2.4107,2.3593,2.3038,2.2465,2.1881,2.1871,2.1574,2.0943,2.098,2.0957,2.0794,2.0841,2.0841,2.0822,2.1276,2.1824,2.2352,2.2896,2.3654,2.465,2.4772,2.4811,2.4876,2.4959,2.5254,2.5818,2.6014,2.6016,2.6029,2.6043,2.6084,2.6043,2.6029,2.6124,2.6352,2.6364,2.6472,2.6727,2.6807,2.6779,2.6766,2.6808,2.707,2.755,2.7869,2.8159,2.9145,2.961,2.9726,2.9755,3.0309,3.0719,3.0631,3.1014,3.1336,3.1379,3.1894,3.2325,3.3,3.3002,3.3095,3.379,3.3371,3.3384,3.3895,3.362,3.3329,3.3485,3.3002,3.2396,3.2021,3.2225,3.2587,1.4153,1.3978,1.4195,1.4319,1.4325,1.4515,1.4666,1.4763,1.4756,1.4852,1.4986,1.4983,1.5144,1.5371,1.528,1.5158,1.5133,1.5928,1.6629,1.7286,1.8221,1.9283,2.0384,2.1111,2.1658,2.2091,2.2788,2.2996,2.2732,2.2176,2.1572,2.0879,2.0225,2.0719,2.2276,2.2504,2.2824,2.336,2.46,2.5139,2.4887,2.4501,2.4177,2.3919,2.3148,2.2521,2.2146,2.2249,2.1949,2.1248,2.1547,2.1455,2.0835,2.1066,2.1076,2.0825,2.1285,2.1792,2.2263,2.3011,2.3886,2.4847,2.4723,2.4696,2.4957,2.5269,2.557,2.5879,2.5907,2.5907,2.5907,2.5907,2.5907,2.5907,2.5907,2.5961,2.6056,2.6082,2.6137,2.63,2.6433,2.6525,2.6526,2.6963,2.7534,2.8129,2.8478,2.8971,2.9494,2.9319,2.9247,2.9552,2.9915,3.0104,3.0192,3.0661,3.1146,3.1536,3.1709,3.2061,3.2586,3.2559,3.2451,3.2615,3.2449,3.2545,3.3073,3.2682,3.2584,3.3053,3.2463,3.1952,3.1924,3.1953,3.2197,1.4322,1.4322,1.437,1.4445,1.457,1.474,1.4913,1.5093,1.5153,1.5146,1.5113,1.5253,1.532,1.532,1.5304,1.5152,1.4967,1.5269,1.5937,1.6747,1.713,1.7967,1.9146,2.0087,2.0732,2.1308,2.2168,2.2471,2.2352,2.208,2.1377,2.0381,2.0029,2.0684,2.2175,2.1759,2.1907,2.2627,2.3562,2.4199,2.4529,2.4142,2.3992,2.4112,2.3133,2.2509,2.2386,2.2509,2.2265,2.1662,2.2064,2.1934,2.107,2.1356,2.1407,2.106,2.1359,2.1785,2.2263,2.3101,2.3901,2.4608,2.4464,2.4408,2.4679,2.5216,2.5605,2.5674,2.5674,2.5688,2.5674,2.5688,2.5702,2.5702,2.5702,2.5715,2.5798,2.5812,2.588,2.5961,2.6177,2.638,2.6676,2.7227,2.7913,2.8564,2.9334,2.9769,2.9595,2.9174,2.9174,2.9566,2.9711,2.974,2.9798,3.0382,3.0999,3.1593,3.1451,3.1667,3.2048,3.1852,3.1639,3.1768,3.1668,3.1867,3.2231,3.1952,3.2021,3.2666,3.2216,3.1711,3.2079,3.208,3.216,1.4322,1.4346,1.4544,1.4962,1.5332,1.5377,1.5384,1.5384,1.5618,1.5568,1.5317,1.5133,1.5055,1.5048,1.5033,1.4956,1.4961,1.5746,1.6086,1.6146,1.6698,1.7621,1.8639,1.8374,1.936,2.124,2.1099,2.1268,2.1753,2.0742,1.9903,1.952,1.9746,2.0194,2.076,2.078,2.077,2.0867,2.1671,2.2761,2.3997,2.3231,2.309,2.3798,2.2826,2.2232,2.2244,2.2244,2.2204,2.2141,2.2177,2.2168,2.2053,2.2089,2.2089,2.2032,2.2077,2.2317,2.2792,2.3299,2.3621,2.3739,2.4089,2.4118,2.3828,2.4205,2.465,2.499,2.5103,2.5144,2.5075,2.5145,2.5186,2.5172,2.5145,2.5188,2.5467,2.555,2.573,2.6203,2.6288,2.6606,2.7316,2.77,2.8029,2.8724,2.9726,3.019,2.9697,2.9523,2.9668,3.0161,3.0031,2.99,3.0307,3.0644,3.0851,3.0955,3.1043,3.1379,3.1737,3.1709,3.1481,3.1824,3.1796,3.1754,3.1994,3.1937,3.1725,3.2176,3.198,3.1583,3.1798,3.194,3.2057,1.4394,1.4544,1.464,1.4874,1.5197,1.5354,1.5342,1.5186,1.5257,1.5273,1.5166,1.5055,1.5015,1.4979,1.4805,1.4666,1.4645,1.5088,1.5353,1.549,1.585,1.6395,1.7052,1.7614,1.8423,1.9389,1.9869,2.0202,2.0246,1.9792,1.958,1.9668,1.9834,2.0137,2.0556,2.0596,2.0596,2.0595,2.0915,2.1633,2.2629,2.2965,2.3069,2.3067,2.2813,2.2514,2.2234,2.2197,2.2197,2.2197,2.2197,2.2197,2.2197,2.2197,2.2197,2.2197,2.2197,2.2402,2.2863,2.282,2.3005,2.3547,2.3514,2.3471,2.3632,2.4062,2.4448,2.4627,2.4923,2.5101,2.5099,2.5347,2.5405,2.5147,2.5036,2.5061,2.5173,2.5216,2.5424,2.5966,2.6371,2.6876,2.7627,2.8354,2.8871,2.9276,3.0045,3.0307,2.974,2.9595,2.9885,3.035,3.0045,2.9943,3.0452,3.0642,3.0702,3.0777,3.0866,3.1131,3.1437,3.1495,3.1452,3.1824,3.1654,3.1568,3.1768,3.1725,3.1596,3.181,3.1782,3.1539,3.1611,3.1811,3.1968,1.4568,1.4807,1.4885,1.5044,1.5219,1.5332,1.53,1.5106,1.5026,1.5015,1.4979,1.4928,1.491,1.4941,1.4784,1.463,1.4558,1.4887,1.5135,1.5331,1.5478,1.5789,1.6235,1.6873,1.7512,1.7997,1.8717,1.9028,1.8939,1.8986,1.9269,1.9671,1.9971,2.0254,2.0556,2.0596,2.0596,2.0596,2.0596,2.0886,2.1535,2.2454,2.2737,2.2372,2.2533,2.2428,2.1933,2.2077,2.2197,2.2197,2.2108,2.2108,2.2197,2.2096,2.2108,2.217,2.2197,2.2355,2.2681,2.2386,2.2497,2.3098,2.3,2.3047,2.3422,2.3912,2.4263,2.4471,2.4944,2.5213,2.5188,2.5598,2.5638,2.5183,2.5027,2.5004,2.5005,2.5099,2.5469,2.5964,2.6648,2.7356,2.8166,2.9159,2.9871,2.9943,3.0263,3.0466,3.0016,2.9914,3.0089,3.051,3.0161,3.0132,3.051,3.0627,3.0672,3.0702,3.0747,3.0851,3.1132,3.119,3.1292,3.1524,3.1481,3.151,3.1611,3.1539,3.1496,3.1496,3.1496,3.1496,3.151,3.1783,3.1968,1.4838,1.5088,1.535,1.5518,1.5724,1.5461,1.5371,1.5264,1.5073,1.4988,1.4934,1.4656,1.4673,1.4896,1.5087,1.5046,1.4817,1.5503,1.5813,1.5791,1.5841,1.6213,1.6793,1.6301,1.6767,1.7885,1.7548,1.7571,1.7977,1.8165,1.8609,1.9291,2.003,2.0508,2.0576,2.0595,2.0596,2.0596,2.0586,2.0615,2.075,2.1469,2.1731,2.1527,2.1739,2.167,2.1306,2.1816,2.2151,2.2166,2.1878,2.1851,2.2108,2.1882,2.1866,2.2123,2.2197,2.2213,2.2216,2.2197,2.2232,2.2352,2.2714,2.2945,2.3096,2.3573,2.4048,2.4449,2.5082,2.5383,2.5263,2.5634,2.5679,2.5197,2.5064,2.5055,2.5044,2.5573,2.595,2.64,2.7192,2.8163,2.9319,3.0117,3.0423,3.0496,3.0583,3.0554,3.0495,3.0481,3.0524,3.0554,3.0554,3.0569,3.0612,3.0612,3.0612,3.0642,3.0672,3.0672,3.0806,3.0955,3.1132,3.1292,3.1409,3.1481,3.1496,3.1496,3.1496,3.1496,3.1496,3.1496,3.1705,3.1858,3.2136,1.4672,1.4819,1.5071,1.5232,1.5244,1.4963,1.4821,1.481,1.4558,1.4424,1.4425,1.4425,1.4484,1.4604,1.5013,1.5092,1.5007,1.5519,1.5691,1.5636,1.5797,1.6045,1.6221,1.6009,1.6131,1.6611,1.6278,1.6076,1.62,1.6756,1.7424,1.819,1.9024,1.9669,2.0119,2.0468,2.0596,2.0566,2.0489,2.0401,2.042,2.0518,2.0426,2.0169,2.1114,2.1312,2.0743,2.1023,2.1108,2.0996,2.1226,2.1427,2.1553,2.1663,2.1647,2.1596,2.1769,2.1866,2.1878,2.1866,2.1987,2.2209,2.2667,2.2972,2.3119,2.372,2.43,2.4615,2.539,2.5716,2.5462,2.5731,2.5812,2.5384,2.5464,2.5598,2.5753,2.6137,2.665,2.7253,2.8172,2.9208,2.9744,3.0332,3.0598,3.0612,3.0612,3.0612,3.0612,3.0612,3.0612,3.0612,3.0612,3.0612,3.0612,3.0612,3.0612,3.0612,3.0627,3.0687,3.0791,3.0955,3.1132,3.1263,3.138,3.1481,3.1511,3.172,3.1675,3.1511,3.1511,3.1944,3.2063,3.2356,3.2758,1.4728,1.4745,1.4918,1.5015,1.4975,1.4643,1.4494,1.4461,1.4215,1.4152,1.4201,1.4342,1.4482,1.4657,1.4978,1.5152,1.523,1.5547,1.5647,1.5586,1.5913,1.6067,1.6067,1.606,1.5987,1.5819,1.5357,1.514,1.5296,1.579,1.6419,1.7153,1.7884,1.8502,1.9126,1.9668,1.9975,2.0129,2.0157,2.0206,2.0245,2.004,1.9779,1.9659,2.0343,2.0572,2.007,2.0166,2.0274,2.0333,2.0592,2.0828,2.1015,2.1336,2.1506,2.1411,2.16,2.1773,2.1851,2.1866,2.1956,2.2194,2.2694,2.3055,2.3272,2.4025,2.4501,2.4864,2.5356,2.5687,2.5486,2.5637,2.5749,2.5565,2.5672,2.5902,2.6226,2.6602,2.7242,2.8072,2.891,2.9639,3.005,3.0372,3.0567,3.0612,3.0612,3.0612,3.0612,3.0612,3.0612,3.0612,3.0612,3.0612,3.0612,3.0612,3.0612,3.0612,3.0612,3.0672,3.0762,3.0955,3.1117,3.1219,3.1351,3.1452,3.163,3.1884,3.1854,3.1675,3.2078,3.2587,3.2766,3.2959,3.3379,1.4972,1.4932,1.4979,1.4961,1.4905,1.4581,1.4481,1.4447,1.4257,1.4256,1.437,1.4461,1.4741,1.5006,1.5146,1.5244,1.5456,1.5812,1.5892,1.5833,1.6199,1.6338,1.6265,1.6235,1.606,1.576,1.4968,1.4892,1.5438,1.5362,1.5638,1.6324,1.6782,1.7221,1.7536,1.8286,1.8822,1.9236,1.9613,1.9953,2.0225,1.9962,1.9825,1.9778,1.9545,1.9287,1.9126,1.936,1.9699,2.0074,1.9971,2.0074,2.0598,2.1015,2.1348,2.1553,2.1663,2.1866,2.2096,2.2123,2.212,2.2354,2.2742,2.33,2.3777,2.4261,2.4753,2.5131,2.5311,2.5312,2.5312,2.5352,2.5524,2.5936,2.5697,2.592,2.6529,2.6883,2.745,2.8684,2.9352,2.9711,3.0036,3.0371,3.0582,3.0612,3.0612,3.0612,3.0612,3.0612,3.0612,3.0612,3.0612,3.0612,3.0612,3.0612,3.0612,3.0612,3.0612,3.0642,3.0717,3.0866,3.1043,3.1205,3.1633,3.178,3.2213,3.2437,3.2482,3.2437,3.2901,3.3201,3.3412,3.3623,3.3985,1.4564,1.439,1.4384,1.4482,1.4609,1.4342,1.4329,1.4509,1.4596,1.4547,1.453,1.4986,1.5191,1.5183,1.546,1.5696,1.579,1.6279,1.6221,1.576,1.6162,1.6184,1.5826,1.5745,1.5534,1.5214,1.4935,1.4788,1.4786,1.4573,1.4777,1.5425,1.5718,1.6133,1.6732,1.7615,1.8206,1.8372,1.8963,1.9314,1.94,1.9458,1.9479,1.9415,1.8832,1.8462,1.8438,1.8713,1.894,1.9088,1.9315,1.9699,2.0259,2.0855,2.111,2.1003,2.1447,2.1714,2.1835,2.189,2.2154,2.2683,2.324,2.3753,2.4254,2.4729,2.5078,2.5282,2.5294,2.5294,2.5294,2.5294,2.5403,2.5541,2.6068,2.6446,2.6912,2.7551,2.8196,2.8677,2.9242,2.9602,2.982,3.0204,3.0567,3.0612,3.0612,3.0612,3.0612,3.0612,3.0612,3.0612,3.0612,3.0612,3.0612,3.0641,3.067,3.0685,3.0685,3.0788,3.0848,3.0997,3.1131,3.1531,3.1931,3.2303,3.2721,3.3065,3.3185,3.3155,3.3396,3.3697,3.3983,3.4379,3.4836,1.4349,1.4116,1.4109,1.421,1.4335,1.4254,1.437,1.4642,1.4776,1.4864,1.5076,1.5404,1.5612,1.5655,1.5929,1.6074,1.614,1.6653,1.6492,1.5957,1.6433,1.6426,1.5936,1.5673,1.5424,1.5104,1.4966,1.4825,1.464,1.4352,1.4417,1.4839,1.4836,1.5039,1.5589,1.6304,1.6742,1.6997,1.7791,1.8369,1.8609,1.8905,1.9146,1.9201,1.8815,1.843,1.8174,1.8318,1.8357,1.8368,1.8884,1.9491,1.9998,2.0598,2.0983,2.1131,2.14,2.1729,2.1851,2.1925,2.2198,2.2927,2.3493,2.3994,2.4465,2.4994,2.5282,2.5294,2.5294,2.5294,2.5294,2.5294,2.5294,2.53,2.5859,2.6534,2.6964,2.7755,2.8333,2.862,2.9067,2.9399,2.968,3.002,3.0462,3.0552,3.0612,3.0612,3.0612,3.0612,3.0612,3.0612,3.0612,3.0612,3.0612,3.0656,3.0728,3.0772,3.0801,3.0992,3.1141,3.1394,3.1619,3.2391,3.293,3.305,3.344,3.4037,3.4322,3.4205,3.3952,3.4453,3.4894,3.5431,3.5815,1.4389,1.4163,1.4115,1.4163,1.4219,1.4334,1.4549,1.4833,1.488,1.5247,1.574,1.5806,1.5951,1.6309,1.6382,1.6441,1.6499,1.677,1.6799,1.6645,1.6945,1.6989,1.6543,1.6031,1.5665,1.5366,1.5103,1.4979,1.4915,1.4655,1.4514,1.4582,1.4299,1.4116,1.4494,1.4626,1.5033,1.547,1.6396,1.7165,1.7777,1.834,1.8831,1.919,1.9146,1.8843,1.8311,1.8119,1.7949,1.7873,1.8683,1.9392,1.9813,2.0302,2.0912,2.1526,2.1698,2.1909,2.2108,2.2123,2.2458,2.3079,2.3553,2.403,2.459,2.5042,2.5294,2.5294,2.5294,2.5294,2.5294,2.5294,2.5294,2.53,2.5546,2.6052,2.6905,2.7516,2.8004,2.8524,2.8908,2.9257,2.9587,2.9942,3.0295,3.0507,3.0612,3.0612,3.0612,3.0612,3.0612,3.0641,3.0699,3.0858,3.0946,3.1294,3.1381,3.1455,3.1441,3.1607,3.1743,3.1999,3.2419,3.3182,3.3693,3.3858,3.4158,3.4741,3.4831,3.4443,3.4645,3.5273,3.5705,3.6076,3.646,1.4847,1.4732,1.4496,1.4517,1.4655,1.4508,1.4551,1.4831,1.5431,1.5647,1.5842,1.6321,1.6462,1.6455,1.6653,1.6771,1.6844,1.704,1.7179,1.7113,1.7193,1.6834,1.6287,1.5994,1.5731,1.5432,1.53,1.5265,1.5256,1.4949,1.4803,1.4774,1.4304,1.4157,1.4386,1.431,1.4404,1.4705,1.5311,1.6044,1.6808,1.7529,1.8193,1.8804,1.8861,1.8741,1.8476,1.7972,1.769,1.7783,1.8469,1.9204,1.9753,2.0274,2.0885,2.16,2.1909,2.2104,2.2154,2.2197,2.2606,2.3452,2.371,2.4162,2.5023,2.521,2.5294,2.5294,2.5294,2.5294,2.5294,2.5294,2.5294,2.5365,2.5611,2.6289,2.725,2.77,2.7987,2.8527,2.9099,2.943,2.9665,3.0051,3.0447,3.0567,3.0612,3.0612,3.0612,3.0612,3.0612,3.0786,3.0917,3.1148,3.1424,3.183,3.2077,3.2225,3.2317,3.2488,3.2628,3.2828,3.3372,3.4036,3.4232,3.4413,3.4832,3.5325,3.5026,3.4839,3.5567,3.6245,3.6059,3.6229,3.6751,1.5093,1.4995,1.488,1.4848,1.4927,1.5017,1.5147,1.5318,1.5705,1.6131,1.6328,1.652,1.6741,1.6791,1.6997,1.7078,1.7084,1.7214,1.7295,1.7302,1.7302,1.6856,1.6279,1.6125,1.5877,1.5446,1.5417,1.541,1.5373,1.5192,1.5112,1.5024,1.4601,1.4416,1.4323,1.4076,1.383,1.384,1.4292,1.5019,1.5868,1.6684,1.7579,1.8233,1.8439,1.8393,1.8128,1.756,1.7286,1.7472,1.7988,1.8737,1.9579,1.9906,2.0618,2.171,2.1831,2.1862,2.2139,2.2197,2.269,2.3525,2.3806,2.4319,2.5035,2.5294,2.5294,2.5294,2.5294,2.5294,2.5294,2.5294,2.5294,2.5347,2.5629,2.6294,2.733,2.7394,2.7807,2.843,2.9035,2.9462,2.9587,3.0082,3.0401,3.0567,3.0612,3.0612,3.0612,3.0612,3.0771,3.1076,3.1308,3.1584,3.1887,3.2279,3.2735,3.2896,3.3274,3.3418,3.3521,3.3709,3.4238,3.471,3.4831,3.5014,3.5377,3.5716,3.582,3.5967,3.6677,3.6935,3.6799,3.6719,3.7198,1.5294,1.5055,1.5259,1.52,1.5124,1.5672,1.5833,1.5942,1.5908,1.6308,1.6783,1.658,1.6682,1.72,1.7106,1.7229,1.7222,1.7258,1.7302,1.7309,1.7258,1.6929,1.6411,1.6418,1.6059,1.5527,1.5432,1.5425,1.5417,1.5367,1.5395,1.5278,1.5009,1.473,1.4468,1.4026,1.3391,1.3161,1.3524,1.4297,1.5151,1.594,1.6871,1.7944,1.8276,1.8082,1.7741,1.7308,1.7113,1.6978,1.7425,1.8263,1.9222,1.9315,2.0161,2.1459,2.1537,2.1636,2.1956,2.2116,2.2658,2.3565,2.3806,2.4234,2.5018,2.5294,2.5294,2.5294,2.5294,2.5294,2.5294,2.5294,2.5294,2.5312,2.5347,2.5844,2.6667,2.6954,2.7351,2.8414,2.8878,2.9289,2.9602,2.9942,3.0279,3.0582,3.0641,3.0713,3.08,3.0931,3.1221,3.1612,3.1829,3.2032,3.238,3.2743,3.3216,3.3587,3.4134,3.4386,3.4421,3.4656,3.5095,3.5385,3.5235,3.5334,3.5676,3.5974,3.629,3.6784,3.728,3.7546,3.769,3.7648,3.7903,1.5548,1.5334,1.5609,1.5635,1.5544,1.5632,1.5792,1.5944,1.5914,1.6045,1.6228,1.6331,1.6477,1.6638,1.6902,1.6983,1.707,1.7193,1.7309,1.7309,1.7309,1.6937,1.6572,1.6624,1.6257,1.5658,1.5673,1.5644,1.5455,1.541,1.541,1.5366,1.5126,1.4988,1.4985,1.4387,1.3965,1.3624,1.3433,1.3807,1.465,1.5282,1.6281,1.7706,1.8265,1.8301,1.8036,1.7885,1.7704,1.7496,1.7539,1.7988,1.875,1.9447,2.008,2.0672,2.1537,2.1741,2.1541,2.1937,2.2674,2.3625,2.3842,2.4222,2.515,2.5294,2.5294,2.5294,2.5294,2.5294,2.5294,2.5294,2.5294,2.5294,2.5329,2.5739,2.668,2.6992,2.7449,2.8263,2.9053,2.9602,2.9942,3.0249,3.0477,3.0597,3.0713,3.0829,3.1061,3.1293,3.1714,3.2177,3.2498,3.2745,3.3093,3.34,3.3713,3.416,3.4699,3.5152,3.5203,3.527,3.5609,3.5619,3.5474,3.5717,3.6117,3.6383,3.6738,3.7295,3.7791,3.7942,3.8114,3.827,3.8177,1.5886,1.5822,1.6202,1.6251,1.6092,1.6174,1.6177,1.6111,1.5965,1.598,1.6096,1.6199,1.6331,1.6639,1.6829,1.6976,1.7107,1.7207,1.7309,1.7309,1.7295,1.7062,1.6748,1.6682,1.6389,1.5578,1.5563,1.5541,1.5446,1.5417,1.541,1.541,1.5199,1.5132,1.5148,1.4739,1.4374,1.4002,1.3619,1.3771,1.4494,1.5009,1.5972,1.7344,1.7974,1.8,1.781,1.78,1.7696,1.7579,1.7581,1.792,1.8533,1.9183,1.9644,2.0242,2.1008,2.151,2.1341,2.18,2.267,2.371,2.3806,2.4379,2.4999,2.5294,2.5294,2.5294,2.5294,2.5294,2.5294,2.5294,2.5294,2.5294,2.5306,2.5756,2.6578,2.7065,2.763,2.8527,2.9369,2.9773,3.0157,3.0504,3.0828,3.0989,3.1148,3.1308,3.1787,3.2032,3.2367,3.2788,3.3167,3.3487,3.3835,3.407,3.4255,3.4659,3.5097,3.551,3.574,3.5835,3.5943,3.5941,3.5942,3.6305,3.6677,3.6935,3.7265,3.7791,3.8171,3.8311,3.8354,3.8335,3.8182,1.6244,1.6234,1.677,1.6793,1.6574,1.6752,1.6719,1.644,1.6067,1.603,1.6191,1.5979,1.6118,1.6639,1.6771,1.699,1.7222,1.7295,1.7309,1.7309,1.7309,1.7121,1.6909,1.6793,1.644,1.5584,1.5549,1.5519,1.5491,1.5411,1.5417,1.5382,1.5402,1.5285,1.5046,1.4966,1.4727,1.4266,1.4006,1.4078,1.4667,1.518,1.6242,1.7461,1.798,1.7892,1.7804,1.7749,1.7686,1.7583,1.7722,1.8152,1.8573,1.8861,1.9046,1.9872,2.0643,2.1012,2.1122,2.1784,2.2803,2.3734,2.3898,2.4343,2.5047,2.5294,2.5294,2.5294,2.5294,2.5294,2.5294,2.5294,2.5294,2.5318,2.5342,2.5777,2.6471,2.7209,2.8182,2.9093,2.9699,3.0046,3.0405,3.078,3.1087,3.1395,3.1554,3.1858,3.2351,3.2729,3.3035,3.3354,3.3719,3.385,3.4138,3.4357,3.4585,3.492,3.5365,3.5832,3.6164,3.6164,3.6227,3.6461,3.66,3.6875,3.7235,3.7602,3.7978,3.8372,3.8444,3.8447,3.8425,3.8376,3.8026,1.6364,1.6155,1.6748,1.6824,1.6551,1.6766,1.6851,1.6727,1.617,1.5943,1.5943,1.5658,1.5753,1.6118,1.6389,1.6769,1.7193,1.7309,1.7309,1.7309,1.7295,1.7165,1.6983,1.6895,1.6514,1.5987,1.5804,1.5804,1.5687,1.5563,1.5424,1.541,1.541,1.5344,1.5315,1.5287,1.503,1.4627,1.4449,1.4567,1.4938,1.5697,1.6685,1.8012,1.8522,1.8472,1.8131,1.8218,1.8275,1.801,1.8253,1.8486,1.8723,1.892,1.8975,1.9247,2.038,2.097,2.0747,2.1917,2.2998,2.3722,2.4126,2.4573,2.5102,2.5294,2.5294,2.5294,2.5294,2.5294,2.5294,2.5294,2.5306,2.539,2.5708,2.6109,2.6683,2.772,2.898,3.0,3.0236,3.0302,3.063,3.0998,3.1348,3.1757,3.2119,3.2571,3.3137,3.3398,3.3587,3.3906,3.4254,3.4298,3.4353,3.4522,3.4731,3.5036,3.551,3.6165,3.6399,3.6383,3.6508,3.7117,3.7161,3.7101,3.756,3.8147,3.8241,3.8288,3.8397,3.8463,3.802,3.7579,3.7266,1.6181,1.6113,1.6505,1.6705,1.6692,1.6645,1.6749,1.6822,1.6382,1.6148,1.606,1.5855,1.5957,1.6316,1.6353,1.6748,1.7194,1.7309,1.7309,1.7309,1.7295,1.7274,1.7062,1.6998,1.6851,1.6565,1.6345,1.5965,1.5665,1.549,1.5446,1.541,1.541,1.541,1.541,1.5395,1.526,1.499,1.4845,1.4814,1.508,1.6005,1.7184,1.8064,1.8877,1.8908,1.8566,1.8732,1.8742,1.8481,1.8722,1.9025,1.9182,1.915,1.8994,1.9004,2.022,2.1052,2.0798,2.1979,2.3112,2.4052,2.441,2.4741,2.5126,2.5294,2.5306,2.5306,2.5294,2.5294,2.5294,2.5348,2.5414,2.5697,2.6076,2.6649,2.7488,2.8647,2.9757,3.0742,3.0728,3.0702,3.0752,3.1147,3.1582,3.2076,3.2598,3.3209,3.3835,3.3952,3.4008,3.4153,3.4399,3.4431,3.4448,3.4616,3.4916,3.5249,3.5817,3.6477,3.6921,3.7026,3.7605,3.8327,3.8112,3.7457,3.7961,3.8575,3.8407,3.8117,3.795,3.7695,3.7183,3.675,3.6538,1.6072,1.6094,1.6308,1.6565,1.6741,1.6587,1.6594,1.6719,1.6521,1.6323,1.6265,1.6052,1.6206,1.6624,1.6726,1.6865,1.7302,1.7309,1.7309,1.7309,1.7309,1.7302,1.7229,1.7135,1.7019,1.693,1.6726,1.6221,1.5943,1.5724,1.5629,1.5636,1.5585,1.5505,1.5527,1.5461,1.5439,1.5309,1.5163,1.505,1.5511,1.6442,1.7427,1.8145,1.9029,1.9336,1.8859,1.9162,1.9142,1.8996,1.917,1.9569,1.9805,1.9678,1.9346,1.9221,2.0392,2.0891,2.1387,2.2145,2.3338,2.4308,2.4568,2.4898,2.5126,2.5306,2.536,2.5432,2.5492,2.566,2.5829,2.5756,2.5973,2.6324,2.6712,2.7188,2.8142,2.9201,3.026,3.0899,3.1011,3.1359,3.167,3.1874,3.244,3.273,3.3238,3.3585,3.4138,3.4225,3.4266,3.431,3.4414,3.4431,3.4515,3.4652,3.505,3.5525,3.6259,3.7055,3.7501,3.7836,3.8451,3.8873,3.8339,3.7862,3.8453,3.8523,3.7871,3.7417,3.7253,3.6911,3.6372,3.6201,3.6093,1.6367,1.6338,1.6382,1.6433,1.6492,1.6712,1.666,1.6492,1.6455,1.6206,1.6089,1.595,1.614,1.6528,1.7018,1.72,1.7288,1.7309,1.7309,1.7309,1.7309,1.7309,1.7309,1.728,1.7113,1.7092,1.6902,1.6829,1.655,1.6316,1.6235,1.6148,1.5943,1.5819,1.5746,1.5585,1.5417,1.5382,1.5359,1.5645,1.6366,1.7266,1.7972,1.8644,1.9573,1.998,1.9375,1.959,1.9619,1.9336,1.9619,1.9853,1.9961,2.0293,2.0146,2.0,2.024,2.0723,2.1509,2.2503,2.3607,2.4433,2.488,2.5162,2.5282,2.5408,2.5564,2.5973,2.5997,2.619,2.659,2.6863,2.7084,2.7323,2.7606,2.7755,2.8366,2.9964,3.1003,3.1478,3.1725,3.2457,3.2991,3.3153,3.3327,3.3574,3.3835,3.4153,3.4339,3.4382,3.4397,3.4397,3.4465,3.4498,3.4616,3.4767,3.5216,3.5751,3.6585,3.7487,3.7908,3.8266,3.8634,3.8816,3.8334,3.8049,3.8268,3.7967,3.7152,3.6771,3.6675,3.6185,3.5569,3.5546,3.5734,1.5833,1.5833,1.584,1.6052,1.6389,1.6565,1.6741,1.688,1.6741,1.6594,1.6448,1.6265,1.6374,1.6726,1.7143,1.7295,1.7309,1.7309,1.7309,1.7309,1.7309,1.7309,1.7309,1.7302,1.7216,1.7157,1.7121,1.7121,1.6974,1.6668,1.6389,1.6396,1.6257,1.606,1.5987,1.5768,1.5585,1.5475,1.5423,1.5582,1.6209,1.7229,1.81,1.8311,1.9818,2.009,1.9931,2.0058,2.0049,1.9814,2.0049,2.0293,2.0332,2.0488,2.0459,2.0399,2.0862,2.141,2.1987,2.275,2.3742,2.4666,2.515,2.527,2.5342,2.5595,2.5817,2.6045,2.6394,2.6751,2.7018,2.7124,2.7424,2.7775,2.8328,2.8547,2.9001,3.0521,3.1715,3.2083,3.2495,3.3212,3.3717,3.3618,3.3589,3.3676,3.392,3.4237,3.4368,3.4382,3.4397,3.4397,3.4498,3.4614,3.4733,3.49,3.5428,3.599,3.6738,3.7545,3.8153,3.8576,3.8928,3.8926,3.8534,3.8318,3.8215,3.7685,3.7085,3.6597,3.6105,3.5826,3.5576,3.5508,3.5656,1.541,1.541,1.541,1.5731,1.6279,1.6375,1.6594,1.6886,1.6902,1.68,1.666,1.6536,1.6697,1.6983,1.7208,1.7309,1.7309,1.7309,1.7309,1.7309,1.7309,1.7309,1.7309,1.7302,1.7302,1.7309,1.7266,1.7266,1.7134,1.6923,1.6704,1.6601,1.658,1.6426,1.6206,1.5957,1.5717,1.5432,1.541,1.5569,1.6064,1.7249,1.7997,1.8729,1.961,2.042,2.0214,2.0361,2.0341,2.0234,2.0351,2.0537,2.0547,2.0556,2.0595,2.0691,2.1185,2.1892,2.2418,2.3116,2.3977,2.4826,2.545,2.5588,2.5612,2.5973,2.6424,2.6598,2.6887,2.7171,2.7429,2.7673,2.807,2.8475,2.8846,2.9152,2.9648,3.0993,3.1942,3.2248,3.281,3.3818,3.4124,3.392,3.385,3.3835,3.4037,3.4339,3.4397,3.4397,3.4397,3.4397,3.4563,3.4681,3.4817,3.5083,3.5622,3.6243,3.6981,3.7751,3.8451,3.8857,3.9148,3.8994,3.8738,3.8738,3.8692,3.788,3.7085,3.6817,3.6509,3.6059,3.5795,3.5711,3.5622,1.541,1.541,1.5417,1.5629,1.598,1.6279,1.6272,1.6294,1.6704,1.658,1.6272,1.6565,1.6975,1.7223,1.7266,1.7309,1.7309,1.7309,1.7309,1.7309,1.7309,1.7309,1.7309,1.7309,1.7309,1.7309,1.7309,1.7309,1.7295,1.7207,1.7156,1.7207,1.6946,1.6873,1.6624,1.6228,1.5855,1.5592,1.5512,1.5905,1.6528,1.7497,1.8298,1.9173,1.9991,2.0586,2.0546,2.0576,2.0576,2.0459,2.0556,2.0605,2.0596,2.0596,2.0615,2.0963,2.1557,2.2296,2.2933,2.3545,2.4391,2.5129,2.5673,2.5961,2.6069,2.6544,2.6994,2.7399,2.7563,2.8019,2.8485,2.8969,2.8945,2.9119,2.9317,2.9604,3.0177,3.1172,3.2046,3.238,3.3101,3.4062,3.4397,3.4167,3.4109,3.4095,3.4109,3.4397,3.4397,3.4397,3.4397,3.4431,3.4614,3.4765,3.49,3.5249,3.5767,3.6446,3.7175,3.8067,3.8925,3.9218,3.9315,3.9249,3.9053,3.9133,3.9083,3.8357,3.7728,3.7322,3.6929,3.6625,3.6311,3.6184,3.5982,1.5527,1.5702,1.5709,1.5906,1.6221,1.658,1.6741,1.6754,1.6858,1.6763,1.6521,1.6777,1.7033,1.7236,1.7309,1.7309,1.7309,1.7309,1.7309,1.7309,1.7309,1.7309,1.7309,1.7309,1.7309,1.7309,1.7309,1.7309,1.7309,1.7309,1.7309,1.7244,1.7172,1.7041,1.6777,1.6477,1.6177,1.5979,1.5882,1.6153,1.6956,1.7625,1.8407,1.9282,2.0157,2.0547,2.0595,2.0605,2.0596,2.0596,2.0596,2.0596,2.0625,2.0625,2.0896,2.1318,2.205,2.2875,2.3497,2.402,2.4602,2.5582,2.6009,2.6268,2.6624,2.7115,2.7473,2.7833,2.8169,2.8616,2.8922,2.9184,2.9323,2.9541,2.9747,2.9979,3.0627,3.1521,3.2286,3.2666,3.3398,3.4281,3.4397,3.4368,3.4353,3.4368,3.4382,3.4397,3.4397,3.4414,3.4414,3.4498,3.4666,3.48,3.4935,3.5379,3.5894,3.6662,3.7413,3.8224,3.9037,3.9232,3.9315,3.9315,3.9315,3.9265,3.91,3.8772,3.84,3.7995,3.7649,3.7329,3.7033,3.6741,3.6506,1.56,1.5892,1.6016,1.6228,1.6573,1.6807,1.7005,1.7143,1.7085,1.7019,1.7012,1.7027,1.7106,1.7266,1.7309,1.7309,1.7309,1.7309,1.7309,1.7309,1.7309,1.7309,1.7309,1.7309,1.7309,1.7309,1.7309,1.7309,1.7309,1.7309,1.7309,1.7309,1.7295,1.7165,1.7027,1.6712,1.6521,1.6345,1.6279,1.6728,1.7631,1.8179,1.8963,1.9799,2.0574,2.0664,2.0644,2.0596,2.0596,2.0596,2.0596,2.0596,2.0683,2.0867,2.1261,2.1918,2.2734,2.36,2.4176,2.4694,2.5207,2.6268,2.6716,2.697,2.7308,2.7787,2.8261,2.8363,2.8707,2.8981,2.9157,2.9314,2.945,2.9618,2.9721,2.9991,3.0746,3.1581,3.2362,3.3017,3.3773,3.4397,3.4397,3.4397,3.4397,3.4397,3.4397,3.4397,3.4397,3.4414,3.4465,3.4566,3.4733,3.4852,3.5003,3.5591,3.6227,3.6935,3.7662,3.828,3.8898,3.9134,3.9315,3.9315,3.9315,3.9315,3.9199,3.9,3.8874,3.8711,3.8358,3.7982,3.7913,3.7645,3.729,1.5607,1.5943,1.625,1.6558,1.6873,1.6895,1.6917,1.7027,1.7179,1.7251,1.7244,1.7251,1.7258,1.7309,1.7309,1.7309,1.7309,1.7309,1.7309,1.7309,1.7309,1.7309,1.7309,1.7309,1.7309,1.7309,1.7309,1.7309,1.7309,1.7309,1.7309,1.7309,1.7302,1.728,1.7251,1.7027,1.6741,1.6499,1.6536,1.75,1.8721,1.9147,1.984,2.0589,2.0984,2.0947,2.0664,2.0596,2.0596,2.0596,2.0596,2.0625,2.0703,2.1195,2.1627,2.2121,2.3294,2.4212,2.492,2.5637,2.6351,2.6976,2.7329,2.7763,2.8203,2.8628,2.8898,2.8883,2.9062,2.9197,2.9302,2.9419,2.958,2.967,2.9772,3.0254,3.1015,3.1618,3.238,3.3329,3.3928,3.4397,3.4397,3.4397,3.4397,3.4397,3.4397,3.4397,3.4397,3.4465,3.4532,3.465,3.4817,3.4966,3.5215,3.588,3.6554,3.725,3.7865,3.8451,3.8898,3.9205,3.9315,3.9315,3.9315,3.9315,3.9315,3.9282,3.9179,3.9059,3.8901,3.8661,3.8629,3.8481,3.8075,1.5717,1.6243,1.6367,1.6697,1.7135,1.7165,1.7172,1.7186,1.7258,1.7309,1.7309,1.7309,1.7309,1.7309,1.7309,1.7309,1.7309,1.7309,1.7309,1.7309,1.7309,1.7309,1.7309,1.7309,1.7309,1.7309,1.7309,1.7309,1.7309,1.7309,1.7309,1.7309,1.7309,1.7309,1.7288,1.724,1.7307,1.7834,1.8009,1.8523,2.0129,2.0237,2.046,2.1238,2.1279,2.1035,2.0664,2.0635,2.0625,2.0635,2.0644,2.0781,2.0968,2.1437,2.1962,2.29,2.4158,2.482,2.6071,2.7093,2.7217,2.7579,2.7858,2.8266,2.8597,2.8905,2.9126,2.9275,2.9314,2.9431,2.9611,2.965,2.974,2.974,2.9972,3.0646,3.1336,3.1796,3.2466,3.3569,3.438,3.4397,3.4397,3.4397,3.4397,3.4397,3.4397,3.4397,3.4397,3.4547,3.4647,3.4765,3.4898,3.508,3.5411,3.6133,3.6784,3.7428,3.7996,3.8521,3.8898,3.9245,3.9315,3.9315,3.9315,3.9315,3.9299,3.9325,3.9415,3.9367,3.9259,3.9312,3.9387,3.9153,3.8746,1.5965,1.6565,1.6558,1.6835,1.7266,1.7309,1.7309,1.7309,1.7309,1.7309,1.7309,1.7309,1.7309,1.7309,1.7309,1.7309,1.7309,1.7309,1.7309,1.7309,1.7309,1.7309,1.7309,1.7309,1.7309,1.7309,1.7309,1.7309,1.7309,1.7309,1.7309,1.7309,1.7309,1.7309,1.7295,1.7374,1.7499,1.798,1.8185,1.9077,2.0263,2.0858,2.1182,2.1529,2.1532,2.1249,2.0898,2.0723,2.0703,2.0752,2.0869,2.1184,2.1531,2.2177,2.2867,2.4193,2.5396,2.6085,2.7287,2.8084,2.8162,2.8259,2.8332,2.8626,2.9037,2.9314,2.9424,2.9502,2.9509,2.9599,2.9753,2.9779,2.9779,2.9779,2.9998,3.0665,3.1576,3.2051,3.2662,3.3773,3.4397,3.4397,3.4397,3.4397,3.4397,3.4397,3.4397,3.4397,3.4431,3.4597,3.4748,3.4865,3.5065,3.5328,3.5767,3.6446,3.7071,3.7618,3.8181,3.8758,3.8969,3.9315,3.9315,3.9315,3.9315,3.9315,3.9312,3.9352,3.9471,3.9599,3.9671,3.9808,4.0058,3.9762,3.9305,1.6265,1.6821,1.6881,1.7011,1.728,1.7309,1.7309,1.7309,1.7309,1.7309,1.7309,1.7309,1.7309,1.7309,1.7309,1.7309,1.7309,1.7309,1.7309,1.7309,1.7309,1.7309,1.7309,1.7309,1.7309,1.7309,1.7309,1.7309,1.7309,1.7309,1.7309,1.7309,1.7309,1.7419,1.7489,1.7585,1.7779,1.8272,1.8736,1.9715,2.0878,2.1482,2.1894,2.2134,2.2021,2.1659,2.1309,2.1026,2.1045,2.1113,2.124,2.207,2.2927,2.3914,2.4764,2.5827,2.7054,2.7722,2.8096,2.8665,2.8905,2.8893,2.8974,2.9346,2.9534,2.9605,2.9663,2.9702,2.9689,2.974,2.9779,2.9779,2.9779,2.9779,2.9779,3.0627,3.1723,3.2412,3.2981,3.369,3.423,3.4397,3.4397,3.4397,3.4397,3.4414,3.4431,3.4498,3.4532,3.4633,3.48,3.4966,3.523,3.5605,3.6133,3.6723,3.7324,3.7879,3.8593,3.9134,3.9285,3.9315,3.9315,3.9315,3.9315,3.9299,3.9299,3.9379,3.9511,3.9655,3.9781,3.9922,4.0062,4.01,3.9825,1.5935,1.6514,1.6528,1.6821,1.7266,1.7309,1.7309,1.7309,1.7309,1.7309,1.7309,1.7309,1.7309,1.7309,1.7309,1.7309,1.7309,1.7309,1.7309,1.7309,1.7309,1.7309,1.7309,1.7309,1.7309,1.7309,1.7309,1.7309,1.7309,1.7309,1.7309,1.7309,1.7326,1.7645,1.7942,1.8192,1.8574,1.9014,1.9328,2.034,2.1495,2.2255,2.2534,2.2444,2.2334,2.1992,2.1729,2.1544,2.1573,2.1691,2.172,2.24,2.3792,2.3937,2.4394,2.6652,2.7897,2.878,2.8824,2.8986,2.917,2.9294,2.9314,2.9353,2.9521,2.967,2.9779,2.9779,2.9779,2.9779,2.9779,2.9779,2.9779,2.9779,2.994,3.0703,3.1723,3.2416,3.3034,3.3877,3.4397,3.4397,3.4397,3.4397,3.4397,3.4431,3.4481,3.4563,3.4664,3.4767,3.4883,3.5049,3.5459,3.5863,3.6352,3.6935,3.756,3.8165,3.8843,3.9315,3.9315,3.9315,3.9315,3.9315,3.9315,3.9315,3.9315,3.9408,3.9498,3.9629,3.9742,3.9897,4.0011,4.0062,4.01,1.5913,1.636,1.6389,1.669,1.7106,1.7251,1.7309,1.7309,1.7309,1.7309,1.7309,1.7309,1.7309,1.7309,1.7309,1.7309,1.7309,1.7309,1.7309,1.7309,1.7309,1.7309,1.7309,1.7309,1.7309,1.7309,1.7309,1.7309,1.7333,1.7412,1.7428,1.7158,1.73,1.7558,1.7758,1.8004,1.8825,1.9467,2.0153,2.0991,2.178,2.2557,2.2518,2.2519,2.2414,2.225,2.2275,2.2156,2.2138,2.2464,2.2608,2.3619,2.5078,2.5493,2.6032,2.8061,2.8614,2.9123,2.9186,2.9321,2.9424,2.9521,2.956,2.9592,2.9611,2.9721,2.976,2.9779,2.9779,2.9779,2.9779,2.9779,2.9779,2.9779,3.0279,3.0803,3.1558,3.229,3.3157,3.4079,3.4397,3.4397,3.4397,3.4397,3.4414,3.4431,3.4532,3.4683,3.48,3.4933,3.5016,3.5131,3.5638,3.6164,3.6677,3.7235,3.7923,3.8507,3.8942,3.9285,3.9315,3.9315,3.9315,3.9315,3.9315,3.9315,3.9315,3.9365,3.9471,3.9603,3.9716,3.9858,3.9986,4.0049,4.0087,1.6045,1.6345,1.6382,1.6609,1.6917,1.7157,1.7266,1.7309,1.7333,1.7333,1.7309,1.7309,1.7309,1.7309,1.7309,1.7309,1.7309,1.7309,1.7309,1.7309,1.7309,1.7309,1.7309,1.7309,1.7356,1.7333,1.7309,1.7333,1.7426,1.7552,1.7541,1.7053,1.7597,1.7895,1.7875,1.8416,1.9302,2.0162,2.0597,2.1078,2.1262,2.1693,2.2103,2.2389,2.2333,2.2228,2.2621,2.2695,2.2608,2.3379,2.4117,2.5084,2.6531,2.7853,2.8686,2.9005,2.9289,2.938,2.9482,2.9573,2.9682,2.974,2.9779,2.9753,2.974,2.974,2.9779,2.9779,2.9779,2.9779,2.9779,2.9779,2.9779,2.9856,3.0177,3.0915,3.1778,3.2613,3.3604,3.4298,3.4397,3.4397,3.4397,3.4397,3.4448,3.4465,3.4599,3.4783,3.4964,3.5098,3.518,3.5279,3.5831,3.6399,3.7071,3.7662,3.8381,3.8912,3.9188,3.9285,3.9315,3.9315,3.9315,3.9315,3.9315,3.9315,3.9329,3.9365,3.9432,3.9577,3.9703,3.9833,3.9965,4.0121,4.0075,1.5709,1.6045,1.6294,1.6602,1.6881,1.6983,1.7113,1.7326,1.7527,1.7504,1.7326,1.7309,1.7309,1.7333,1.738,1.738,1.7349,1.7426,1.7333,1.7356,1.738,1.7426,1.7333,1.7419,1.7457,1.7481,1.7457,1.7496,1.7776,1.7909,1.8025,1.7934,1.84,1.8661,1.8919,1.9585,2.0262,2.0833,2.1103,2.1479,2.1844,2.2074,2.2428,2.2448,2.2379,2.2559,2.2893,2.3116,2.3668,2.4514,2.4767,2.5937,2.7611,2.8929,2.9527,2.9624,2.9631,2.965,2.967,2.9721,2.976,2.9779,2.9779,2.9779,2.9779,2.9779,2.9779,2.9779,2.9779,2.9779,2.9779,2.9779,2.9798,2.9914,3.0158,3.1121,3.2069,3.3066,3.4079,3.4264,3.438,3.4397,3.4397,3.4448,3.4481,3.4599,3.4735,3.4916,3.5113,3.5261,3.5326,3.5491,3.6022,3.6631,3.7355,3.801,3.8689,3.9023,3.9245,3.9315,3.9315,3.9315,3.9315,3.9315,3.9315,3.9315,3.9315,3.9329,3.9405,3.955,3.9848,4.0046,4.0264,4.0417,4.024,1.5512,1.5738,1.6038,1.6272,1.6492,1.6771,1.7028,1.7267,1.7561,1.7691,1.766,1.7637,1.759,1.7543,1.759,1.7637,1.7606,1.766,1.7707,1.7683,1.7613,1.7683,1.766,1.7629,1.7761,1.7807,1.7784,1.7893,1.8288,1.8765,1.8985,1.9144,1.9602,1.993,2.0245,2.0542,2.108,2.1174,2.149,2.1879,2.2219,2.2109,2.207,2.21,2.2271,2.2513,2.3124,2.3484,2.4356,2.5389,2.6056,2.7305,2.8609,2.9424,2.9721,2.976,2.976,2.9779,2.9779,2.9779,2.9779,2.9779,2.9779,2.9779,2.9779,2.9779,2.9779,2.9779,2.9779,2.9779,2.9779,2.9779,2.9779,2.9856,3.0822,3.1924,3.2854,3.3791,3.4281,3.4315,3.4414,3.4465,3.4498,3.458,3.4647,3.4767,3.4902,3.5077,3.5273,3.5572,3.5593,3.5916,3.6566,3.7105,3.7778,3.8365,3.8925,3.9175,3.9315,3.9315,3.9315,3.9315,3.9315,3.9398,3.9415,3.9315,3.9315,3.9514,3.9432,3.9498,3.991,4.0339,4.0546,4.0886,4.1068,1.5417,1.5454,1.5717,1.587,1.5994,1.6529,1.6935,1.7258,1.7573,1.7863,1.8063,1.8156,1.8024,1.7931,1.797,1.804,1.8063,1.797,1.804,1.804,1.804,1.797,1.797,1.804,1.804,1.811,1.8149,1.8542,1.8996,1.9476,1.9949,2.0527,2.0775,2.0889,2.0414,2.0684,2.1508,2.1421,2.1591,2.1876,2.1759,2.1534,2.1653,2.1737,2.1838,2.2149,2.2949,2.388,2.4734,2.6066,2.7289,2.8529,2.9229,2.9702,2.9721,2.9779,2.9779,2.9779,2.9779,2.9779,2.9779,2.9779,2.9792,2.9817,2.9829,2.9829,2.9829,2.9829,2.9829,2.9817,2.9817,2.9829,2.9829,3.0126,3.1347,3.2525,3.3437,3.4319,3.4436,3.4484,3.4622,3.4673,3.4843,3.4913,3.5033,3.5108,3.5167,3.5266,3.5487,3.5875,3.6112,3.6707,3.7467,3.797,3.8169,3.8951,3.9495,3.9202,3.9315,3.9315,3.9365,3.9547,3.9647,3.963,3.9597,3.9815,3.9865,4.0031,3.9893,3.9864,4.0401,4.1017,4.1283,4.1651,4.2202,1.541,1.5417,1.5475,1.5644,1.5935,1.6226,1.6654,1.7213,1.7682,1.7964,1.8203,1.8489,1.8465,1.8017,1.8063,1.8133,1.8226,1.8179,1.8133,1.8087,1.8203,1.8156,1.8156,1.8249,1.8133,1.8334,1.8589,1.8758,1.9826,2.0226,2.0367,2.0681,2.1849,2.2059,2.2014,2.2244,2.2331,2.2176,2.1962,2.217,2.2501,2.2258,2.1784,2.1787,2.1797,2.2115,2.2752,2.3876,2.5043,2.6526,2.8162,2.9284,2.9682,2.9779,2.9779,2.9779,2.9779,2.9779,2.9779,2.988,2.9917,2.993,2.9955,3.0025,3.0037,2.9993,2.9993,2.9993,2.998,2.9942,2.9942,2.998,3.0051,3.0605,3.1537,3.2609,3.3603,3.4312,3.476,3.4965,3.5218,3.547,3.5843,3.5965,3.6138,3.6161,3.6037,3.6108,3.6168,3.6407,3.663,3.7388,3.8199,3.7994,3.7892,3.9504,4.0106,3.9683,3.9448,3.9699,3.9898,3.9998,4.0064,4.0163,4.0531,4.0878,4.0878,4.0564,4.0898,4.0988,4.1354,4.1791,4.2058,4.2513,4.3098]},{"header":{"parameterUnit":"m.s-1","parameterCategory":1,"la1":31.0,"la2":29.5877,"lo1":-88.7671,"lo2":-86.6584,"dy":0.0162,"dx":0.0185,"nx":115,"ny":88,"refTime":"2023-05-23T12:00:00:Z","depth":0,"parameterNumber":3,"parameterNumberName":"V-component_of_WINDS"},"data":[0.0,0.0,0.0,0.0,0.0,0.0,0.0,0.0,0.0,0.0,0.0,0.0,0.0,0.0,0.0,0.0,0.0,0.0,0.0,0.0,0.0,0.0,0.0,0.0,0.0,0.0,0.0,0.0,0.0,0.0,0.0,0.0,0.0,0.0,0.0,0.0,0.0,0.0,0.0,0.0,0.0,0.0,0.0,0.0,0.0,0.0,0.0,0.0,0.0,0.0,0.0,0.0,0.0,0.0,0.0,0.0,0.0,0.0,0.0,0.0,0.0,0.0,0.0,0.0,0.0,0.0,0.0,0.0,0.0,0.0,0.0,0.0,0.0,0.0,0.0,0.0,0.0,0.0,0.0,0.0,0.0,0.0,0.0,0.0,0.0,0.0,0.0,0.0,0.0,0.0,0.0,0.0,0.0,0.0,0.0,0.0,0.0,0.0,0.0,0.0,0.0,0.0,0.0,0.0,0.0,0.0,0.0,0.0,0.0,0.0,0.0,0.0,0.0,0.0,0.0,0.0,0.0,0.0,0.0,0.0,0.0,0.0,0.0,0.0,0.0,0.0,0.0,0.0,0.0,0.0,0.0,0.0,0.0,0.0,0.0,0.0,0.0,0.0,0.0,0.0,0.0,0.0,0.0,0.0,0.0,0.0,0.0,0.0,0.0,0.0,0.0,0.0,0.0,0.0,0.0,0.0,0.0,0.0,0.0,0.0,0.0,0.0,0.0,0.0,0.0,0.0,0.0,0.0,0.0,0.0,0.0,0.0,0.0,0.0,0.0,0.0,0.0,0.0,0.0,0.0,0.0,0.0,0.0,0.0,0.0,0.0,0.0,0.0,0.0,0.0,0.0,0.0,0.0,0.0,0.0,0.0,0.0,0.0,0.0,0.0,0.0,0.0,0.0,0.0,0.0,0.0,0.0,0.0,0.0,0.0,0.0,0.0,0.0,0.0,0.0,0.0,0.0,0.0,0.0,0.0,0.0,0.0,0.0,0.0,0.0,0.0,0.0,0.0,0.0,0.0,0.0,0.0,0.0,0.0,0.0,0.0,0.0,0.0,0.0,0.0,0.0,0.0,0.0,0.0,0.0,0.0,0.0,0.0,0.0,0.0,0.0,0.0,0.0,0.0,0.0,0.0,0.0,0.0,0.0,0.0,0.0,0.0,0.0,0.0,0.0,0.0,0.0,0.0,0.0,0.0,0.0,0.0,0.0,0.0,0.0,0.0,0.0,0.0,0.0,0.0,0.0,0.0,0.0,0.0,0.0,0.0,0.0,0.0,0.0,0.0,0.0,0.0,0.0,0.0,0.0,0.0,0.0,0.0,0.0,0.0,0.0,0.0,0.0,0.0,0.0,0.0,0.0,0.0,0.0,0.0,0.0,0.0,0.0,0.0,0.0,0.0,0.0,0.0,0.0,0.0,0.0,0.0,0.0,0.0,0.0,0.0,0.0,0.0,0.0,0.0,0.0,0.0,0.0,0.0,0.0,0.0,0.0,0.0,0.0,0.0,0.0,0.0,0.0,0.0,0.0,0.0,0.0,0.0,0.0,0.0,0.0,0.0,0.0,0.0,0.0,0.0,0.0,0.0,0.0,0.0,0.0,0.0,0.0,0.0,0.0,0.0,0.0,0.0,0.0,0.0,0.0,0.0,0.0,0.0,0.0,0.0,0.0,0.0,0.0,0.0,0.0,0.0,0.0,0.0,0.0,0.0,0.0,0.0,0.0,0.0,0.0,0.0,0.0,0.0,0.0,0.0,0.0,0.0,0.0,0.0,0.0,0.0,0.0,0.0,0.0,0.0,0.0,0.0,0.0,0.0,0.0,0.0,0.0,0.0,0.0,0.0,0.0,0.0,0.0,0.0,0.0,0.0,0.0,0.0,0.0,0.0,0.0,0.0,0.0,0.0,0.0,0.0,0.0,0.0,0.0,0.0,0.0,0.0,0.0,0.0,0.0,0.0,0.0,0.0,0.0,0.0,0.0,0.0,0.0,0.0,0.0,0.0,0.0,0.0,0.0,0.0,0.0,0.0,0.0,0.0,0.0,0.0,0.0,0.0,0.0,0.0,0.0,0.0,0.0,0.0,0.0,0.0,0.0,0.0,0.0,0.0,0.0,0.0,0.0,0.0,0.0,0.0,0.0,0.0,0.0,0.0,0.0,0.0,0.0,0.0,0.0,0.0,0.0,0.0,0.0,0.0,0.0,0.0,0.0,0.0,0.0,0.0,0.0,0.0,0.0,0.0,0.0,0.0,0.0,0.0,0.0,0.0,0.0,0.0,0.0,0.0,0.0,0.0,0.0,0.0,0.0,0.0,0.0,0.0,0.0,0.0,0.0,0.0,0.0,0.0,0.0,0.0,0.0,0.0,0.0,0.0,0.0,0.0,0.0,0.0,0.0,0.0,0.0,0.0,0.0,0.0,0.0,0.0,0.0,0.0,0.0,0.0,0.0,0.0,0.0,0.0,0.0,0.0,0.0,0.0,0.0,0.0,0.0,0.0,0.0,0.0,0.0,0.0,0.0,0.0,0.0,0.0,0.0,0.0,0.0,0.0,0.0,0.0,0.0,0.0,0.0,0.0,0.0,0.0,0.0,0.0,0.0,0.0,0.0,0.0,0.0,0.0,0.0,0.0,0.0,0.0,0.0,0.0,0.0,0.0,0.0,0.0,0.0,0.0,0.0,0.0,0.0,0.0,0.0,0.0,0.0,0.0,0.0,0.0,0.0,0.0,0.0,0.0,0.0,0.0,0.0,0.0,0.0,0.0,0.0,0.0,0.0,0.0,0.0,0.0,0.0,0.0,0.0,0.0,0.0,0.0,0.0,0.0,0.0,0.0,0.0,0.0,0.0,0.0,0.0,0.0,0.0,0.0,0.0,0.0,0.0,0.0,0.0,0.0,0.0,0.0,0.0,0.0,0.0,0.0,0.0,0.0,0.0,0.0,0.0,0.0,0.0,0.0,0.0,0.0,0.0,0.0,0.0,0.0,0.0,0.0,0.0,0.0,0.0,0.0,0.0,0.0,0.0,0.0,0.0,0.0,0.0,0.0,0.0,0.0,0.0,0.0,0.0,0.0,0.0,0.0,0.0,0.0,0.0,0.0,0.0,0.0,0.0,0.0,0.0,0.0,0.0,0.0,0.0,0.0,0.0,0.0,0.0,0.0,0.0,0.0,0.0,0.0,0.0,0.0,0.0,0.0,0.0,0.0,0.0,0.0,0.0,0.0,0.0,0.0,0.0,0.0,0.0,0.0,0.0,0.0,0.0,0.0,0.0,0.0,0.0,0.0,0.0,0.0,0.0,0.0,0.0,0.0,0.0,0.0,0.0,0.0,0.0,0.0,0.0,0.0,0.0,0.0,0.0,0.0,0.0,0.0,0.0,0.0,0.0,0.0,0.0,0.0,0.0,0.0,0.0,0.0,0.0,0.0,0.0,0.0,0.0,0.0,0.0,0.0,0.0,0.0,0.0,0.0,0.0,0.0,0.0,0.0,0.0,0.0,0.0,0.0,0.0,0.0,0.0,0.0,0.0,0.0,0.0,0.0,0.0,0.0,0.0,0.0,0.0,0.0,0.0,0.0,0.0,0.0,0.0,0.0,0.0,0.0,0.0,0.0,0.0,0.0,0.0,0.0,0.0,0.0,0.0,0.0,0.0,0.0,0.0,0.0,0.0,0.0,0.0,0.0,0.0,0.0,0.0,0.0,0.0,0.0,0.0,0.0,0.0,0.0,0.0,0.0,0.0,0.0,0.0,0.0,0.0,0.0,0.0,0.0,0.0,0.0,0.0,0.0,0.0,0.0,0.0,0.0,0.0,0.0,0.0,0.0,0.0,0.0,0.0,0.0,0.0,0.0,0.0,0.0,0.0,0.0,0.0,0.0,0.0,0.0,0.0,0.0,0.0,0.0,0.0,0.0,0.0,0.0,0.0,0.0,0.0,0.0,0.0,0.0,0.0,0.0,0.0,0.0,0.0,0.0,0.0,0.0,0.0,0.0,0.0,0.0,0.0,0.0,0.0,0.0,0.0,0.0,0.0,0.0,0.0,0.0,0.0,0.0,0.0,0.0,0.0,0.0,0.0,0.0,0.0,0.0,0.0,0.0,0.0,0.0,0.0,0.0,0.0,0.0,0.0,0.0,0.0,0.0,0.0,0.0,0.0,0.0,0.0,0.0,0.0,0.0,0.0,0.0,0.0,0.0,0.0,0.0,0.0,0.0,0.0,0.0,0.0,0.0,0.0,0.0,0.0,0.0,0.0,0.0,0.0,0.0,0.0,0.0,2.3133,0.0,0.0,0.0,0.0,0.0,0.0,0.0,0.0,0.0,0.0,0.0,0.0,0.0,0.0,0.0,0.0,0.0,0.0,0.0,0.0,0.0,0.0,0.0,0.0,0.0,0.0,0.0,0.0,0.0,0.0,0.0,0.0,0.0,0.0,0.0,0.0,0.0,0.0,0.0,0.0,0.0,0.0,0.0,0.0,0.0,0.0,0.0,0.0,0.0,0.0,0.0,0.0,0.0,0.0,0.0,0.0,0.0,0.0,0.0,0.0,0.0,0.0,0.0,0.0,0.0,0.0,0.0,0.0,0.0,0.0,0.0,0.0,0.0,0.0,0.0,0.0,0.0,0.0,0.0,0.0,0.0,0.0,0.0,0.0,0.0,0.0,0.0,0.0,0.0,0.0,0.0,0.0,0.0,0.0,0.0,0.0,0.0,0.0,0.0,0.0,0.0,0.0,0.0,0.0,0.0,0.0,0.0,0.0,0.0,0.0,2.4001,2.313,2.369,2.3712,2.3118,0.0,0.0,0.0,0.0,0.0,0.0,0.0,0.0,0.0,0.0,0.0,0.0,0.0,0.0,0.0,0.0,0.0,0.0,0.0,0.0,0.0,0.0,0.0,0.0,0.0,0.0,0.0,0.0,0.0,0.0,0.0,0.0,0.0,0.0,0.0,0.0,0.0,0.0,0.0,0.0,0.0,0.0,0.0,0.0,0.0,0.0,0.0,0.0,0.0,0.0,0.0,0.0,0.0,0.0,0.0,0.0,0.0,0.0,0.0,0.0,0.0,0.0,0.0,0.0,0.0,0.0,0.0,0.0,0.0,0.0,0.0,0.0,0.0,0.0,0.0,0.0,0.0,0.0,0.0,0.0,0.0,0.0,0.0,0.0,0.0,0.0,0.0,0.0,0.0,0.0,0.0,0.0,0.0,0.0,0.0,0.0,0.0,0.0,0.0,0.0,0.0,0.0,0.0,0.0,0.0,0.0,0.0,0.0,0.0,0.0,0.0,0.0,2.4506,2.4531,2.4061,0.0,0.0,0.0,0.0,0.0,0.0,0.0,0.0,0.0,0.0,0.0,0.0,0.0,0.0,0.0,0.0,0.0,0.0,0.0,0.0,0.0,0.0,0.0,0.0,0.0,0.0,0.0,0.0,0.0,0.0,0.0,0.0,0.0,0.0,0.0,0.0,0.0,0.0,0.0,0.0,0.0,0.0,0.0,0.0,0.0,0.0,0.0,0.0,0.0,0.0,0.0,0.0,0.0,0.0,0.0,0.0,0.0,0.0,0.0,0.0,0.0,0.0,0.0,0.0,0.0,0.0,0.0,0.0,0.0,0.0,0.0,0.0,0.0,0.0,0.0,0.0,0.0,0.0,0.0,0.0,0.0,0.0,0.0,0.0,0.0,0.0,0.0,0.0,0.0,0.0,0.0,0.0,0.0,0.0,0.0,0.0,0.0,0.0,0.0,0.0,0.0,0.0,0.0,0.0,0.0,0.0,0.0,0.0,0.0,0.0,2.4415,2.6834,2.6947,0.0,2.6829,0.0,0.0,0.0,0.0,0.0,0.0,0.0,0.0,0.0,0.0,0.0,0.0,0.0,0.0,0.0,0.0,0.0,0.0,0.0,0.0,0.0,0.0,0.0,0.0,0.0,0.0,0.0,0.0,0.0,0.0,0.0,0.0,0.0,0.0,0.0,0.0,0.0,0.0,0.0,0.0,0.0,0.0,0.0,0.0,0.0,0.0,0.0,0.0,0.0,0.0,0.0,0.0,0.0,0.0,0.0,0.0,0.0,0.0,0.0,0.0,0.0,0.0,0.0,0.0,0.0,0.0,0.0,0.0,0.0,0.0,0.0,0.0,0.0,0.0,0.0,0.0,0.0,0.0,0.0,0.0,0.0,0.0,0.0,0.0,0.0,0.0,0.0,0.0,0.0,0.0,0.0,0.0,0.0,0.0,0.0,0.0,0.0,0.0,0.0,0.0,0.0,0.0,0.0,0.0,0.0,0.0,0.0,0.0,0.0,0.0,2.546,2.7248,2.7179,2.6677,0.0,0.0,0.0,0.0,0.0,0.0,0.0,0.0,0.0,0.0,0.0,0.0,0.0,0.0,0.0,0.0,0.0,0.0,0.0,0.0,0.0,0.0,0.0,0.0,0.0,0.0,0.0,0.0,0.0,0.0,0.0,0.0,0.0,0.0,0.0,0.0,0.0,0.0,0.0,0.0,0.0,0.0,0.0,0.0,0.0,0.0,0.0,0.0,0.0,0.0,0.0,0.0,0.0,0.0,0.0,0.0,0.0,0.0,0.0,0.0,0.0,0.0,0.0,0.0,0.0,0.0,0.0,0.0,0.0,0.0,0.0,0.0,0.0,0.0,0.0,0.0,0.0,0.0,0.0,0.0,0.0,0.0,0.0,0.0,0.0,0.0,0.0,0.0,0.0,0.0,0.0,0.0,0.0,0.0,0.0,0.0,0.0,0.0,0.0,0.0,0.0,0.0,0.0,0.0,0.0,0.0,0.0,0.0,0.0,0.0,2.585,2.6834,2.826,2.7412,2.6362,2.5286,0.0,0.0,0.0,0.0,0.0,0.0,0.0,0.0,0.0,0.0,0.0,0.0,0.0,0.0,0.0,0.0,0.0,0.0,0.0,0.0,0.0,0.0,0.0,0.0,0.0,0.0,0.0,0.0,0.0,0.0,0.0,0.0,0.0,0.0,0.0,0.0,0.0,0.0,0.0,0.0,0.0,0.0,0.0,0.0,0.0,0.0,0.0,0.0,0.0,0.0,0.0,0.0,0.0,0.0,0.0,0.0,0.0,0.0,0.0,0.0,0.0,0.0,0.0,0.0,0.0,0.0,0.0,0.0,0.0,0.0,0.0,0.0,0.0,0.0,0.0,0.0,0.0,0.0,0.0,0.0,0.0,0.0,0.0,0.0,0.0,0.0,0.0,0.0,0.0,0.0,0.0,0.0,0.0,0.0,0.0,0.0,0.0,0.0,0.0,0.0,0.0,0.0,0.0,0.0,0.0,0.0,0.0,0.0,3.0545,2.8479,2.8492,3.0959,2.8165,2.6621,0.0,0.0,0.0,0.0,0.0,0.0,0.0,0.0,0.0,0.0,0.0,0.0,0.0,0.0,0.0,0.0,0.0,0.0,0.0,0.0,0.0,0.0,0.0,0.0,0.0,0.0,0.0,0.0,0.0,0.0,0.0,0.0,0.0,0.0,0.0,0.0,0.0,0.0,0.0,0.0,0.0,0.0,0.0,0.0,0.0,0.0,0.0,0.0,0.0,0.0,0.0,0.0,0.0,0.0,0.0,0.0,0.0,0.0,0.0,0.0,0.0,0.0,0.0,0.0,0.0,0.0,0.0,0.0,0.0,0.0,0.0,0.0,0.0,0.0,0.0,0.0,0.0,0.0,0.0,0.0,0.0,0.0,0.0,0.0,0.0,0.0,0.0,0.0,0.0,0.0,0.0,0.0,0.0,0.0,0.0,0.0,0.0,0.0,0.0,0.0,0.0,0.0,0.0,0.0,0.0,0.0,0.0,0.0,0.0,2.5996,2.6854,2.8436,3.0683,2.8256,2.7053,0.0,0.0,0.0,0.0,0.0,0.0,0.0,0.0,0.0,0.0,0.0,0.0,0.0,0.0,0.0,0.0,0.0,0.0,0.0,0.0,0.0,0.0,0.0,0.0,0.0,0.0,0.0,0.0,0.0,0.0,0.0,0.0,0.0,0.0,0.0,0.0,0.0,0.0,0.0,0.0,0.0,0.0,0.0,0.0,0.0,0.0,0.0,0.0,0.0,0.0,0.0,0.0,0.0,0.0,0.0,0.0,0.0,0.0,0.0,0.0,0.0,0.0,0.0,0.0,0.0,0.0,0.0,0.0,0.0,0.0,0.0,0.0,0.0,0.0,0.0,0.0,0.0,0.0,0.0,0.0,0.0,0.0,0.0,0.0,0.0,0.0,0.0,0.0,0.0,0.0,0.0,0.0,0.0,0.0,0.0,0.0,0.0,0.0,0.0,0.0,0.0,0.0,0.0,0.0,0.0,0.0,0.0,0.0,0.0,2.5268,0.0,2.9365,3.0206,2.8237,2.6848,0.0,0.0,0.0,0.0,0.0,0.0,0.0,0.0,0.0,0.0,0.0,0.0,0.0,0.0,0.0,0.0,0.0,0.0,0.0,0.0,0.0,0.0,0.0,0.0,0.0,0.0,0.0,0.0,0.0,0.0,0.0,0.0,0.0,0.0,0.0,0.0,0.0,0.0,0.0,0.0,0.0,0.0,0.0,0.0,0.0,0.0,0.0,0.0,0.0,0.0,0.0,0.0,0.0,0.0,0.0,0.0,0.0,0.0,0.0,0.0,0.0,0.0,0.0,0.0,0.0,0.0,0.0,0.0,0.0,0.0,0.0,0.0,0.0,0.0,0.0,0.0,0.0,0.0,0.0,0.0,0.0,0.0,0.0,0.0,0.0,0.0,0.0,0.0,0.0,0.0,0.0,0.0,0.0,0.0,0.0,0.0,0.0,0.0,0.0,0.0,0.0,0.0,0.0,0.0,0.0,0.0,0.0,0.0,2.5268,2.9453,3.1148,3.1235,2.9867,2.8134,2.5958,0.0,0.0,0.0,0.0,0.0,0.0,0.0,0.0,0.0,0.0,0.0,0.0,0.0,0.0,0.0,0.0,0.0,0.0,0.0,0.0,0.0,0.0,0.0,0.0,0.0,0.0,0.0,0.0,0.0,0.0,0.0,0.0,0.0,0.0,0.0,0.0,0.0,0.0,0.0,0.0,0.0,0.0,0.0,0.0,0.0,0.0,0.0,0.0,0.0,0.0,0.0,0.0,0.0,0.0,0.0,0.0,0.0,0.0,0.0,0.0,0.0,0.0,0.0,0.0,0.0,0.0,0.0,0.0,0.0,0.0,0.0,0.0,0.0,0.0,0.0,0.0,0.0,0.0,0.0,0.0,0.0,0.0,0.0,0.0,0.0,0.0,0.0,0.0,0.0,0.0,0.0,0.0,0.0,0.0,0.0,0.0,0.0,0.0,0.0,0.0,0.0,0.0,0.0,0.0,0.0,0.0,0.0,0.0,0.0,2.6385,2.8693,3.0425,3.1253,2.7614,2.6405,0.0,0.0,0.0,0.0,0.0,0.0,0.0,0.0,0.0,0.0,0.0,0.0,0.0,0.0,0.0,0.0,0.0,0.0,0.0,0.0,0.0,0.0,0.0,0.0,0.0,0.0,0.0,0.0,0.0,0.0,0.0,0.0,0.0,0.0,0.0,0.0,0.0,0.0,0.0,0.0,0.0,0.0,0.0,0.0,0.0,0.0,0.0,0.0,0.0,0.0,0.0,0.0,0.0,0.0,0.0,0.0,0.0,0.0,0.0,0.0,0.0,0.0,0.0,0.0,0.0,0.0,0.0,0.0,0.0,0.0,0.0,0.0,0.0,0.0,0.0,0.0,0.0,0.0,0.0,0.0,0.0,0.0,0.0,0.0,0.0,0.0,0.0,0.0,0.0,0.0,0.0,0.0,0.0,0.0,0.0,0.0,0.0,0.0,0.0,0.0,0.0,0.0,0.0,0.0,0.0,0.0,0.0,0.0,0.0,2.7401,2.9747,3.1328,3.1888,2.8499,2.72,2.8292,0.0,0.0,0.0,0.0,0.0,0.0,0.0,0.0,0.0,0.0,0.0,0.0,0.0,0.0,0.0,0.0,0.0,0.0,0.0,0.0,0.0,0.0,0.0,0.0,0.0,0.0,0.0,0.0,0.0,0.0,0.0,0.0,0.0,0.0,0.0,0.0,0.0,0.0,0.0,0.0,0.0,0.0,0.0,0.0,0.0,0.0,0.0,0.0,0.0,0.0,0.0,0.0,0.0,0.0,0.0,0.0,0.0,0.0,0.0,0.0,0.0,0.0,0.0,0.0,0.0,0.0,0.0,0.0,0.0,0.0,0.0,0.0,0.0,0.0,0.0,0.0,0.0,0.0,0.0,0.0,0.0,0.0,0.0,0.0,0.0,0.0,0.0,0.0,0.0,0.0,0.0,0.0,0.0,0.0,0.0,0.0,0.0,0.0,0.0,0.0,0.0,0.0,0.0,0.0,0.0,0.0,0.0,0.0,3.1562,3.3784,3.3935,3.1871,3.0477,2.8335,0.0,0.0,0.0,0.0,0.0,0.0,0.0,0.0,0.0,0.0,0.0,0.0,0.0,0.0,0.0,0.0,0.0,0.0,0.0,0.0,0.0,0.0,0.0,0.0,0.0,0.0,0.0,0.0,0.0,0.0,0.0,0.0,0.0,0.0,0.0,0.0,0.0,0.0,0.0,0.0,0.0,0.0,0.0,0.0,0.0,0.0,0.0,0.0,0.0,0.0,0.0,0.0,0.0,0.0,0.0,0.0,0.0,0.0,0.0,0.0,0.0,0.0,0.0,0.0,0.0,0.0,0.0,0.0,0.0,0.0,0.0,0.0,0.0,0.0,0.0,0.0,0.0,0.0,0.0,0.0,0.0,0.0,0.0,0.0,0.0,0.0,0.0,0.0,0.0,0.0,0.0,0.0,0.0,0.0,0.0,0.0,0.0,0.0,0.0,0.0,0.0,0.0,0.0,0.0,0.0,0.0,0.0,0.0,0.0,3.3787,3.642,3.7111,3.5653,3.1884,2.9591,0.0,0.0,0.0,0.0,0.0,0.0,0.0,0.0,0.0,0.0,0.0,0.0,0.0,0.0,0.0,0.0,0.0,0.0,0.0,0.0,0.0,0.0,0.0,0.0,0.0,0.0,0.0,0.0,0.0,0.0,0.0,0.0,0.0,0.0,0.0,0.0,0.0,0.0,0.0,0.0,0.0,0.0,0.0,0.0,0.0,0.0,0.0,0.0,0.0,0.0,0.0,0.0,0.0,0.0,0.0,0.0,0.0,0.0,0.0,0.0,0.0,0.0,0.0,0.0,0.0,0.0,0.0,0.0,0.0,0.0,0.0,0.0,0.0,0.0,0.0,0.0,0.0,0.0,0.0,0.0,0.0,0.0,0.0,0.0,0.0,0.0,0.0,0.0,0.0,0.0,0.0,0.0,0.0,0.0,0.0,0.0,0.0,0.0,0.0,0.0,0.0,0.0,0.0,0.0,0.0,0.0,0.0,0.0,3.2077,3.5366,3.8128,3.9245,3.8617,3.47,3.1692,0.0,0.0,0.0,0.0,0.0,0.0,0.0,0.0,0.0,0.0,0.0,0.0,0.0,0.0,0.0,0.0,0.0,0.0,0.0,0.0,0.0,0.0,0.0,0.0,0.0,0.0,0.0,0.0,0.0,0.0,0.0,0.0,0.0,0.0,0.0,0.0,0.0,0.0,0.0,0.0,0.0,0.0,0.0,0.0,0.0,0.0,0.0,0.0,0.0,0.0,0.0,0.0,0.0,0.0,0.0,0.0,0.0,0.0,0.0,0.0,0.0,0.0,0.0,0.0,0.0,0.0,0.0,0.0,0.0,0.0,0.0,0.0,0.0,0.0,0.0,0.0,0.0,0.0,0.0,0.0,0.0,0.0,0.0,0.0,0.0,0.0,0.0,0.0,0.0,0.0,0.0,0.0,0.0,0.0,0.0,0.0,0.0,0.0,0.0,0.0,0.0,0.0,0.0,0.0,0.0,0.0,0.0,0.0,3.3115,3.6443,3.9107,4.0462,4.035,3.7713,3.3975,0.0,0.0,0.0,0.0,0.0,0.0,0.0,0.0,0.0,0.0,0.0,0.0,0.0,0.0,0.0,0.0,0.0,0.0,0.0,0.0,0.0,0.0,0.0,0.0,0.0,0.0,0.0,0.0,0.0,0.0,0.0,0.0,0.0,0.0,0.0,0.0,0.0,0.0,0.0,0.0,0.0,0.0,0.0,0.0,0.0,0.0,0.0,0.0,0.0,0.0,0.0,0.0,0.0,0.0,0.0,0.0,0.0,0.0,0.0,0.0,0.0,0.0,0.0,0.0,0.0,0.0,0.0,0.0,0.0,0.0,0.0,0.0,0.0,0.0,0.0,0.0,0.0,0.0,0.0,0.0,0.0,0.0,0.0,0.0,0.0,0.0,0.0,0.0,0.0,0.0,0.0,0.0,0.0,0.0,0.0,0.0,0.0,0.0,0.0,0.0,0.0,0.0,0.0,0.0,0.0,0.0,0.0,0.0,3.3646,3.6959,3.9308,4.0286,3.9873,3.6759,3.3549,0.0,0.0,0.0,0.0,0.0,0.0,0.0,0.0,0.0,0.0,0.0,0.0,0.0,0.0,0.0,0.0,0.0,0.0,0.0,0.0,0.0,0.0,0.0,0.0,0.0,0.0,0.0,0.0,0.0,0.0,0.0,0.0,0.0,0.0,0.0,0.0,0.0,0.0,0.0,0.0,0.0,0.0,0.0,0.0,0.0,0.0,0.0,0.0,2.4356,0.0,0.0,0.0,0.0,0.0,0.0,0.0,0.0,0.0,0.0,0.0,0.0,0.0,0.0,0.0,0.0,0.0,0.0,0.0,0.0,0.0,0.0,0.0,0.0,0.0,0.0,0.0,0.0,0.0,0.0,0.0,0.0,0.0,0.0,0.0,0.0,0.0,0.0,0.0,0.0,0.0,0.0,0.0,0.0,0.0,0.0,0.0,0.0,0.0,0.0,0.0,0.0,0.0,0.0,0.0,0.0,0.0,0.0,0.0,3.4098,3.7122,3.912,3.9986,3.9597,3.6685,3.3674,0.0,0.0,0.0,0.0,0.0,0.0,0.0,0.0,0.0,0.0,0.0,0.0,0.0,0.0,0.0,0.0,0.0,0.0,0.0,0.0,0.0,0.0,0.0,0.0,0.0,0.0,0.0,0.0,0.0,0.0,0.0,0.0,0.0,0.0,0.0,0.0,0.0,0.0,0.0,0.0,0.0,0.0,0.0,0.0,0.0,0.0,0.0,0.0,0.0,0.0,0.0,0.0,0.0,0.0,0.0,0.0,0.0,0.0,0.0,0.0,0.0,0.0,0.0,0.0,0.0,0.0,0.0,0.0,0.0,0.0,0.0,0.0,0.0,0.0,0.0,0.0,0.0,0.0,0.0,0.0,0.0,0.0,0.0,0.0,0.0,0.0,0.0,0.0,0.0,0.0,0.0,0.0,0.0,0.0,0.0,0.0,0.0,0.0,0.0,0.0,0.0,0.0,0.0,0.0,0.0,0.0,0.0,3.1406,3.4258,3.7158,3.8693,3.9358,3.9157,3.6798,3.3887,3.0507,0.0,0.0,0.0,0.0,0.0,0.0,0.0,0.0,0.0,0.0,0.0,0.0,0.0,0.0,0.0,0.0,0.0,0.0,0.0,0.0,0.0,0.0,0.0,0.0,0.0,0.0,0.0,0.0,0.0,0.0,0.0,0.0,0.0,0.0,0.0,0.0,0.0,0.0,2.2432,2.4081,0.0,0.0,0.0,0.0,0.0,0.0,0.0,0.0,2.4334,0.0,0.0,0.0,0.0,0.0,0.0,0.0,0.0,0.0,0.0,0.0,0.0,0.0,0.0,0.0,0.0,0.0,0.0,0.0,0.0,0.0,0.0,0.0,0.0,0.0,0.0,0.0,0.0,0.0,0.0,0.0,0.0,0.0,0.0,0.0,0.0,0.0,0.0,0.0,0.0,0.0,0.0,0.0,0.0,0.0,0.0,0.0,0.0,0.0,0.0,0.0,0.0,0.0,0.0,0.0,0.0,3.1102,3.1508,3.3566,3.7435,3.8025,3.7839,3.6959,3.5995,3.3502,2.9446,0.0,0.0,0.0,0.0,0.0,0.0,0.0,0.0,0.0,0.0,0.0,0.0,0.0,0.0,0.0,0.0,0.0,0.0,0.0,0.0,0.0,0.0,0.0,0.0,0.0,0.0,0.0,0.0,0.0,0.0,0.0,0.0,0.0,0.0,0.0,0.0,0.0,0.0,0.0,2.7196,2.8282,0.0,0.0,0.0,0.0,0.0,0.0,0.0,0.0,2.5868,0.0,0.0,0.0,0.0,0.0,0.0,0.0,0.0,0.0,0.0,0.0,0.0,0.0,0.0,0.0,0.0,0.0,0.0,0.0,0.0,0.0,0.0,0.0,0.0,0.0,0.0,0.0,0.0,0.0,0.0,0.0,0.0,0.0,0.0,0.0,0.0,0.0,0.0,0.0,0.0,0.0,0.0,0.0,0.0,0.0,0.0,0.0,0.0,0.0,0.0,0.0,0.0,0.0,0.0,0.0,3.0329,3.2027,3.4252,3.7017,3.742,3.7199,3.6394,3.4449,3.1955,0.0,0.0,0.0,0.0,0.0,0.0,0.0,0.0,0.0,0.0,0.0,0.0,0.0,0.0,0.0,0.0,0.0,0.0,0.0,0.0,0.0,0.0,0.0,0.0,0.0,0.0,0.0,0.0,0.0,0.0,0.0,0.0,0.0,0.0,0.0,0.0,0.0,0.0,0.0,0.0,2.8065,2.9044,2.9455,0.0,0.0,0.0,0.0,0.0,0.0,2.5861,2.4846,0.0,0.0,0.0,0.0,0.0,0.0,0.0,0.0,0.0,0.0,0.0,0.0,0.0,0.0,0.0,0.0,0.0,0.0,0.0,0.0,0.0,0.0,0.0,0.0,0.0,0.0,0.0,0.0,0.0,0.0,0.0,0.0,0.0,0.0,0.0,0.0,0.0,0.0,0.0,0.0,0.0,0.0,0.0,0.0,0.0,0.0,0.0,0.0,0.0,0.0,0.0,0.0,0.0,0.0,0.0,2.9159,3.1935,3.4302,3.6164,3.6436,3.627,3.5705,3.2905,3.052,0.0,0.0,0.0,0.0,0.0,0.0,0.0,0.0,0.0,0.0,0.0,0.0,0.0,0.0,0.0,0.0,0.0,0.0,0.0,0.0,0.0,0.0,0.0,0.0,0.0,0.0,0.0,0.0,0.0,0.0,0.0,0.0,0.0,0.0,0.0,0.0,0.0,0.0,0.0,0.0,0.0,2.9785,3.0861,2.9699,0.0,0.0,0.0,0.0,2.7752,2.6051,0.0,0.0,0.0,0.0,0.0,0.0,0.0,0.0,0.0,0.0,0.0,0.0,0.0,0.0,0.0,0.0,0.0,0.0,0.0,0.0,0.0,0.0,0.0,0.0,0.0,0.0,0.0,0.0,0.0,0.0,0.0,0.0,0.0,0.0,0.0,0.0,0.0,0.0,0.0,0.0,0.0,0.0,0.0,0.0,0.0,0.0,0.0,0.0,0.0,0.0,0.0,0.0,0.0,0.0,0.0,0.0,2.8705,2.9916,3.1894,3.4638,3.4471,3.401,3.3492,3.2135,3.0175,0.0,0.0,0.0,0.0,0.0,0.0,0.0,0.0,0.0,0.0,0.0,0.0,0.0,0.0,0.0,0.0,0.0,0.0,0.0,0.0,0.0,0.0,0.0,0.0,0.0,0.0,0.0,0.0,0.0,0.0,0.0,0.0,0.0,0.0,0.0,0.0,0.0,0.0,0.0,0.0,0.0,3.1858,3.0664,2.9798,2.9392,0.0,0.0,2.7923,3.028,2.9978,0.0,0.0,0.0,0.0,0.0,0.0,0.0,0.0,0.0,0.0,0.0,0.0,0.0,0.0,0.0,0.0,0.0,0.0,0.0,0.0,0.0,0.0,0.0,0.0,0.0,0.0,0.0,0.0,0.0,0.0,0.0,0.0,0.0,0.0,0.0,0.0,0.0,0.0,0.0,0.0,0.0,0.0,0.0,0.0,0.0,0.0,0.0,0.0,0.0,0.0,0.0,0.0,0.0,0.0,0.0,2.5815,2.842,3.0405,3.2123,3.3572,3.3736,3.3398,3.2612,3.1037,2.9296,0.0,0.0,0.0,0.0,0.0,0.0,0.0,0.0,0.0,0.0,0.0,0.0,0.0,0.0,0.0,0.0,0.0,0.0,0.0,0.0,0.0,0.0,0.0,0.0,0.0,0.0,0.0,0.0,0.0,0.0,0.0,0.0,0.0,0.0,0.0,0.0,0.0,0.0,0.0,0.0,0.0,0.0,3.1073,3.0804,0.0,0.0,0.0,2.9816,3.0774,0.0,0.0,0.0,0.0,0.0,0.0,0.0,0.0,0.0,0.0,0.0,0.0,0.0,0.0,0.0,0.0,0.0,0.0,0.0,0.0,0.0,0.0,0.0,0.0,0.0,0.0,0.0,0.0,0.0,0.0,0.0,0.0,0.0,0.0,0.0,0.0,0.0,0.0,0.0,0.0,0.0,0.0,0.0,0.0,0.0,0.0,0.0,0.0,0.0,0.0,0.0,0.0,0.0,0.0,0.0,0.0,0.0,2.8235,3.0784,3.2338,3.2823,3.3304,3.2979,3.1705,3.0119,0.0,0.0,0.0,0.0,0.0,0.0,0.0,0.0,0.0,0.0,0.0,0.0,0.0,0.0,0.0,0.0,0.0,0.0,0.0,0.0,0.0,0.0,0.0,0.0,0.0,0.0,0.0,2.0093,0.0,0.0,0.0,0.0,0.0,0.0,0.0,0.0,0.0,0.0,0.0,0.0,0.0,0.0,3.0074,3.0959,3.1501,3.191,0.0,0.0,3.1311,3.1373,3.1017,2.9895,0.0,0.0,0.0,0.0,0.0,0.0,0.0,0.0,0.0,0.0,0.0,0.0,0.0,0.0,0.0,0.0,0.0,0.0,0.0,0.0,0.0,0.0,0.0,0.0,0.0,0.0,0.0,0.0,0.0,0.0,0.0,0.0,0.0,0.0,0.0,0.0,0.0,0.0,0.0,0.0,0.0,0.0,0.0,0.0,0.0,0.0,0.0,0.0,0.0,0.0,0.0,0.0,0.0,0.0,2.5571,2.8249,3.0071,3.1543,3.2592,3.3022,3.2259,3.0304,2.9627,2.8186,0.0,0.0,0.0,0.0,0.0,0.0,0.0,0.0,0.0,0.0,0.0,0.0,0.0,0.0,0.0,0.0,0.0,0.0,0.0,0.0,0.0,0.0,0.0,0.0,0.0,0.0,0.0,0.0,0.0,0.0,0.0,0.0,0.0,0.0,0.0,0.0,0.0,0.0,0.0,0.0,0.0,3.0114,2.9679,3.1402,3.2785,0.0,3.235,3.2112,3.2837,3.2912,3.1566,2.7728,0.0,0.0,0.0,0.0,0.0,0.0,0.0,0.0,0.0,0.0,0.0,0.0,0.0,0.0,0.0,0.0,0.0,0.0,0.0,0.0,0.0,0.0,0.0,0.0,0.0,0.0,0.0,0.0,0.0,0.0,0.0,0.0,0.0,0.0,0.0,0.0,0.0,0.0,0.0,0.0,0.0,0.0,0.0,0.0,0.0,0.0,0.0,0.0,0.0,0.0,0.0,0.0,0.0,2.6284,2.8412,3.0259,3.1532,3.2181,3.3195,3.2846,3.096,3.0839,2.9539,0.0,0.0,0.0,0.0,0.0,0.0,0.0,0.0,0.0,0.0,0.0,0.0,0.0,0.0,0.0,0.0,0.0,0.0,0.0,0.0,0.0,0.0,0.0,0.0,0.0,0.0,0.0,0.0,2.1848,2.2048,2.2581,0.0,0.0,0.0,0.0,0.0,0.0,0.0,0.0,0.0,0.0,2.9594,3.0358,3.1614,0.0,0.0,3.2828,3.2744,3.3043,3.2512,3.1137,2.8466,2.7245,0.0,0.0,0.0,0.0,0.0,0.0,0.0,0.0,0.0,0.0,0.0,0.0,0.0,0.0,0.0,0.0,0.0,0.0,0.0,0.0,0.0,0.0,0.0,0.0,0.0,0.0,0.0,0.0,0.0,0.0,0.0,0.0,0.0,0.0,0.0,0.0,0.0,0.0,0.0,0.0,0.0,0.0,0.0,0.0,0.0,0.0,0.0,0.0,0.0,0.0,0.0,0.0,2.6858,2.8826,3.0742,3.1935,3.2343,3.3722,3.343,3.142,3.1577,3.0376,0.0,0.0,0.0,0.0,0.0,0.0,0.0,0.0,0.0,0.0,0.0,0.0,0.0,0.0,0.0,0.0,0.0,0.0,0.0,0.0,0.0,0.0,0.0,0.0,0.0,0.0,0.0,0.0,2.2558,2.2696,2.307,0.0,0.0,0.0,0.0,0.0,0.0,0.0,0.0,0.0,0.0,2.961,3.0595,3.1559,3.2282,3.2562,3.2587,3.255,3.2386,3.1951,3.0768,2.8182,0.0,0.0,0.0,0.0,0.0,0.0,0.0,0.0,0.0,0.0,0.0,0.0,0.0,0.0,0.0,0.0,0.0,0.0,0.0,0.0,0.0,0.0,0.0,0.0,0.0,0.0,0.0,0.0,0.0,0.0,2.6431,0.0,0.0,0.0,0.0,0.0,0.0,0.0,0.0,0.0,0.0,0.0,0.0,0.0,0.0,0.0,0.0,0.0,0.0,0.0,0.0,0.0,0.0,2.7115,2.9552,3.1422,3.2744,3.334,3.4532,3.3847,3.1268,3.1562,3.0308,2.7156,0.0,0.0,0.0,0.0,0.0,0.0,0.0,0.0,0.0,0.0,0.0,0.0,0.0,0.0,0.0,0.0,0.0,0.0,0.0,0.0,0.0,0.0,0.0,0.0,0.0,0.0,2.307,2.3083,2.3083,0.0,0.0,0.0,0.0,0.0,0.0,0.0,0.0,0.0,0.0,2.8869,3.0362,2.9917,3.1177,3.2014,3.1545,3.1469,3.1273,3.0789,3.1491,3.0758,0.0,0.0,0.0,0.0,0.0,0.0,0.0,0.0,0.0,0.0,0.0,0.0,0.0,0.0,0.0,0.0,0.0,0.0,0.0,0.0,0.0,0.0,0.0,0.0,0.0,0.0,0.0,2.8029,2.8061,0.0,0.0,0.0,0.0,0.0,0.0,0.0,0.0,0.0,0.0,0.0,3.107,3.1109,0.0,0.0,0.0,0.0,0.0,0.0,0.0,0.0,0.0,0.0,0.0,0.0,2.7423,2.9563,3.1061,3.2154,3.2819,3.4074,3.3811,3.1968,3.2042,3.0761,2.7894,0.0,0.0,0.0,0.0,0.0,0.0,0.0,0.0,0.0,0.0,0.0,0.0,0.0,0.0,0.0,0.0,0.0,0.0,0.0,0.0,0.0,0.0,0.0,0.0,0.0,2.3095,0.0,0.0,0.0,0.0,0.0,0.0,0.0,0.0,0.0,0.0,0.0,2.6394,2.6947,2.8775,2.9993,2.9817,3.0879,3.1599,0.0,0.0,0.0,0.0,0.0,0.0,0.0,0.0,0.0,0.0,0.0,0.0,0.0,0.0,2.4907,2.312,2.2615,2.2433,2.2291,0.0,0.0,0.0,0.0,0.0,0.0,0.0,0.0,0.0,0.0,0.0,0.0,0.0,0.0,2.9659,0.0,2.9529,0.0,0.0,0.0,0.0,0.0,0.0,0.0,0.0,3.2301,3.2911,3.2877,3.3134,3.3019,0.0,3.1625,3.0565,0.0,0.0,0.0,0.0,0.0,0.0,0.0,0.0,2.8066,2.9593,3.1091,3.2049,3.2512,3.359,3.3573,3.2407,3.1857,3.0631,2.8582,2.6716,2.5384,0.0,0.0,0.0,0.0,0.0,0.0,0.0,0.0,0.0,0.0,0.0,0.0,0.0,0.0,0.0,0.0,0.0,0.0,0.0,0.0,0.0,0.0,0.0,2.302,0.0,0.0,0.0,0.0,0.0,0.0,0.0,0.0,0.0,2.5322,2.6206,2.7065,2.7758,2.8976,2.9736,2.9515,0.0,0.0,0.0,0.0,0.0,0.0,0.0,2.8954,2.7423,2.6729,2.5856,2.4367,2.4964,2.5658,2.5658,0.0,0.0,2.4237,2.3778,2.3553,2.3406,2.3249,2.3089,2.31,2.267,2.2422,0.0,0.0,0.0,0.0,0.0,0.0,0.0,0.0,3.0319,3.0332,0.0,2.9878,0.0,0.0,0.0,0.0,0.0,3.1356,0.0,0.0,3.4405,3.5182,3.5302,3.5739,3.601,3.5924,3.4441,3.3457,3.279,3.0116,0.0,0.0,0.0,0.0,0.0,0.0,2.8921,2.9623,3.148,3.2452,3.2482,3.3125,3.3155,3.2467,3.1067,2.9945,2.9098,2.7364,2.6078,2.543,2.41,0.0,0.0,0.0,0.0,0.0,0.0,0.0,0.0,0.0,0.0,0.0,0.0,0.0,0.0,0.0,0.0,0.0,0.0,0.0,0.0,2.3058,0.0,0.0,0.0,0.0,0.0,0.0,0.0,0.0,0.0,0.0,2.6441,2.6989,2.7726,2.8718,0.0,0.0,0.0,0.0,2.9578,2.907,2.9453,2.9616,2.907,2.9822,2.9694,2.7365,0.0,0.0,2.4922,2.4921,2.5263,2.5242,2.5284,2.5501,2.6364,2.5531,2.4886,2.4812,2.3854,2.3161,2.3396,2.2809,2.2228,3.6441,0.0,0.0,0.0,0.0,3.2985,3.3265,3.3647,3.3183,3.3041,3.308,3.1949,0.0,0.0,0.0,0.0,0.0,0.0,3.3225,3.4329,3.5296,3.622,3.7134,3.6899,3.679,3.6748,3.5811,3.505,3.4415,3.2582,3.0582,2.8488,0.0,0.0,0.0,0.0,2.8921,2.9651,3.1046,3.178,3.1809,3.2437,3.2467,3.1809,3.0914,3.014,2.9472,2.8477,2.7173,2.5549,2.518,0.0,0.0,0.0,0.0,0.0,0.0,0.0,0.0,0.0,0.0,0.0,0.0,0.0,0.0,0.0,0.0,0.0,0.0,0.0,2.1981,2.1943,2.1938,0.0,0.0,0.0,0.0,0.0,0.0,0.0,0.0,0.0,2.7139,2.7621,2.7984,0.0,0.0,2.9095,2.8913,2.9057,2.9233,2.9515,2.9691,0.0,2.9566,2.9459,2.9077,2.8193,2.7421,2.6606,2.565,2.5606,2.5689,2.5689,2.5721,2.5804,2.5968,2.5582,2.5133,2.5048,2.4513,2.4085,2.4143,2.3675,2.3372,3.8791,3.6028,3.5431,3.487,3.4435,3.4559,3.482,3.5123,3.4854,3.4804,3.4847,3.3786,3.3215,3.2992,3.2584,0.0,0.0,0.0,3.4781,3.6133,3.6845,3.7607,3.8292,3.8304,3.8284,3.8242,3.7265,3.6629,3.6304,3.4273,3.2349,3.0464,0.0,0.0,2.8436,2.9024,2.9549,2.9982,3.0972,3.1496,3.1511,3.1615,3.151,3.1107,3.0492,2.9728,2.8843,2.8156,2.7102,2.5616,2.556,2.4924,0.0,0.0,0.0,0.0,0.0,0.0,0.0,0.0,0.0,0.0,0.0,2.0638,2.0067,0.0,0.0,0.0,2.2195,2.2282,2.1711,2.1891,0.0,0.0,0.0,0.0,0.0,0.0,0.0,2.5333,2.5922,2.6663,2.7554,2.7855,2.8102,2.8489,2.8372,2.8417,2.8856,0.0,2.8781,2.9365,2.9654,2.9779,2.9779,2.9503,2.8962,2.8072,2.7148,2.6314,2.5722,2.5616,2.5678,2.5835,2.574,2.5678,2.5866,2.5523,2.5273,2.5418,2.5026,2.4709,2.4748,2.4472,2.4299,4.0523,3.891,3.8057,3.6911,3.5716,3.6066,3.6082,3.5846,3.5752,3.5894,3.6175,3.5359,3.5169,3.5414,3.4243,0.0,3.588,3.5751,3.6507,3.8012,3.8684,3.9034,3.9136,3.9791,4.0113,4.0049,3.8803,3.8179,3.803,3.5455,3.3767,3.294,3.102,2.9884,2.9665,3.0207,3.0478,3.0493,3.1152,3.1466,3.1406,3.0822,3.0477,3.0417,2.9892,2.8964,2.7647,2.7031,2.636,2.5663,2.5527,2.5274,2.4803,0.0,0.0,0.0,0.0,0.0,0.0,0.0,0.0,0.0,0.0,0.0,0.0,0.0,0.0,2.2043,2.2401,0.0,2.1818,2.2359,0.0,0.0,0.0,2.3598,2.3004,2.441,2.5627,2.6143,0.0,0.0,2.7695,2.7772,2.8099,2.8989,2.8071,2.7724,2.8725,2.8404,2.8247,2.8769,2.9302,2.9641,2.9541,2.9528,2.8977,2.7427,2.6773,2.6236,2.5428,2.5198,2.5385,2.5576,2.5387,2.5201,2.5606,2.5254,2.5233,2.5514,2.518,2.4874,2.4992,2.4881,2.4783,4.2271,4.0697,4.0463,3.9073,3.7104,3.778,3.8358,3.8755,3.7757,3.7725,3.8258,3.6506,3.5652,3.5459,3.4857,3.5354,3.6639,3.6616,3.7378,3.8713,3.8916,3.9305,3.9859,4.0015,4.0113,4.0083,3.9758,3.9075,3.8105,3.6916,3.545,3.3756,3.2631,3.1263,2.9693,3.0193,3.0478,3.0493,3.1166,3.1271,3.0747,3.0582,3.0283,2.9832,2.9681,2.8978,2.766,2.7465,2.6809,2.5689,2.6054,2.6024,2.5414,2.4819,0.0,0.0,0.0,0.0,0.0,0.0,0.0,0.0,0.0,2.1489,2.0951,0.0,2.2077,0.0,2.1681,2.1244,2.0668,2.154,0.0,0.0,2.3717,2.4741,2.4324,2.5643,2.6482,2.6237,2.6815,2.7282,2.7399,2.7412,2.7653,2.8249,2.795,2.7863,2.8417,2.8057,2.7862,2.8246,2.8448,2.8499,2.8536,2.8499,2.8157,2.7052,2.6806,2.6368,2.5239,2.5025,2.4922,2.4513,2.456,2.4446,2.3981,2.4012,2.4105,2.3939,2.4122,2.4378,2.4427,2.4611,2.4818,4.2071,4.0847,4.1217,4.0302,3.864,3.9091,3.9307,3.9316,3.8938,3.8857,3.8832,3.7529,3.7032,3.7115,3.615,3.6642,3.8207,3.7661,3.8143,3.9457,3.9491,3.9723,4.0096,4.0113,4.0113,4.0096,3.9762,3.9223,3.8451,3.722,3.5969,3.474,3.3503,3.2241,3.0985,3.0931,3.0957,3.0942,3.1301,3.1181,3.0537,3.0238,2.9803,2.9174,2.8859,2.8094,2.6764,2.6719,2.609,2.4822,2.5349,2.5555,2.5173,2.4765,2.4055,0.0,0.0,0.0,0.0,0.0,0.0,0.0,0.0,0.0,0.0,0.0,2.2116,2.2117,2.2064,2.1806,2.1237,2.2001,2.2469,2.2317,2.4011,2.498,2.4472,2.5625,2.6352,2.6058,2.6388,2.6632,2.6632,2.6648,2.6736,2.7044,2.6987,2.731,2.8232,2.8025,2.782,2.8167,2.8231,2.8182,2.8128,2.7773,2.736,2.6888,2.6463,2.5862,2.4897,2.4681,2.4441,2.3783,2.3774,2.3774,2.3298,2.3391,2.3484,2.335,2.3505,2.374,2.3881,2.4767,2.5547,4.1249,4.0311,4.1256,4.1024,4.0007,4.0125,3.9784,3.9203,3.979,3.9662,3.8978,3.8477,3.8707,3.9343,3.7822,3.8146,3.9837,3.878,3.8908,4.0014,4.0087,4.0113,4.0113,4.0113,4.0113,4.0079,3.944,3.9102,3.8954,3.713,3.6062,3.5659,3.4053,3.3013,3.2614,3.1965,3.1582,3.1496,3.1496,3.1137,3.0402,2.9877,2.9249,2.8502,2.7902,2.6958,2.5674,2.56,2.502,2.3834,2.4291,2.4623,2.4724,2.4638,2.4156,0.0,2.2436,0.0,0.0,0.0,0.0,0.0,0.0,0.0,0.0,2.2048,2.2401,2.2401,2.2819,2.291,2.244,2.2949,2.3131,2.2739,2.4086,2.4885,2.4424,2.5192,2.5795,2.5795,2.5795,2.5795,2.5832,2.5795,2.5793,2.5897,2.6041,2.6577,2.7807,2.7725,2.7549,2.8119,2.8192,2.7981,2.7814,2.725,2.6784,2.6666,2.6071,2.5233,2.4542,2.4279,2.3976,2.3312,2.3184,2.3163,2.3049,2.3059,2.313,2.3156,2.3249,2.3419,2.3743,2.5085,2.6343,4.2307,4.0535,4.1939,4.1608,4.0143,4.0771,4.1275,4.1589,4.1085,4.0773,4.0565,3.953,3.954,4.0202,3.9592,3.9386,3.9597,3.9628,3.9652,3.9724,3.9982,4.0113,4.0113,4.0113,4.0113,4.0083,3.996,3.9576,3.8983,3.8012,3.7002,3.5943,3.4833,3.3786,3.2801,0.0,0.0,0.0,3.1496,3.0942,2.9819,2.9653,2.9009,2.7839,2.7675,0.0,2.5689,2.56,2.5229,2.447,2.4545,0.0,0.0,0.0,0.0,0.0,0.0,0.0,0.0,0.0,0.0,0.0,2.1185,2.1485,2.1511,2.206,2.2401,2.2401,2.248,2.2505,2.2413,2.3354,2.3902,2.3849,2.4894,2.56,2.5493,2.5665,2.5795,2.5795,2.578,2.5767,2.5741,2.5795,2.5767,2.5782,2.6216,2.6435,2.6362,2.6233,2.6332,2.705,2.7193,2.7051,2.6974,2.6744,2.6574,2.6457,2.5885,2.5244,2.4736,2.4212,2.3599,2.2862,2.2925,2.2944,2.2261,2.2386,2.2786,2.2972,2.3351,2.3721,2.4095,2.5274,2.6354,4.2463,0.0,4.2285,4.2024,0.0,4.1611,4.1867,4.1701,4.0871,4.0506,4.0453,3.9859,4.0259,4.1328,4.0546,4.025,4.0366,3.996,3.9691,3.9623,3.9766,3.9946,4.0113,4.0113,4.0113,4.0096,3.9711,3.9389,3.8983,3.8278,3.7398,3.6386,3.6024,3.5107,3.3713,3.3026,3.2299,3.1496,3.1496,3.1031,3.0087,2.9743,2.9114,2.8126,2.7779,0.0,0.0,0.0,0.0,0.0,0.0,0.0,0.0,0.0,0.0,2.3978,2.3684,2.3224,2.2546,2.2571,2.2428,2.2014,2.223,2.226,2.1969,2.2452,2.2791,2.2792,2.3041,2.3251,2.3249,2.3771,2.4111,2.4137,2.462,2.4973,2.4944,2.496,2.4944,2.496,2.4944,2.4973,2.496,2.4973,2.509,2.5354,2.5644,2.5866,2.5858,2.6212,2.6615,2.6721,2.682,2.6727,2.6497,2.6527,2.644,2.6134,2.596,2.5497,2.4599,2.4473,2.4245,2.352,2.3479,2.337,2.2676,2.2878,2.3102,2.2665,2.3221,2.3918,2.4227,2.5333,2.645,4.2471,4.1702,4.263,4.251,4.1752,4.2356,4.1973,4.0914,0.0,0.0,0.0,3.9963,4.0781,4.2187,4.1101,4.0845,4.1166,4.0243,3.9781,3.9683,3.9859,4.0034,4.0217,4.0234,4.0184,4.0066,3.9491,3.9186,3.9153,3.8193,3.741,3.6834,3.6695,3.5971,3.4622,3.3508,3.2614,3.1894,3.1683,3.1252,3.0592,2.9991,2.9359,2.8685,2.8023,2.7412,2.6862,2.6735,2.6196,2.5242,2.5591,2.5398,2.4438,2.4884,2.493,2.4429,2.4792,2.4671,2.3853,2.4207,2.4178,2.3495,2.343,2.3231,2.2749,2.3102,2.3417,2.3508,2.397,2.4258,2.4272,2.4272,2.4258,2.4259,2.4245,2.4256,2.4185,2.4185,2.4223,2.4112,2.4163,2.4111,2.415,2.4163,2.432,2.4861,2.507,2.5251,2.5903,2.6681,2.7039,2.6615,2.6815,2.6878,2.6524,2.651,2.6436,2.6005,2.6082,2.5721,2.4642,2.4636,2.4719,2.3886,2.3986,2.3754,2.3224,2.3526,2.3628,2.2438,2.3309,2.4355,2.4616,2.5536,2.6513,4.2965,4.1746,4.3188,4.3327,4.2537,4.2577,4.1628,4.0089,3.9953,4.0304,4.0883,4.0212,4.0789,4.2249,4.1402,4.1008,4.1044,4.1059,4.0664,3.9993,4.0845,4.1046,4.0707,4.0695,4.0483,4.0121,3.9994,3.9943,3.9728,3.7934,3.6885,3.6648,3.5515,3.4777,3.4571,3.3862,3.343,3.3284,3.241,3.1607,3.0926,3.0288,2.9637,2.8972,2.8291,2.7649,2.6991,2.6949,2.6611,2.5891,2.5936,2.588,2.5735,2.5823,2.5823,2.5713,2.544,2.5023,2.45,2.418,2.3992,2.3987,2.4001,2.3933,2.3865,2.3919,2.4176,2.4661,2.4794,2.4878,2.4863,2.4849,2.4834,2.4849,2.4863,2.4764,2.4493,2.4451,2.4363,2.4171,2.4111,2.4112,2.4127,2.4138,2.4374,2.4861,2.5149,2.5411,2.6271,2.669,2.6765,2.6733,2.6992,2.7178,2.7011,2.6871,2.6675,2.6564,2.5943,2.5341,2.4391,2.442,2.4294,2.3386,2.3913,2.3895,2.3268,2.3596,2.3938,2.372,2.442,2.5282,2.5786,2.6124,2.6329,4.3559,4.302,4.3689,4.3505,4.2659,4.2079,4.1343,4.0561,4.0543,4.0736,4.1103,4.1167,4.1607,4.2231,4.1911,4.1227,4.0341,4.037,4.0023,3.9402,3.9753,3.9923,3.9899,4.0072,4.0046,3.9853,4.0022,3.988,3.9423,3.8459,3.7364,3.6163,3.503,3.474,3.5135,3.4571,3.4078,3.3713,3.2868,3.2285,3.1961,3.0699,2.9856,2.9538,2.8553,2.7905,2.7655,2.7598,2.7287,2.6772,2.7058,2.6882,2.6252,2.6543,2.6585,2.621,2.6343,2.6231,2.578,2.5668,2.5475,2.5119,2.5268,2.5295,2.5093,2.4778,2.4693,2.4964,2.4991,2.4991,2.4991,2.4991,2.4991,2.4991,2.4991,2.4934,2.4807,2.4751,2.4722,2.4606,2.4434,2.4305,2.4333,2.4491,2.4792,2.5328,2.567,2.6143,2.6614,2.6428,2.6334,2.6638,2.6847,2.6928,2.6977,2.7037,2.6807,2.6316,2.6139,2.5674,2.5004,2.504,2.5211,2.4998,2.5182,2.5058,2.4389,2.488,2.4975,2.4319,2.5164,2.5903,2.5938,2.5933,2.616,4.3997,4.3997,4.3981,4.3566,4.2844,4.2062,4.1607,4.1397,4.1562,4.1544,4.1452,4.1837,4.2021,4.2021,4.2047,4.1209,3.9965,4.0039,3.982,3.9274,3.9279,3.9483,3.975,3.9743,3.972,3.9813,3.9788,3.9416,3.8763,3.8244,3.7026,3.5256,3.4692,3.4897,3.566,3.5205,3.4721,3.4186,3.3572,3.3116,3.2848,3.118,3.023,3.0009,2.8791,2.814,2.8238,2.814,2.796,2.7664,2.802,2.7823,2.6938,2.7334,2.7369,2.6896,2.7307,2.7418,2.7007,2.7017,2.6837,2.6245,2.6378,2.6404,2.6177,2.566,2.53,2.523,2.523,2.5216,2.523,2.5216,2.5202,2.5202,2.5202,2.5188,2.5131,2.5117,2.5047,2.4907,2.4679,2.4519,2.4632,2.484,2.5188,2.5691,2.6412,2.6834,2.6677,2.6269,2.6269,2.6651,2.6781,2.6808,2.686,2.7087,2.6947,2.6217,2.6479,2.622,2.5721,2.5995,2.6285,2.6129,2.628,2.6008,2.5523,2.5903,2.5786,2.4868,2.5511,2.6228,2.5746,2.5776,2.5956,4.3997,4.3989,4.3945,4.3763,4.3448,4.3349,4.2849,4.2268,4.291,4.2845,4.2084,4.1507,4.1224,4.1205,4.1232,4.0677,3.9884,4.1153,4.1231,4.0535,4.1135,4.1576,4.1558,4.0435,4.0081,4.0424,3.9371,3.8567,3.7868,3.5972,3.4516,3.3768,3.4201,3.489,3.5509,3.5543,3.5481,3.5424,3.4892,3.4144,3.3143,3.1792,3.0851,3.0358,2.9085,2.836,2.8375,2.8375,2.8356,2.8307,2.8353,2.831,2.8227,2.8273,2.8273,2.8169,2.8258,2.8119,2.771,2.731,2.7084,2.698,2.6695,2.6669,2.6903,2.659,2.6204,2.5962,2.5853,2.584,2.5825,2.5812,2.5826,2.5868,2.5784,2.5715,2.5495,2.5439,2.5229,2.4595,2.4675,2.4621,2.5003,2.5133,2.5293,2.5835,2.6736,2.7183,2.6768,2.6611,2.6713,2.7128,2.704,2.6951,2.7229,2.7321,2.7235,2.7087,2.7015,2.6594,2.6104,2.6139,2.6474,2.606,2.6094,2.6176,2.5851,2.5891,2.6181,2.5594,2.5868,2.6413,2.6154,2.598,2.5959,4.3974,4.3945,4.3913,4.3504,4.2916,4.2839,4.2366,4.1654,4.1919,4.1892,4.1599,4.1224,4.1113,4.1085,4.0608,3.9889,3.9105,3.9627,3.9672,3.9325,3.9539,3.995,4.0417,4.009,3.9962,4.0197,3.9743,3.8652,3.6856,3.485,3.3914,3.4066,3.4353,3.4878,3.556,3.5628,3.5628,3.5583,3.5373,3.4916,3.4068,3.2608,3.1499,3.082,2.9664,2.8784,2.8458,2.8411,2.8411,2.8411,2.8411,2.8411,2.8411,2.8411,2.8411,2.8411,2.8411,2.8226,2.7828,2.7838,2.766,2.7148,2.7229,2.724,2.7126,2.7347,2.7422,2.7262,2.6991,2.68,2.6828,2.6594,2.6538,2.6703,2.6296,2.5866,2.5757,2.5716,2.5703,2.5796,2.555,2.5504,2.5932,2.6038,2.6109,2.6389,2.7053,2.7258,2.6808,2.6706,2.6938,2.7298,2.7053,2.6961,2.7359,2.7469,2.7403,2.7319,2.7248,2.6884,2.6496,2.6427,2.6508,2.606,2.6297,2.6401,2.6159,2.6181,2.6366,2.6077,2.6112,2.6465,2.6379,2.6107,2.5945,4.3937,4.3857,4.3851,4.3383,4.268,4.2411,4.1966,4.1434,4.1213,4.1113,4.1085,4.0875,4.0757,4.0704,4.0345,3.959,3.8616,3.8846,3.8856,3.8611,3.8552,3.9079,3.9931,3.9751,3.9858,4.0069,3.9911,3.8373,3.5808,3.4339,3.3799,3.42,3.459,3.5081,3.556,3.5628,3.5628,3.5628,3.5628,3.5413,3.4885,3.3644,3.2434,3.14,3.0244,2.9295,2.8616,2.8481,2.8411,2.8411,2.8456,2.8456,2.8411,2.8441,2.8456,2.8408,2.8411,2.8262,2.7977,2.8238,2.8125,2.7557,2.7715,2.7803,2.7821,2.8122,2.8439,2.8621,2.8444,2.8311,2.7913,2.7271,2.7017,2.7363,2.6547,2.5921,2.5893,2.6019,2.6287,2.6595,2.6301,2.6274,2.667,2.6807,2.6896,2.6961,2.7249,2.7402,2.7027,2.6935,2.7092,2.7441,2.7157,2.7131,2.7411,2.7486,2.7436,2.7403,2.7352,2.7235,2.6914,2.6846,2.6726,2.6422,2.6504,2.6469,2.6349,2.6435,2.6487,2.6487,2.6487,2.6487,2.6469,2.6141,2.5945,4.3867,4.374,4.3649,4.3444,4.3349,4.2551,4.2231,4.1937,4.1342,4.104,4.0893,4.0267,3.9907,3.9908,4.042,3.9977,3.8727,3.9802,3.9953,3.9268,3.9269,4.013,4.1433,4.0157,3.9923,4.0526,3.9414,3.7256,3.435,3.4029,3.3789,3.3539,3.4781,3.552,3.5549,3.5583,3.5628,3.5628,3.5611,3.5571,3.5492,3.4948,3.3745,3.2103,3.0795,2.986,2.9158,2.8657,2.8448,2.8436,2.8609,2.8605,2.8456,2.8581,2.8593,2.8444,2.8411,2.8399,2.8372,2.8411,2.836,2.829,2.805,2.824,2.8971,2.9013,2.9205,2.9659,3.0124,3.005,2.9254,2.8036,2.7328,2.7588,2.6673,2.6116,2.6019,2.6539,2.6609,2.6632,2.6751,2.6843,2.6807,2.7177,2.7363,2.7398,2.7477,2.7451,2.7428,2.7415,2.7454,2.7451,2.7451,2.7464,2.7503,2.7503,2.7503,2.7469,2.7436,2.7436,2.7285,2.7117,2.6914,2.6726,2.6589,2.6504,2.6487,2.6487,2.6487,2.6487,2.6487,2.6487,2.6663,2.6203,2.611,4.2686,4.2138,4.2049,4.1991,4.1882,4.1111,4.0789,4.0689,3.9929,3.9562,3.9499,3.9166,3.8999,3.8996,3.9175,3.8935,3.8465,3.946,3.9455,3.8762,3.916,3.9713,4.0085,3.9623,3.9552,3.9734,3.8878,3.6862,3.4253,3.3745,3.3427,3.3372,3.4541,3.5166,3.5023,3.5363,3.5628,3.5622,3.5667,3.5739,3.5728,3.5627,3.4981,3.3817,3.2166,3.0974,3.0322,2.9507,2.9085,2.9166,2.9048,2.8924,2.883,2.8748,2.876,2.8822,2.8692,2.8593,2.8609,2.8593,2.8525,2.8427,2.8688,2.8945,2.9426,3.0022,3.0584,3.0807,3.111,3.1196,3.1026,2.983,2.9111,2.933,2.8374,2.7511,2.7526,2.7513,2.7536,2.7794,2.7927,2.7869,2.7585,2.7551,2.749,2.7503,2.7503,2.7503,2.7503,2.7503,2.7503,2.7503,2.7503,2.7503,2.7503,2.7503,2.7503,2.7503,2.7486,2.7419,2.7302,2.7117,2.6914,2.676,2.6624,2.6504,2.6499,2.6675,2.6637,2.6499,2.6499,2.6834,2.6934,2.6613,2.6646,4.1735,4.1211,4.1128,4.1113,4.1003,4.023,3.989,3.9798,3.9056,3.8684,3.8624,3.8551,3.8478,3.8433,3.833,3.8282,3.8356,3.9092,3.9157,3.8698,3.9387,3.9767,3.9767,3.9749,3.9631,3.9215,3.8011,3.6327,3.4559,3.3863,3.3432,3.3171,3.431,3.4934,3.4953,3.5301,3.5577,3.5759,3.5855,3.585,3.5828,3.5921,3.5775,3.5104,3.369,3.233,3.1353,3.0217,2.9602,2.9585,2.9477,2.9335,2.9225,2.8967,2.8865,2.8936,2.8795,2.8665,2.8605,2.8593,2.8549,2.8439,2.9015,2.9476,2.9753,3.0751,3.1395,3.1682,3.1841,3.2076,3.2112,3.1413,3.0789,3.0535,2.9468,2.861,2.834,2.831,2.8457,2.866,2.8597,2.8436,2.8145,2.7739,2.7553,2.7503,2.7503,2.7503,2.7503,2.7503,2.7503,2.7503,2.7503,2.7503,2.7503,2.7503,2.7503,2.7503,2.7503,2.7436,2.7335,2.7146,2.696,2.6811,2.6688,2.6538,2.66,2.6813,2.6788,2.6637,2.6947,2.7374,2.7281,2.7109,2.7151,4.1067,4.0956,4.1085,4.0967,4.0883,4.0128,3.9853,3.9761,3.9103,3.8708,3.8562,3.8549,3.8526,3.834,3.839,3.833,3.8497,3.926,3.9459,3.9251,4.003,4.0311,4.0193,4.0121,3.9749,3.907,3.6989,3.5732,3.5137,3.4402,3.3825,3.3609,3.4124,3.4778,3.556,3.5268,3.5538,3.5893,3.5889,3.5857,3.5839,3.592,3.5996,3.5865,3.5079,3.3789,3.2029,3.0832,3.0081,2.9761,2.9854,2.9832,2.952,2.9225,2.8982,2.883,2.8748,2.8593,2.8441,2.8444,2.8472,2.8611,2.9076,2.9756,3.0399,3.1087,3.1719,3.2167,3.2324,3.2398,3.2398,3.2267,3.1731,3.0401,2.9757,2.9041,2.8512,2.8797,2.9309,2.9126,2.8844,2.8474,2.8131,2.7769,2.7536,2.7503,2.7503,2.7503,2.7503,2.7503,2.7503,2.7503,2.7503,2.7503,2.7503,2.7503,2.7503,2.7503,2.7503,2.7469,2.7386,2.7218,2.7045,2.6888,2.6868,2.6755,2.709,2.7248,2.7286,2.7248,2.7607,2.7797,2.7727,2.7624,2.7613,3.9947,3.947,3.9452,3.979,4.0139,3.9405,3.9368,3.9863,3.9499,3.9038,3.8669,3.8976,3.8876,3.8543,3.8812,3.9033,3.9142,4.0293,4.0148,3.907,3.994,3.9994,3.917,3.8971,3.8508,3.7774,3.7023,3.626,3.5586,3.4807,3.4189,3.3945,3.4047,3.4111,3.4257,3.4339,3.4604,3.4782,3.5153,3.5296,3.5315,3.5884,3.6206,3.6085,3.5002,3.4003,3.3392,3.2249,3.1251,3.0472,3.0282,3.0081,2.9754,2.9339,2.9156,2.9209,2.8885,2.8685,2.8617,2.8624,2.8742,2.9098,2.9679,3.0368,3.1043,3.1688,3.2134,3.2396,3.2411,3.2411,3.2411,3.2411,3.2152,3.1717,3.0929,3.0322,2.9856,2.9642,2.9518,2.9406,2.8956,2.8587,2.836,2.7951,2.7553,2.7503,2.7503,2.7503,2.7503,2.7503,2.7503,2.7503,2.7503,2.7503,2.7503,2.7529,2.7555,2.7568,2.7568,2.76,2.7503,2.7364,2.7182,2.7139,2.7091,2.7196,2.7517,2.7776,2.7876,2.779,2.7929,2.8056,2.817,2.8089,2.7927,3.9423,3.8718,3.8699,3.8975,3.9386,3.8834,3.9082,3.969,3.939,3.9232,3.9339,3.9421,3.9381,3.9238,3.9612,3.9786,3.9948,4.1153,4.0754,3.9496,4.0673,4.0655,3.9504,3.8852,3.8237,3.7502,3.7158,3.6751,3.6236,3.5468,3.4914,3.4694,3.4377,3.4331,3.4256,3.4182,3.4231,3.4562,3.4776,3.496,3.5231,3.5649,3.6008,3.6111,3.5387,3.4663,3.4135,3.3347,3.2363,3.1183,3.0553,3.0193,2.993,2.952,2.9248,2.9117,2.892,2.8673,2.8605,2.8573,2.8831,2.9378,3.0002,3.0676,3.1349,3.2026,3.2396,3.2411,3.2411,3.2411,3.2411,3.2411,3.2411,3.2382,3.1862,3.1378,3.0984,2.9959,2.9468,2.938,2.9131,2.8796,2.8506,2.8148,2.7669,2.757,2.7503,2.7503,2.7503,2.7503,2.7503,2.7503,2.7503,2.7503,2.7503,2.7542,2.7607,2.7646,2.7673,2.7722,2.7703,2.7593,2.7425,2.7695,2.7724,2.7794,2.8059,2.8592,2.88,2.8606,2.8269,2.8337,2.8415,2.812,2.8044,3.9533,3.8846,3.8781,3.8846,3.8867,3.8596,3.8912,3.941,3.9017,3.9399,4.015,3.9998,3.9982,4.0365,4.0483,4.0564,4.0709,4.1442,4.1515,4.1198,4.194,4.2049,4.0881,3.974,3.8834,3.8092,3.744,3.7132,3.7031,3.6272,3.5866,3.5754,3.5005,3.4994,3.5262,3.4721,3.4419,3.4952,3.4765,3.4806,3.5221,3.5372,3.5556,3.6139,3.6008,3.5439,3.4438,3.3899,3.3014,3.147,3.0676,3.0257,3.0006,2.9677,2.925,2.8826,2.8697,2.8585,2.8456,2.8444,2.8778,2.9507,3.0079,3.0722,3.1474,3.2088,3.2411,3.2411,3.2411,3.2411,3.2411,3.2411,3.2411,3.2382,3.2188,3.178,3.0984,2.9701,2.935,2.9473,2.9289,2.894,2.8603,2.8259,2.7852,2.762,2.7503,2.7503,2.7503,2.7503,2.7503,2.7529,2.7581,2.7755,2.7833,2.8146,2.8225,2.826,2.8217,2.8148,2.8084,2.794,2.7903,2.8153,2.8334,2.8411,2.8662,2.9151,2.9227,2.8869,2.8718,2.8723,2.856,2.8313,2.7913,4.0655,4.0406,3.9827,3.9549,3.9393,3.8802,3.8598,3.8889,3.9746,3.9914,4.0089,4.0781,4.0809,4.0601,4.1153,4.1379,4.156,4.2176,4.252,4.2357,4.262,4.1732,4.0311,3.9649,3.8997,3.8255,3.7929,3.7901,3.782,3.7059,3.6697,3.6624,3.5403,3.5041,3.5496,3.4282,3.3882,3.4433,3.4339,3.4067,3.4177,3.5062,3.5514,3.5459,3.5473,3.5294,3.4793,3.38,3.2666,3.1431,3.0851,3.0399,3.0022,2.9672,2.9246,2.8795,2.8585,2.8484,2.842,2.8411,2.8935,2.9984,3.0279,3.0892,3.2028,3.2304,3.2411,3.2411,3.2411,3.2411,3.2411,3.2411,3.2411,3.2356,3.2162,3.161,3.0733,3.0196,2.9849,2.9605,2.9099,2.8764,2.8522,2.8115,2.7686,2.7553,2.7503,2.7503,2.7503,2.7503,2.7503,2.7689,2.7807,2.8046,2.8294,2.866,2.8882,2.8952,2.8907,2.8774,2.8645,2.8475,2.8502,2.8655,2.8756,2.8844,2.9195,2.9641,2.939,2.8943,2.8514,2.8254,2.8586,2.8529,2.7788,4.1397,4.1058,4.0539,4.0113,3.9792,3.9508,3.9395,3.9455,3.987,4.0562,4.0862,4.1017,4.1307,4.156,4.2004,4.2203,4.2285,4.2674,4.2873,4.2892,4.2892,4.1787,4.0293,3.9849,3.9297,3.8291,3.8218,3.82,3.811,3.772,3.752,3.7303,3.6252,3.5737,3.5732,3.4568,3.3804,3.3989,3.3823,3.3635,3.374,3.4302,3.4687,3.4701,3.4724,3.4638,3.4138,3.3068,3.2129,3.1561,3.1157,3.0689,3.0113,2.9897,2.9411,2.8712,2.8645,2.8621,2.8432,2.8411,2.9042,3.0076,3.0402,3.1092,3.2044,3.2411,3.2411,3.2411,3.2411,3.2411,3.2411,3.2411,3.2411,3.237,3.2148,3.158,3.0688,3.0158,2.9884,2.9537,2.9162,2.8732,2.8603,2.8082,2.7736,2.7553,2.7503,2.7503,2.7503,2.7533,2.7676,2.7951,2.819,2.8438,2.8743,2.9096,2.9378,2.949,2.9536,2.9403,2.9107,2.8949,2.9081,2.9158,2.9227,2.9282,2.9488,2.9507,2.9071,2.8577,2.8079,2.7738,2.7919,2.7701,2.7088,4.1947,4.1224,4.1086,4.0587,4.0052,4.0365,4.0323,4.0343,3.9747,4.0491,4.1606,4.0972,4.1225,4.2638,4.2339,4.271,4.2692,4.2783,4.2892,4.291,4.2783,4.1968,4.0555,4.0573,3.9686,3.849,3.8255,3.8299,3.8218,3.8154,3.8164,3.7874,3.7267,3.6747,3.6263,3.5325,3.4546,3.4174,3.3843,3.363,3.3683,3.3749,3.3884,3.3926,3.4147,3.3741,3.3104,3.2339,3.189,3.1763,3.1475,3.0928,3.0318,3.0282,2.975,2.8901,2.8842,2.8744,2.8549,2.8499,2.8969,3.0094,3.0402,3.0984,3.2057,3.2411,3.2411,3.2411,3.2411,3.2411,3.2411,3.2411,3.2411,3.2398,3.237,3.195,3.1086,3.0133,2.9588,2.9552,2.9291,2.8908,2.8587,2.8259,2.7898,2.7536,2.7529,2.7624,2.7702,2.782,2.8111,2.8494,2.8691,2.8874,2.9188,2.9514,2.9777,2.9978,3.0067,2.9957,2.9529,2.9404,2.9611,2.9691,2.9566,2.9387,2.9279,2.9099,2.8641,2.7971,2.7273,2.6905,2.6637,2.6117,2.5536,4.279,4.2057,4.1956,4.1404,4.0561,4.0003,3.9772,3.9712,3.9513,3.9776,4.0166,4.0356,4.0718,4.1117,4.1768,4.1967,4.2185,4.262,4.291,4.291,4.291,4.1986,4.0954,4.108,4.0175,3.8816,3.8852,3.878,3.8372,3.82,3.82,3.8092,3.7557,3.7212,3.7382,3.6233,3.5622,3.5377,3.4823,3.3961,3.3393,3.3581,3.3521,3.3212,3.3509,3.3401,3.2833,3.2515,3.2146,3.1726,3.1479,3.1157,3.0635,3.0198,2.9804,2.942,2.8842,2.8689,2.8815,2.8686,2.8956,3.0171,3.0448,3.0968,3.2227,3.2411,3.2411,3.2411,3.2411,3.2411,3.2411,3.2411,3.2411,3.2411,3.2384,3.2034,3.1204,3.0778,3.0319,2.975,2.9117,2.8587,2.8259,2.7901,2.7653,2.752,2.7624,2.7758,2.7968,2.8177,2.8556,2.9004,2.9261,2.9483,2.9797,3.004,3.0189,3.0156,3.0163,3.0056,2.9604,2.9432,2.9452,2.9624,2.9767,2.9475,2.889,2.8522,2.8031,2.7252,2.6492,2.6138,2.5678,2.4912,2.4263,4.3207,4.2815,4.2693,4.213,4.1313,4.0734,4.0292,3.9876,3.9514,3.9613,3.984,4.003,4.0356,4.1053,4.1524,4.1886,4.2275,4.2656,4.291,4.291,4.2873,4.223,4.1388,4.1225,4.0501,3.8617,3.8581,3.8526,3.8291,3.8218,3.82,3.82,3.7738,3.7512,3.7611,3.6828,3.6259,3.5775,3.5191,3.4354,3.3737,3.3318,3.2976,3.2364,3.251,3.2474,3.2088,3.2071,3.1883,3.1591,3.1433,3.1196,3.0767,3.0366,3.007,2.9694,2.9182,2.8838,2.8939,2.8766,2.8984,3.0279,3.0402,3.1168,3.1997,3.2411,3.2411,3.2411,3.2411,3.2411,3.2411,3.2411,3.2411,3.2411,3.2427,3.202,3.1291,3.0896,3.0418,2.9605,2.8798,2.8409,2.803,2.7768,2.7818,2.7872,2.8046,2.819,2.8621,2.8874,2.9144,2.9523,2.9831,3.0119,3.0432,3.0609,3.0608,3.0328,2.991,2.9632,2.9201,2.9116,2.9106,2.917,2.9138,2.8621,2.8079,2.7738,2.7261,2.6492,2.5838,2.5418,2.4818,2.4012,2.3369,4.3303,4.3203,4.3123,4.2632,4.1942,4.1724,4.1252,4.0628,3.9767,3.9677,4.0075,3.955,3.9894,4.1053,4.1379,4.1986,4.2692,4.2873,4.291,4.291,4.291,4.2375,4.1786,4.1433,4.0628,3.8572,3.8544,3.8472,3.8462,3.8263,3.8218,3.8191,3.8182,3.7892,3.7357,3.7158,3.6854,3.6217,3.5669,3.501,3.4449,3.3648,3.2844,3.2034,3.2105,3.1908,3.1711,3.1652,3.1621,3.1477,3.1443,3.1242,3.0948,3.059,3.0591,3.0131,2.9584,2.9154,2.9172,2.8974,2.9153,3.0309,3.0553,3.1122,3.2059,3.2411,3.2411,3.2411,3.2411,3.2411,3.2411,3.2411,3.2411,3.2442,3.2473,3.2154,3.1407,3.0822,3.0255,2.938,2.8711,2.8234,2.8107,2.7958,2.8114,2.8268,2.8442,2.8717,2.9161,2.9501,2.9745,3.0032,3.0328,3.0445,3.0738,3.0699,3.0766,3.0355,2.9806,2.9211,2.8831,2.8831,2.8752,2.8422,2.8211,2.7819,2.7302,2.676,2.6224,2.5609,2.4966,2.4347,2.372,2.3087,2.2567,4.284,4.2293,4.2859,4.2641,4.1951,4.176,4.1578,4.127,4.0021,3.946,3.9523,3.8816,3.9052,3.9894,4.0501,4.1506,4.262,4.291,4.291,4.291,4.2873,4.2484,4.1967,4.1687,4.0809,3.9631,3.9178,3.9178,3.8889,3.8581,3.8237,3.82,3.82,3.8037,3.7965,3.7955,3.7553,3.6956,3.6565,3.6055,3.5352,3.4594,3.3649,3.2579,3.2696,3.232,3.1683,3.1835,3.1893,3.1392,3.1815,3.2019,3.1904,3.1218,3.1116,3.1178,3.0214,2.9569,2.963,2.9485,2.9669,3.0294,3.0845,3.1488,3.2165,3.2411,3.2411,3.2411,3.2411,3.2411,3.2411,3.2411,3.2427,3.2535,3.2757,3.2714,3.1764,3.1126,3.0605,2.9772,2.8914,2.8103,2.8036,2.8095,2.835,2.8625,2.8952,2.9327,2.9836,3.0072,3.0241,3.0529,3.0843,3.0882,3.0966,3.0778,3.066,3.0222,2.9632,2.8799,2.8502,2.8554,2.8363,2.7528,2.7435,2.7516,2.6853,2.5943,2.5311,2.4776,2.4023,2.3283,2.2845,2.2441,2.1896,4.1676,4.1367,4.1633,4.1805,4.1706,4.1261,4.1325,4.1506,4.0483,3.9967,3.9749,3.9242,3.9496,4.032,4.041,4.1388,4.2556,4.291,4.291,4.291,4.2873,4.2755,4.223,4.194,4.1642,4.0999,4.0456,3.9514,3.8834,3.84,3.8291,3.82,3.82,3.82,3.82,3.8164,3.8008,3.7632,3.7269,3.684,3.6182,3.5376,3.4186,3.3663,3.3281,3.2791,3.2198,3.2486,3.2503,3.209,3.2469,3.2994,3.3016,3.2673,3.2085,3.2101,3.121,3.0417,3.0403,3.0287,3.0566,3.0854,3.1243,3.1703,3.2196,3.2411,3.2427,3.2427,3.2411,3.2411,3.2411,3.2444,3.2565,3.289,3.3189,3.2982,3.2363,3.1711,3.1051,3.0243,2.8906,2.8102,2.7902,2.8106,2.8499,2.8913,2.9384,2.9902,3.0432,3.0537,3.062,3.0751,3.0973,3.0968,3.0949,3.0761,3.0419,2.9973,2.9199,2.8371,2.779,2.7617,2.6823,2.5852,2.6133,2.6996,2.5938,2.4872,2.4409,2.3992,2.3484,2.293,2.2342,2.181,2.1362,4.067,4.0661,4.0555,4.0872,4.1307,4.099,4.1008,4.1252,4.0764,4.0338,4.0193,3.9731,4.0111,4.108,4.1334,4.1741,4.2892,4.291,4.291,4.291,4.291,4.2892,4.271,4.2411,4.2058,4.1904,4.1334,4.0085,3.946,3.8979,3.8744,3.8762,3.8635,3.8436,3.849,3.8327,3.8273,3.8009,3.7647,3.725,3.6764,3.582,3.4763,3.4306,3.398,3.3491,3.2706,3.3231,3.3197,3.2943,3.3203,3.3852,3.4303,3.4083,3.3508,3.2835,3.2398,3.1751,3.1301,3.1226,3.1324,3.1323,3.1516,3.1903,3.2196,3.2427,3.2459,3.2552,3.2628,3.277,3.2911,3.2819,3.3021,3.3317,3.3507,3.3425,3.2986,3.2395,3.1679,3.053,2.8918,2.8453,2.8547,2.8699,2.9209,2.947,2.9928,3.0273,3.0738,3.0817,3.0887,3.0927,3.0986,3.0968,3.0874,3.0691,3.0235,2.9645,2.8617,2.7545,2.6935,2.6462,2.5631,2.5094,2.5799,2.6357,2.5061,2.4043,2.3722,2.3381,2.3053,2.2564,2.1909,2.151,2.1155,4.051,4.0501,4.0483,4.0546,4.0754,4.1234,4.1171,4.0754,4.0664,4.0111,3.9822,3.9541,3.9948,4.0845,4.2122,4.2638,4.2855,4.291,4.291,4.291,4.291,4.291,4.291,4.2837,4.2357,4.2239,4.1768,4.1524,4.0899,4.0383,4.0121,3.9967,3.946,3.9215,3.9034,3.8635,3.8218,3.8191,3.8074,3.783,3.7417,3.6816,3.5997,3.5389,3.504,3.4562,3.3558,3.3931,3.3981,3.3491,3.3981,3.4387,3.4573,3.5103,3.4895,3.4166,3.3273,3.2373,3.1926,3.2025,3.1903,3.1769,3.1917,3.2242,3.2396,3.2521,3.2721,3.3244,3.3275,3.3446,3.3729,3.3886,3.3935,3.4044,3.4243,3.4122,3.3768,3.2916,3.221,3.1443,3.0041,2.9742,2.9706,2.9818,2.9975,3.0197,3.0432,3.0751,3.0953,3.0992,3.1005,3.1005,3.093,3.0892,3.0761,3.059,3.0011,2.9373,2.8199,2.6955,2.6359,2.5872,2.539,2.5147,2.5735,2.5634,2.4556,2.3753,2.3215,2.2866,2.2612,2.2066,2.1425,2.1121,2.0918,3.9188,3.9188,3.9206,3.9731,4.0501,4.0872,4.137,4.1714,4.137,4.1008,4.0646,4.0193,4.0465,4.1334,4.2429,4.2873,4.291,4.291,4.291,4.291,4.291,4.291,4.291,4.2892,4.2611,4.2466,4.2375,4.2375,4.2013,4.1189,4.0501,4.0519,4.0175,3.9749,3.9568,3.9088,3.8635,3.8363,3.8174,3.8088,3.7783,3.7265,3.6653,3.6133,3.5798,3.5017,3.4478,3.4698,3.4726,3.432,3.4726,3.5103,3.5171,3.5397,3.5391,3.5155,3.438,3.3486,3.2712,3.2948,3.2603,3.2181,3.2227,3.2381,3.2473,3.2796,3.3044,3.3336,3.3783,3.4124,3.4311,3.4252,3.4438,3.4607,3.4788,3.4862,3.4485,3.3491,3.2663,3.1943,3.1243,3.0768,3.0359,3.0236,3.021,3.0288,3.0542,3.0861,3.0979,3.0992,3.1005,3.1005,3.0892,3.0792,3.0628,3.0438,2.9761,2.9047,2.8031,2.6874,2.6038,2.5442,2.5009,2.465,2.4756,2.4441,2.3909,2.3577,2.3174,2.2702,2.2234,2.1793,2.1376,2.0916,2.0742,3.82,3.82,3.82,3.8997,4.0229,4.0401,4.1008,4.1859,4.1768,4.1451,4.1171,4.0863,4.1261,4.1967,4.2592,4.291,4.291,4.291,4.291,4.291,4.291,4.291,4.291,4.2892,4.2892,4.291,4.2801,4.2801,4.2475,4.1886,4.1279,4.1089,4.0972,4.0591,4.0048,3.9496,3.8961,3.8255,3.82,3.8115,3.7845,3.7255,3.69,3.6512,3.6024,3.5323,3.4968,3.5222,3.5188,3.5047,3.5205,3.5481,3.5543,3.556,3.5583,3.5391,3.4869,3.4199,3.3551,3.336,3.3229,3.2796,3.2612,3.2752,3.2782,3.3244,3.3859,3.4044,3.4414,3.4738,3.4833,3.4789,3.4897,3.5046,3.5071,3.5325,3.5216,3.3934,3.3041,3.2496,3.1788,3.109,3.0725,3.0542,3.0445,3.0432,3.0647,3.0953,3.1005,3.1005,3.1005,3.1005,3.0849,3.0717,3.0533,3.0196,2.9528,2.87,2.7678,2.6618,2.5631,2.5084,2.47,2.4395,2.4177,2.4177,2.4178,2.367,2.3174,2.2866,2.251,2.1935,2.1428,2.0957,2.0644,3.82,3.82,3.8218,3.8744,3.9613,4.0229,4.0211,4.0392,4.1279,4.0972,4.0274,4.0935,4.1949,4.2629,4.2801,4.291,4.291,4.291,4.291,4.291,4.291,4.291,4.291,4.291,4.291,4.291,4.291,4.291,4.2873,4.2656,4.2529,4.2656,4.1877,4.1632,4.1017,4.0103,3.9305,3.8653,3.8454,3.8103,3.773,3.7204,3.6751,3.6346,3.5926,3.5566,3.5498,3.5549,3.5549,3.5391,3.5515,3.56,3.5628,3.5628,3.5616,3.5367,3.4963,3.4333,3.384,3.3393,3.3,3.2786,3.2859,3.3229,3.3367,3.4013,3.4628,3.503,3.5199,3.5462,3.569,3.5853,3.5545,3.5403,3.529,3.5203,3.4945,3.3981,3.3185,3.2914,3.2245,3.1315,3.1005,3.0764,3.0712,3.0699,3.0712,3.1005,3.1005,3.1005,3.1005,3.0968,3.0792,3.0622,3.0438,2.9973,2.9353,2.841,2.7383,2.6163,2.4978,2.4625,2.4507,2.4466,2.4374,2.4394,2.4363,2.3939,2.3546,2.3237,2.2797,2.217,2.163,2.1155,2.0879,3.849,3.8925,3.8943,3.9369,4.0148,4.0908,4.137,4.1533,4.166,4.1424,4.0827,4.1461,4.2158,4.2729,4.291,4.291,4.291,4.291,4.291,4.291,4.291,4.291,4.291,4.291,4.291,4.291,4.291,4.291,4.291,4.291,4.291,4.2747,4.2502,4.2112,4.1461,4.0718,3.9976,3.955,3.9126,3.8698,3.8139,3.7317,3.6719,3.6311,3.5855,3.5633,3.5583,3.56,3.5628,3.5628,3.5628,3.5628,3.5588,3.5588,3.543,3.5131,3.4654,3.4115,3.3713,3.3366,3.3135,3.3152,3.329,3.3584,3.4,3.4706,3.5046,3.5385,3.5692,3.5935,3.5916,3.5879,3.569,3.5637,3.5491,3.5295,3.4656,3.3765,3.3034,3.2631,3.1937,3.1104,3.1005,3.0979,3.0966,3.0979,3.0992,3.1005,3.1005,3.0986,3.0986,3.0892,3.0704,3.0552,3.0368,2.9819,2.9197,2.8131,2.7058,2.5934,2.4839,2.4604,2.4507,2.4507,2.4507,2.4476,2.4373,2.4198,2.3908,2.3598,2.3043,2.2402,2.1868,2.14,2.1183,3.8671,3.9396,3.9641,4.0166,4.089,4.1469,4.2022,4.2429,4.2221,4.2058,4.204,4.2076,4.2339,4.2801,4.291,4.291,4.291,4.291,4.291,4.291,4.291,4.291,4.291,4.291,4.291,4.291,4.291,4.291,4.291,4.291,4.291,4.291,4.2873,4.2484,4.2076,4.1298,4.0764,4.0392,4.004,3.9409,3.8799,3.8113,3.7116,3.6655,3.618,3.5836,3.5712,3.5628,3.5628,3.5628,3.5628,3.5628,3.5554,3.5424,3.5166,3.4738,3.4185,3.3665,3.3543,3.3334,3.3413,3.3584,3.3927,3.425,3.4679,3.5247,3.5569,3.5538,3.5888,3.6069,3.5926,3.5799,3.5687,3.5573,3.5538,3.531,3.4524,3.3682,3.2932,3.2304,3.1598,3.1005,3.1005,3.1005,3.1005,3.1005,3.1005,3.1005,3.1005,3.0986,3.093,3.0817,3.0628,3.0463,3.026,2.9535,2.8752,2.7738,2.6709,2.5851,2.502,2.4722,2.4507,2.4507,2.4507,2.4507,2.4435,2.4311,2.4144,2.3926,2.3305,2.2681,2.2221,2.1789,2.1584,3.8689,3.946,4.0157,4.0917,4.1632,4.1687,4.1805,4.2076,4.252,4.2765,4.2747,4.2765,4.2783,4.291,4.291,4.291,4.291,4.291,4.291,4.291,4.291,4.291,4.291,4.291,4.291,4.291,4.291,4.291,4.291,4.291,4.291,4.291,4.2892,4.2837,4.2765,4.2076,4.1307,4.0646,4.0547,3.9948,3.9304,3.8881,3.796,3.7001,3.6621,3.6282,3.5746,3.5628,3.5628,3.5628,3.5628,3.5678,3.5769,3.5274,3.5034,3.4933,3.3972,3.371,3.4065,3.3676,3.3841,3.4219,3.4588,3.4942,3.514,3.5551,3.5885,3.5747,3.5928,3.5894,3.5784,3.5688,3.5605,3.5555,3.5521,3.5034,3.4257,3.3647,3.2914,3.201,3.1431,3.1005,3.1005,3.1005,3.1005,3.1005,3.1005,3.1005,3.1005,3.093,3.0855,3.0723,3.0533,3.0362,3.0043,2.9152,2.8271,2.7282,2.6421,2.5631,2.502,2.4647,2.4507,2.4507,2.4507,2.4507,2.4507,2.4487,2.4245,2.3994,2.3577,2.3029,2.2584,2.2217,2.1982,3.8961,4.0139,4.0383,4.1261,4.2411,4.2484,4.2502,4.2538,4.2783,4.291,4.291,4.291,4.291,4.291,4.291,4.291,4.291,4.291,4.291,4.291,4.291,4.291,4.291,4.291,4.291,4.291,4.291,4.291,4.291,4.291,4.291,4.291,4.291,4.291,4.2855,4.2537,4.2173,4.1634,4.1111,4.041,3.9613,3.903,3.8228,3.6971,3.6902,3.6479,3.5746,3.5695,3.5633,3.5695,3.5712,3.5904,3.6089,3.5721,3.5447,3.5431,3.4824,3.4596,3.4914,3.4873,3.4875,3.5063,3.5141,3.5416,3.5751,3.5854,3.5927,3.5831,3.5799,3.5703,3.5604,3.5572,3.5522,3.5522,3.5326,3.4639,3.3936,3.3506,3.2858,3.1786,3.1024,3.1005,3.1005,3.1005,3.1005,3.1005,3.1005,3.1005,3.1005,3.0868,3.0755,3.0622,3.047,3.026,2.9812,2.8838,2.7939,2.7037,2.6267,2.5526,2.502,2.4583,2.4507,2.4507,2.4507,2.4507,2.4497,2.4454,2.4272,2.3977,2.3589,2.3272,2.2912,2.2576,2.2342,3.9514,4.0872,4.0917,4.1669,4.2801,4.291,4.291,4.291,4.291,4.291,4.291,4.291,4.291,4.291,4.291,4.291,4.291,4.291,4.291,4.291,4.291,4.291,4.291,4.291,4.291,4.291,4.291,4.291,4.291,4.291,4.291,4.291,4.291,4.291,4.2873,4.2799,4.2706,4.223,4.1759,4.1144,4.042,3.9697,3.886,3.7907,3.7342,3.6851,3.6197,3.5847,3.5769,3.5898,3.6101,3.628,3.6506,3.6323,3.5893,3.5699,3.5481,3.5172,3.5241,3.5585,3.5523,3.5646,3.5538,3.5627,3.5898,3.5799,3.5734,3.5669,3.5638,3.5589,3.5537,3.5489,3.5489,3.5489,3.5279,3.4622,3.3713,3.3262,3.2662,3.1598,3.1005,3.1005,3.1005,3.1005,3.1005,3.1005,3.1005,3.1005,3.0968,3.0811,3.0641,3.0508,3.0247,2.994,2.9353,2.841,2.7557,2.6771,2.5997,2.52,2.4946,2.4507,2.4507,2.4507,2.4507,2.4507,2.4475,2.4411,2.4218,2.397,2.3661,2.3391,2.3157,2.2927,2.2664,4.0256,4.1569,4.165,4.2103,4.2837,4.291,4.291,4.291,4.291,4.291,4.291,4.291,4.291,4.291,4.291,4.291,4.291,4.291,4.291,4.291,4.291,4.291,4.291,4.291,4.291,4.291,4.291,4.291,4.291,4.291,4.291,4.291,4.291,4.2844,4.2816,4.2586,4.2527,4.2275,4.1836,4.1275,4.07,4.0561,3.965,3.8776,3.8142,3.7562,3.6907,3.6372,3.6405,3.6569,3.6834,3.6913,3.6825,3.6519,3.5948,3.5507,3.5297,3.5323,3.5401,3.5796,3.5854,3.5839,3.5899,3.5798,3.5668,3.5635,3.5587,3.5554,3.5539,3.5522,3.5489,3.5489,3.5489,3.5489,3.5489,3.4656,3.3575,3.2911,3.234,3.1658,3.1161,3.1005,3.1005,3.1005,3.1005,3.0986,3.0968,3.0892,3.0855,3.0742,3.0552,3.0362,3.0056,2.958,2.887,2.8019,2.718,2.64,2.5453,2.4722,2.4518,2.4507,2.4507,2.4507,2.4507,2.4497,2.4497,2.4368,2.4153,2.3916,2.3667,2.3428,2.3188,2.3123,2.2935,3.9441,4.0809,4.0845,4.1633,4.2801,4.291,4.291,4.291,4.291,4.291,4.291,4.291,4.291,4.291,4.291,4.291,4.291,4.291,4.291,4.291,4.291,4.291,4.291,4.291,4.291,4.291,4.291,4.291,4.291,4.291,4.291,4.291,4.2882,4.2731,4.2268,4.1777,4.178,4.1603,4.1156,4.0796,4.0532,4.0253,3.9627,3.9071,3.8684,3.8091,3.7589,3.7268,3.7319,3.7476,3.7572,3.7604,3.7527,3.6947,3.6294,3.5772,3.5707,3.5779,3.5794,3.5914,3.5941,3.5815,3.5799,3.5767,3.5653,3.5555,3.5489,3.5489,3.5489,3.5489,3.5489,3.5489,3.5489,3.5489,3.5328,3.4589,3.3575,3.2879,3.2286,3.1487,3.1005,3.1005,3.1005,3.1005,3.1005,3.0968,3.0911,3.0849,3.0736,3.059,3.0457,3.0267,2.9754,2.9236,2.8561,2.7738,2.6853,2.5986,2.5105,2.4507,2.4507,2.4507,2.4507,2.4507,2.4507,2.4507,2.4507,2.4357,2.4175,2.3959,2.3732,2.3472,2.3276,2.3188,2.3123,3.9387,4.0429,4.0501,4.1243,4.2339,4.2765,4.291,4.291,4.291,4.291,4.291,4.291,4.291,4.291,4.291,4.291,4.291,4.291,4.291,4.291,4.291,4.291,4.291,4.291,4.291,4.291,4.291,4.291,4.29,4.2826,4.2799,4.2402,4.2618,4.2259,4.1582,4.0857,4.0486,4.0246,3.9929,3.9583,3.9445,3.9366,3.9051,3.9005,3.8773,3.8393,3.8244,3.8087,3.7961,3.8042,3.8048,3.7798,3.7576,3.6963,3.637,3.5876,3.5812,3.5804,3.5802,3.5768,3.5734,3.5653,3.5621,3.562,3.5604,3.5538,3.5506,3.5489,3.5489,3.5489,3.5489,3.5489,3.5489,3.5489,3.4986,3.4474,3.3731,3.3003,3.216,3.1296,3.1005,3.1005,3.1005,3.1005,3.0986,3.0968,3.0855,3.0685,3.0552,3.04,3.0305,3.0171,2.9509,2.8863,2.8111,2.7302,2.6338,2.5547,2.4988,2.4518,2.4507,2.4507,2.4507,2.4507,2.4507,2.4507,2.4507,2.439,2.4218,2.4002,2.3776,2.3537,2.3319,2.321,2.3144,3.9713,4.0392,4.0483,4.0981,4.1741,4.2466,4.2801,4.291,4.29,4.29,4.291,4.291,4.291,4.291,4.291,4.291,4.291,4.291,4.291,4.291,4.291,4.291,4.291,4.291,4.2891,4.29,4.291,4.29,4.2862,4.2769,4.2478,4.1812,4.2158,4.1841,4.0744,3.9663,3.9087,3.8629,3.8332,3.8025,3.8258,3.8196,3.814,3.8584,3.8391,3.8067,3.8403,3.8337,3.8048,3.8198,3.8177,3.7853,3.7238,3.6628,3.6104,3.5899,3.5769,3.572,3.5686,3.5636,3.557,3.5522,3.5489,3.5537,3.5522,3.5522,3.5489,3.5489,3.5489,3.5489,3.5489,3.5489,3.5489,3.5424,3.51,3.4373,3.3523,3.2684,3.175,3.1086,3.1005,3.1005,3.1005,3.1005,3.0949,3.093,3.0779,3.0571,3.0394,3.0209,3.0113,2.9998,2.9275,2.8502,2.7557,2.6709,2.5736,2.4999,2.4636,2.4518,2.4507,2.4507,2.4507,2.4507,2.4507,2.4507,2.4486,2.439,2.4282,2.4045,2.3797,2.358,2.3394,2.3281,2.3166,3.8943,3.9713,4.0266,4.0963,4.165,4.1904,4.2357,4.2882,4.2842,4.2852,4.2882,4.291,4.291,4.29,4.2881,4.2881,4.2873,4.2862,4.29,4.2891,4.2881,4.2862,4.29,4.2844,4.2871,4.2861,4.2871,4.2834,4.2718,4.2642,4.2529,4.2186,4.1942,4.0948,3.9945,3.875,3.7759,3.72,3.6643,3.6831,3.741,3.7615,3.7745,3.7825,3.7616,3.7918,3.8242,3.8472,3.8434,3.8572,3.855,3.7915,3.6933,3.6085,3.57,3.5619,3.5588,3.5572,3.5555,3.5538,3.5506,3.5489,3.5489,3.5489,3.5489,3.5489,3.5489,3.5489,3.5489,3.5489,3.5489,3.5489,3.5473,3.5375,3.5116,3.4187,3.3245,3.2282,3.1296,3.1123,3.1024,3.1005,3.1005,3.0949,3.0911,3.0779,3.0596,3.0419,3.0222,3.0049,2.9972,2.9747,2.9008,2.8203,2.7171,2.6246,2.5306,2.4861,2.4583,2.4507,2.4507,2.4507,2.4507,2.4507,2.4507,2.4507,2.4507,2.4486,2.4325,2.4088,2.3973,2.3795,2.354,2.3394,2.3232,3.8454,3.8952,3.9695,4.0274,4.0754,4.1379,4.1949,4.2337,4.2659,4.2775,4.2767,4.2776,4.2796,4.2815,4.2796,4.2776,4.2768,4.2767,4.2747,4.2757,4.2786,4.2757,4.2767,4.2758,4.2746,4.2727,4.2736,4.267,4.2502,4.2208,4.2024,4.1586,4.081,4.0193,3.9202,3.7785,3.6836,3.6036,3.537,3.5659,3.6527,3.6525,3.6776,3.6827,3.7111,3.7422,3.7782,3.8042,3.8048,3.7908,3.7691,3.7112,3.629,3.5734,3.5538,3.5506,3.5506,3.5489,3.5489,3.5489,3.5489,3.5489,3.5489,3.5489,3.5489,3.5489,3.5489,3.5489,3.5489,3.5489,3.5489,3.5489,3.5489,3.5424,3.4457,3.3384,3.2497,3.1579,3.1104,3.1067,3.0986,3.093,3.0892,3.083,3.0755,3.059,3.0406,3.0324,3.0126,3.0014,2.9899,2.9541,2.8859,2.7739,2.6545,2.5725,2.4978,2.4658,2.4507,2.4507,2.4507,2.4507,2.4507,2.4559,2.4569,2.4507,2.4507,2.4631,2.4431,2.4175,2.4099,2.4029,2.3794,2.3636,2.3711,3.8218,3.8309,3.8961,3.9341,3.9586,4.0782,4.146,4.1728,4.2295,4.2598,4.2619,4.258,4.2657,4.2696,4.2658,4.2629,4.2619,4.2658,4.2629,4.2629,4.2629,4.2658,4.2658,4.2629,4.2629,4.2599,4.2562,4.2391,4.2169,4.1885,4.1358,4.0396,3.9961,3.9703,3.8342,3.7507,3.6973,3.614,3.5537,3.5179,3.5205,3.5183,3.5682,3.6042,3.6255,3.6546,3.6949,3.717,3.7148,3.6969,3.6711,3.6229,3.5894,3.5554,3.5538,3.5489,3.5489,3.5489,3.5489,3.5489,3.5489,3.5489,3.5504,3.5534,3.5549,3.5549,3.5549,3.5549,3.5549,3.5534,3.5534,3.5549,3.5549,3.5273,3.4059,3.2881,3.2009,3.1208,3.1108,3.1084,3.1106,3.1049,3.1064,3.0956,3.079,3.0586,3.0369,3.0253,3.0175,3.017,3.01,2.9559,2.8847,2.7587,2.6325,2.5477,2.4919,2.4615,2.4507,2.4507,2.4538,2.4652,2.4714,2.4704,2.4683,2.4849,2.488,2.4984,2.4687,2.4399,2.4456,2.4493,2.4196,2.4108,2.4365,3.82,3.8218,3.8363,3.878,3.9378,3.9661,4.0393,4.1493,4.1593,4.1939,4.2432,4.2458,4.2468,4.2639,4.2619,4.2589,4.255,4.257,4.2589,4.2609,4.256,4.258,4.258,4.254,4.2589,4.2482,4.2371,4.2318,4.1742,4.1528,4.1415,4.0975,3.9518,3.9088,3.8664,3.7764,3.6756,3.6233,3.5883,3.5479,3.6009,3.5838,3.5075,3.5165,3.5181,3.5651,3.6059,3.6287,3.6396,3.6302,3.6045,3.5722,3.557,3.5489,3.5489,3.5489,3.5489,3.5489,3.5489,3.5609,3.5654,3.5669,3.5699,3.5742,3.5757,3.5744,3.5744,3.5744,3.5729,3.5684,3.5684,3.5729,3.5695,3.5169,3.4229,3.3183,3.2203,3.1649,3.1332,3.1483,3.1641,3.1798,3.2026,3.1889,3.1692,3.1399,3.0915,3.0771,3.055,3.0448,3.0363,2.974,2.9047,2.8082,2.706,2.5808,2.5122,2.4767,2.459,2.4777,2.4901,2.4963,2.5004,2.5066,2.5326,2.5544,2.5544,2.5347,2.5216,2.4995,2.5032,2.4987,2.4651,2.4607,2.4883]}]]